[[{"header":{"parameterUnit":"m.s-1","parameterCategory":1,"la1":30.6,"la2":28.766,"lo1":-90.7593,"lo2":-88.6598,"dy":0.0162,"dx":0.0183,"nx":116,"ny":114,"refTime":"2023-10-26T18:00:00:Z","depth":0,"parameterNumber":2,"parameterNumberName":"U-component_of_WINDS"},"data":[0.0,0.0,0.0,0.0,0.0,0.0,0.0,0.0,0.0,0.0,0.0,0.0,0.0,0.0,0.0,0.0,0.0,0.0,0.0,0.0,0.0,0.0,0.0,0.0,0.0,0.0,0.0,0.0,0.0,0.0,0.0,0.0,0.0,0.0,0.0,0.0,0.0,0.0,0.0,0.0,0.0,0.0,0.0,0.0,0.0,0.0,0.0,0.0,0.0,0.0,0.0,0.0,0.0,0.0,0.0,0.0,0.0,0.0,0.0,0.0,0.0,0.0,0.0,0.0,0.0,0.0,0.0,0.0,0.0,0.0,0.0,0.0,0.0,0.0,0.0,0.0,0.0,0.0,0.0,0.0,0.0,0.0,0.0,0.0,0.0,0.0,0.0,0.0,0.0,0.0,0.0,0.0,0.0,0.0,0.0,0.0,0.0,0.0,0.0,0.0,0.0,0.0,0.0,0.0,0.0,0.0,0.0,0.0,0.0,0.0,0.0,0.0,0.0,0.0,0.0,0.0,0.0,0.0,0.0,0.0,0.0,0.0,0.0,0.0,0.0,0.0,0.0,0.0,0.0,0.0,0.0,0.0,0.0,0.0,0.0,0.0,0.0,0.0,0.0,0.0,0.0,0.0,0.0,0.0,0.0,0.0,0.0,0.0,0.0,0.0,0.0,0.0,0.0,0.0,0.0,0.0,0.0,0.0,0.0,0.0,0.0,0.0,0.0,0.0,0.0,0.0,0.0,0.0,0.0,0.0,0.0,0.0,0.0,0.0,0.0,0.0,0.0,0.0,0.0,0.0,0.0,0.0,0.0,0.0,0.0,0.0,0.0,0.0,0.0,0.0,0.0,0.0,0.0,0.0,0.0,0.0,0.0,0.0,0.0,0.0,0.0,0.0,0.0,0.0,0.0,0.0,0.0,0.0,0.0,0.0,0.0,0.0,0.0,0.0,0.0,0.0,0.0,0.0,0.0,0.0,0.0,0.0,0.0,0.0,0.0,0.0,0.0,0.0,0.0,0.0,0.0,0.0,0.0,0.0,0.0,0.0,0.0,0.0,0.0,0.0,0.0,0.0,0.0,0.0,0.0,0.0,0.0,0.0,0.0,0.0,0.0,0.0,0.0,0.0,0.0,0.0,0.0,0.0,0.0,0.0,0.0,0.0,0.0,0.0,0.0,0.0,0.0,0.0,0.0,0.0,0.0,0.0,0.0,0.0,0.0,0.0,0.0,0.0,0.0,0.0,0.0,0.0,0.0,0.0,0.0,0.0,0.0,0.0,0.0,0.0,0.0,0.0,0.0,0.0,0.0,0.0,0.0,0.0,0.0,0.0,0.0,0.0,0.0,0.0,0.0,0.0,0.0,0.0,0.0,0.0,0.0,0.0,0.0,0.0,0.0,0.0,0.0,0.0,0.0,0.0,0.0,0.0,0.0,0.0,0.0,0.0,0.0,0.0,0.0,0.0,0.0,0.0,0.0,0.0,0.0,0.0,0.0,0.0,0.0,0.0,0.0,0.0,0.0,0.0,0.0,0.0,0.0,0.0,0.0,0.0,0.0,0.0,0.0,0.0,0.0,0.0,0.0,0.0,0.0,0.0,0.0,0.0,0.0,0.0,0.0,0.0,0.0,0.0,0.0,0.0,0.0,0.0,0.0,0.0,0.0,0.0,0.0,0.0,0.0,0.0,0.0,0.0,0.0,0.0,0.0,0.0,0.0,0.0,0.0,0.0,0.0,0.0,0.0,0.0,0.0,0.0,0.0,0.0,0.0,0.0,0.0,0.0,0.0,0.0,0.0,0.0,0.0,0.0,0.0,0.0,0.0,0.0,0.0,0.0,0.0,0.0,0.0,0.0,0.0,0.0,0.0,0.0,0.0,0.0,0.0,0.0,0.0,0.0,0.0,0.0,0.0,0.0,0.0,0.0,0.0,0.0,0.0,0.0,0.0,0.0,0.0,0.0,0.0,0.0,0.0,0.0,0.0,0.0,0.0,0.0,0.0,0.0,0.0,0.0,0.0,0.0,0.0,0.0,0.0,0.0,0.0,0.0,0.0,0.0,0.0,0.0,0.0,0.0,0.0,0.0,0.0,0.0,0.0,0.0,0.0,0.0,0.0,0.0,0.0,0.0,0.0,0.0,0.0,0.0,0.0,0.0,0.0,0.0,0.0,0.0,0.0,0.0,0.0,0.0,0.0,0.0,0.0,0.0,0.0,0.0,0.0,0.0,0.0,0.0,0.0,0.0,0.0,0.0,0.0,0.0,0.0,0.0,0.0,0.0,0.0,0.0,0.0,0.0,0.0,0.0,0.0,0.0,0.0,0.0,0.0,0.0,0.0,0.0,0.0,0.0,0.0,0.0,0.0,0.0,0.0,0.0,0.0,0.0,0.0,0.0,0.0,0.0,0.0,0.0,0.0,0.0,0.0,0.0,0.0,0.0,0.0,0.0,0.0,0.0,0.0,0.0,0.0,0.0,0.0,0.0,0.0,0.0,0.0,0.0,0.0,0.0,0.0,0.0,0.0,0.0,0.0,0.0,0.0,0.0,0.0,0.0,0.0,0.0,0.0,0.0,0.0,0.0,0.0,0.0,0.0,0.0,0.0,0.0,0.0,0.0,0.0,0.0,0.0,0.0,0.0,0.0,0.0,0.0,0.0,0.0,0.0,0.0,0.0,0.0,0.0,0.0,0.0,0.0,0.0,0.0,0.0,0.0,0.0,0.0,0.0,0.0,0.0,0.0,0.0,0.0,0.0,0.0,0.0,0.0,0.0,0.0,0.0,0.0,0.0,0.0,0.0,0.0,0.0,0.0,0.0,0.0,0.0,0.0,0.0,0.0,0.0,0.0,0.0,0.0,0.0,0.0,0.0,0.0,0.0,0.0,0.0,0.0,0.0,0.0,0.0,0.0,0.0,0.0,0.0,0.0,0.0,0.0,0.0,0.0,0.0,0.0,0.0,0.0,0.0,0.0,0.0,0.0,0.0,0.0,0.0,0.0,0.0,0.0,0.0,0.0,0.0,0.0,0.0,0.0,0.0,0.0,0.0,0.0,0.0,0.0,0.0,0.0,0.0,0.0,0.0,0.0,0.0,0.0,0.0,0.0,0.0,0.0,0.0,0.0,0.0,0.0,0.0,0.0,0.0,0.0,0.0,0.0,0.0,0.0,0.0,0.0,0.0,0.0,0.0,0.0,0.0,0.0,0.0,0.0,0.0,0.0,0.0,0.0,0.0,0.0,0.0,0.0,0.0,0.0,0.0,0.0,0.0,0.0,0.0,0.0,0.0,0.0,0.0,0.0,0.0,0.0,0.0,0.0,0.0,0.0,0.0,0.0,0.0,0.0,0.0,0.0,0.0,0.0,0.0,0.0,0.0,0.0,0.0,0.0,0.0,0.0,0.0,0.0,0.0,0.0,0.0,0.0,0.0,0.0,0.0,0.0,0.0,0.0,0.0,0.0,0.0,0.0,0.0,0.0,0.0,0.0,0.0,0.0,0.0,0.0,0.0,0.0,0.0,0.0,0.0,0.0,0.0,0.0,0.0,0.0,0.0,0.0,0.0,0.0,0.0,0.0,0.0,0.0,0.0,0.0,0.0,0.0,0.0,0.0,0.0,0.0,0.0,0.0,0.0,0.0,0.0,0.0,0.0,0.0,0.0,0.0,0.0,0.0,0.0,0.0,0.0,0.0,0.0,0.0,0.0,0.0,0.0,0.0,0.0,0.0,0.0,0.0,0.0,0.0,0.0,0.0,0.0,0.0,0.0,0.0,0.0,0.0,0.0,0.0,0.0,0.0,0.0,0.0,0.0,0.0,0.0,0.0,0.0,0.0,0.0,0.0,0.0,0.0,0.0,0.0,0.0,0.0,0.0,0.0,0.0,0.0,0.0,0.0,0.0,0.0,0.0,0.0,0.0,0.0,0.0,0.0,0.0,0.0,0.0,0.0,0.0,0.0,0.0,0.0,0.0,0.0,0.0,0.0,0.0,0.0,0.0,0.0,0.0,0.0,0.0,0.0,0.0,0.0,0.0,0.0,0.0,0.0,0.0,0.0,0.0,0.0,0.0,0.0,0.0,0.0,0.0,0.0,0.0,0.0,0.0,0.0,0.0,0.0,0.0,0.0,0.0,0.0,0.0,0.0,0.0,0.0,0.0,0.0,0.0,0.0,0.0,0.0,0.0,0.0,0.0,0.0,0.0,0.0,0.0,0.0,0.0,0.0,0.0,0.0,0.0,0.0,0.0,0.0,0.0,0.0,0.0,0.0,0.0,0.0,0.0,0.0,0.0,0.0,0.0,0.0,0.0,0.0,0.0,0.0,0.0,0.0,0.0,0.0,0.0,0.0,0.0,0.0,0.0,0.0,0.0,0.0,0.0,0.0,0.0,0.0,0.0,0.0,0.0,0.0,0.0,0.0,0.0,0.0,0.0,0.0,0.0,0.0,0.0,0.0,0.0,0.0,0.0,0.0,0.0,0.0,0.0,0.0,0.0,0.0,0.0,0.0,0.0,0.0,0.0,0.0,0.0,0.0,0.0,0.0,0.0,0.0,0.0,0.0,0.0,0.0,0.0,0.0,0.0,0.0,0.0,0.0,0.0,0.0,0.0,0.0,0.0,0.0,0.0,0.0,0.0,0.0,0.0,0.0,0.0,0.0,0.0,0.0,0.0,0.0,0.0,0.0,0.0,0.0,0.0,0.0,0.0,0.0,0.0,0.0,0.0,0.0,0.0,0.0,0.0,0.0,0.0,0.0,0.0,0.0,0.0,0.0,0.0,0.0,0.0,0.0,0.0,0.0,0.0,0.0,0.0,0.0,0.0,0.0,0.0,0.0,0.0,0.0,0.0,0.0,0.0,0.0,0.0,0.0,0.0,0.0,0.0,0.0,0.0,0.0,0.0,0.0,0.0,0.0,0.0,0.0,0.0,0.0,0.0,0.0,0.0,0.0,0.0,0.0,0.0,0.0,0.0,0.0,0.0,0.0,0.0,0.0,0.0,0.0,0.0,0.0,0.0,0.0,0.0,0.0,0.0,0.0,0.0,0.0,0.0,0.0,0.0,0.0,0.0,0.0,0.0,0.0,0.0,0.0,0.0,0.0,0.0,0.0,0.0,0.0,0.0,0.0,0.0,0.0,0.0,0.0,0.0,0.0,0.0,0.0,0.0,0.0,0.0,0.0,0.0,0.0,0.0,0.0,0.0,0.0,0.0,0.0,0.0,0.0,0.0,0.0,0.0,0.0,0.0,0.0,0.0,0.0,0.0,0.0,0.0,0.0,0.0,0.0,0.0,0.0,0.0,0.0,0.0,0.0,0.0,0.0,0.0,0.0,0.0,0.0,0.0,0.0,0.0,0.0,0.0,0.0,0.0,0.0,0.0,0.0,0.0,0.0,0.0,0.0,0.0,0.0,0.0,0.0,0.0,0.0,0.0,0.0,0.0,0.0,0.0,0.0,0.0,0.0,0.0,0.0,0.0,0.0,0.0,0.0,0.0,0.0,0.0,0.0,0.0,0.0,0.0,0.0,0.0,0.0,0.0,0.0,0.0,0.0,0.0,0.0,0.0,0.0,0.0,0.0,0.0,0.0,0.0,0.0,0.0,0.0,0.0,0.0,0.0,0.0,0.0,0.0,0.0,0.0,0.0,0.0,0.0,0.0,0.0,0.0,0.0,0.0,0.0,0.0,0.0,0.0,0.0,0.0,0.0,0.0,0.0,0.0,0.0,0.0,0.0,0.0,0.0,0.0,0.0,0.0,0.0,0.0,0.0,0.0,0.0,0.0,0.0,0.0,0.0,0.0,0.0,0.0,0.0,0.0,0.0,0.0,0.0,0.0,0.0,0.0,0.0,0.0,0.0,0.0,0.0,0.0,0.0,0.0,0.0,0.0,0.0,0.0,0.0,0.0,0.0,0.0,0.0,0.0,0.0,0.0,0.0,0.0,0.0,0.0,0.0,0.0,0.0,0.0,0.0,0.0,0.0,0.0,0.0,0.0,0.0,0.0,0.0,0.0,0.0,0.0,0.0,0.0,0.0,0.0,0.0,0.0,0.0,0.0,0.0,0.0,0.0,0.0,0.0,0.0,0.0,0.0,0.0,0.0,0.0,0.0,0.0,0.0,-3.3607,-3.3756,0.0,0.0,0.0,0.0,0.0,0.0,0.0,0.0,0.0,0.0,0.0,0.0,0.0,0.0,0.0,0.0,0.0,0.0,0.0,0.0,0.0,0.0,0.0,0.0,0.0,0.0,0.0,0.0,0.0,0.0,0.0,0.0,0.0,0.0,0.0,0.0,0.0,-3.6088,-3.6528,-3.7023,-3.7514,-3.7893,-3.8458,-3.9276,0.0,0.0,0.0,0.0,0.0,0.0,0.0,0.0,0.0,0.0,0.0,0.0,0.0,0.0,0.0,0.0,0.0,0.0,0.0,0.0,0.0,0.0,0.0,0.0,0.0,0.0,0.0,0.0,0.0,0.0,0.0,0.0,0.0,0.0,0.0,0.0,0.0,0.0,0.0,0.0,0.0,0.0,0.0,0.0,0.0,0.0,0.0,0.0,0.0,0.0,0.0,0.0,0.0,0.0,0.0,0.0,0.0,0.0,0.0,0.0,0.0,0.0,0.0,0.0,0.0,0.0,0.0,0.0,0.0,0.0,-3.1261,-3.2217,0.0,0.0,0.0,0.0,0.0,0.0,0.0,0.0,0.0,0.0,0.0,0.0,0.0,0.0,0.0,0.0,0.0,0.0,0.0,0.0,0.0,0.0,0.0,-3.3054,-3.3004,-3.2159,-3.3836,-3.3767,0.0,0.0,0.0,0.0,0.0,0.0,-3.2392,-3.2817,-3.2931,-3.2826,-3.3116,-3.3854,-3.5106,-3.4756,-3.5096,-3.6192,-3.8839,0.0,0.0,0.0,0.0,0.0,0.0,0.0,0.0,0.0,0.0,0.0,0.0,0.0,0.0,0.0,0.0,0.0,0.0,0.0,0.0,0.0,0.0,0.0,0.0,0.0,0.0,0.0,0.0,0.0,0.0,0.0,0.0,0.0,0.0,0.0,0.0,0.0,0.0,0.0,0.0,0.0,0.0,0.0,0.0,0.0,0.0,0.0,0.0,0.0,0.0,0.0,0.0,0.0,0.0,0.0,0.0,0.0,0.0,0.0,0.0,0.0,0.0,0.0,-2.7113,-2.7285,-2.7557,-2.7082,-2.7127,-2.7614,-2.8684,-3.0005,-3.1431,-3.1328,0.0,0.0,0.0,0.0,0.0,0.0,0.0,0.0,0.0,0.0,0.0,0.0,0.0,0.0,0.0,0.0,0.0,0.0,0.0,-3.0034,-3.0351,-3.0967,-3.0871,-2.9849,-3.1562,-3.2001,-3.0338,0.0,0.0,0.0,0.0,0.0,-3.2907,-3.2996,-3.2726,-3.2129,-2.9674,-2.9298,-3.0842,-3.1071,-3.1814,-3.2997,-3.6388,-3.8764,-4.0161,0.0,0.0,0.0,0.0,0.0,0.0,0.0,0.0,0.0,0.0,0.0,0.0,0.0,0.0,0.0,0.0,0.0,0.0,0.0,0.0,0.0,0.0,0.0,0.0,0.0,0.0,0.0,0.0,0.0,0.0,0.0,0.0,0.0,0.0,0.0,0.0,0.0,0.0,0.0,0.0,0.0,-3.3614,-3.2365,0.0,0.0,0.0,0.0,0.0,0.0,0.0,0.0,0.0,0.0,0.0,0.0,0.0,-2.5372,-2.5877,-2.5045,-2.4613,-2.4668,-2.519,-2.5313,-2.508,-2.4517,-2.5229,-2.6869,-2.6617,0.0,-2.8317,-2.7802,0.0,0.0,0.0,0.0,0.0,0.0,0.0,0.0,0.0,0.0,0.0,0.0,0.0,0.0,0.0,0.0,0.0,0.0,0.0,0.0,0.0,-3.0018,-2.9486,-2.8309,-2.9157,-2.8782,-2.6377,-2.8089,0.0,0.0,-2.9055,-2.9766,-3.068,-3.0025,-2.9405,-2.8851,-2.7579,-2.7358,-2.825,-2.8428,-2.974,-3.1951,-3.3224,-3.5338,-3.7882,-3.6928,0.0,0.0,0.0,0.0,0.0,0.0,0.0,0.0,0.0,0.0,0.0,0.0,0.0,0.0,0.0,0.0,0.0,0.0,0.0,0.0,0.0,0.0,0.0,0.0,0.0,0.0,0.0,0.0,0.0,0.0,0.0,0.0,0.0,0.0,0.0,0.0,0.0,0.0,0.0,-3.147,-3.1335,-2.954,-2.9466,-2.8804,0.0,0.0,0.0,0.0,0.0,0.0,0.0,0.0,0.0,-2.5677,-2.4616,-2.4134,-2.44,-2.4259,-2.4289,-2.4449,-2.4877,-2.501,-2.4877,-2.4623,-2.4902,-2.5548,-2.5282,-2.5513,-2.6088,-2.7261,-2.7458,-2.7019,0.0,0.0,0.0,0.0,-2.7148,-2.7057,0.0,0.0,0.0,0.0,0.0,0.0,0.0,0.0,0.0,0.0,0.0,0.0,-2.8265,-2.7874,-2.713,-2.5929,-2.6489,-2.5685,-2.3002,-2.5129,-2.6037,-2.5039,-2.6151,-2.7152,-2.7864,-2.6756,-2.604,-2.5782,-2.5407,-2.5534,-2.6264,-2.636,-2.7933,-3.0605,-3.0185,-3.2221,-3.5945,-3.5415,-3.5042,-3.4919,0.0,0.0,0.0,0.0,0.0,0.0,0.0,0.0,0.0,0.0,0.0,0.0,0.0,0.0,0.0,0.0,0.0,0.0,0.0,0.0,0.0,0.0,0.0,0.0,0.0,0.0,0.0,0.0,0.0,0.0,0.0,0.0,0.0,0.0,0.0,0.0,0.0,-2.9298,-2.9212,-2.7216,-2.747,-2.7054,0.0,0.0,0.0,0.0,0.0,0.0,-2.5823,-2.473,-2.4386,-2.5016,-2.4119,-2.3701,-2.3781,-2.4209,-2.4569,-2.4863,-2.509,-2.5197,-2.5184,-2.5037,-2.485,-2.4636,-2.4556,-2.4489,-2.4574,-2.6444,-2.7003,-2.6687,-2.6584,-2.6366,-2.623,-2.6413,-2.6351,-2.6246,0.0,0.0,0.0,0.0,0.0,0.0,0.0,0.0,0.0,0.0,0.0,-2.388,-2.3597,-2.3268,-2.2706,-2.1948,-2.3175,-2.3359,-2.1783,-2.3119,-2.3956,-2.39,-2.4248,-2.467,-2.5094,-2.4204,-2.388,-2.4116,-2.2616,-2.277,-2.4545,-2.499,-2.6109,-2.7715,-2.7698,-3.0733,-3.5848,-3.4786,-3.3877,-3.3163,-3.363,0.0,0.0,0.0,0.0,0.0,0.0,0.0,0.0,0.0,0.0,0.0,0.0,0.0,0.0,0.0,0.0,0.0,0.0,0.0,0.0,0.0,0.0,0.0,0.0,0.0,0.0,0.0,0.0,0.0,0.0,0.0,0.0,0.0,0.0,0.0,0.0,0.0,0.0,-2.6806,-2.7027,0.0,0.0,0.0,0.0,-2.4267,-2.4262,-2.3998,-2.3485,-2.3668,-2.3964,-2.4273,-2.4422,-2.4703,-2.4983,-2.5024,-2.5184,-2.5464,-2.5478,-2.5491,-2.5478,-2.4917,-2.4649,-2.4623,-2.4342,-2.4075,-2.3879,-2.3968,-2.4012,-2.3944,-2.3363,-2.3119,-2.3106,-2.3119,-2.3119,-2.3106,0.0,0.0,0.0,0.0,0.0,0.0,0.0,0.0,-2.4485,-2.3593,-2.236,-2.1587,-2.1642,-1.999,-1.9228,-2.0016,-1.9655,-1.9625,-2.0141,-2.1586,-2.2363,-2.2363,-2.3602,-2.3573,-2.1953,-2.081,-1.9903,-1.9114,-1.8645,-1.9464,-2.1458,-2.1755,-2.3541,-2.6527,-2.6527,-2.8245,-3.1062,-3.0581,-3.0178,-3.0074,-3.172,-3.2039,0.0,0.0,0.0,0.0,0.0,0.0,0.0,0.0,0.0,0.0,0.0,0.0,0.0,0.0,0.0,0.0,0.0,0.0,0.0,0.0,0.0,0.0,0.0,0.0,0.0,0.0,0.0,0.0,0.0,0.0,0.0,0.0,0.0,0.0,0.0,0.0,0.0,-2.5947,-2.6249,0.0,-2.2459,-2.1819,-2.1012,-1.9574,-2.0872,-2.1767,-2.1931,-2.332,-2.4182,-2.4476,-2.4583,-2.469,-2.4796,-2.4796,-2.485,-2.4943,-2.4943,-2.485,-2.4663,-2.4449,-2.4262,-2.4075,-2.3968,-2.3875,-2.3781,-2.3968,-2.4048,-2.4048,-2.4008,-2.3888,-2.3728,-2.3728,-2.3607,-2.3447,0.0,0.0,0.0,0.0,0.0,0.0,0.0,-2.3021,-2.2968,-2.1583,-2.0264,-1.9436,-1.9375,-1.731,-1.6378,-1.7533,-1.6762,-1.6621,-1.7701,-1.9176,-2.0069,-2.0167,-2.1496,-2.111,-1.8802,-1.7972,-1.7217,-1.6379,-1.6465,-1.7297,-1.8834,-1.9003,-2.0849,-2.4122,-2.4122,-2.5218,-2.7024,-2.7393,-2.7628,-2.7957,-2.9254,-3.0086,-3.0601,0.0,0.0,0.0,0.0,0.0,0.0,0.0,0.0,0.0,0.0,0.0,0.0,0.0,0.0,0.0,0.0,0.0,0.0,0.0,0.0,0.0,0.0,0.0,0.0,0.0,0.0,0.0,0.0,0.0,0.0,0.0,0.0,0.0,0.0,-2.5496,-2.5478,-2.4717,-2.4552,-2.3337,-2.0403,-1.9307,-1.8676,-1.8286,-1.9746,-2.1197,-2.2558,-2.3883,-2.473,-2.493,-2.493,-2.4836,-2.4562,-2.4636,-2.4583,-2.4489,-2.4596,-2.4436,-2.4062,-2.4062,-2.3901,-2.3621,-2.3621,-2.3567,-2.35,-2.3888,-2.4062,-2.4102,-2.4489,-2.4516,-2.4342,-2.4235,-2.4075,-2.3901,0.0,0.0,0.0,0.0,0.0,0.0,-2.2503,-2.2691,-2.2225,-2.0242,-1.8573,-1.727,-1.6458,-1.5019,-1.4181,-1.4519,-1.454,-1.454,-1.4658,-1.6079,-1.702,-1.7338,-1.7719,-1.7222,-1.5643,-1.5673,-1.5894,-1.6237,-1.6247,-1.6469,-1.6904,-1.6914,-1.8202,-2.045,-2.045,-2.1759,-2.4136,-2.5427,-2.6322,-2.6889,-2.6467,-2.8236,-3.1035,0.0,0.0,0.0,0.0,0.0,0.0,0.0,0.0,0.0,0.0,0.0,0.0,0.0,0.0,0.0,0.0,0.0,0.0,0.0,0.0,0.0,0.0,0.0,0.0,0.0,0.0,0.0,0.0,0.0,0.0,0.0,0.0,0.0,-2.3319,-2.2763,-2.2418,-2.3104,-2.1956,-2.0985,-2.0668,-1.881,-1.8613,-2.0908,-2.1152,-2.2385,-2.5209,-2.5401,-2.5491,-2.5491,-2.5491,-2.5211,-2.4649,-2.4562,-2.4416,-2.4222,-2.4416,-2.4243,-2.3768,-2.3754,-2.3594,-2.3313,-2.3313,-2.314,-2.2981,-2.3514,-2.3754,-2.3808,-2.4396,-2.4623,-2.4596,-2.4302,-2.4182,-2.4115,0.0,0.0,0.0,0.0,0.0,0.0,-2.1237,-2.1273,-2.0493,-1.7447,-1.5763,-1.4421,-1.3354,-1.187,-1.1499,-1.2749,-1.2868,-1.3825,-1.6197,-1.5666,-1.5357,-1.564,-1.47,-1.4096,-1.3797,-1.271,-1.2173,-1.2293,-1.235,-1.3257,-1.485,-1.4916,-1.6244,-1.861,-1.861,-1.9264,-2.032,-2.0684,-2.1912,-2.3888,-2.6786,-2.8147,-2.8575,0.0,0.0,0.0,0.0,0.0,0.0,0.0,0.0,0.0,0.0,0.0,0.0,0.0,0.0,0.0,0.0,0.0,0.0,0.0,0.0,0.0,0.0,0.0,0.0,0.0,0.0,0.0,0.0,0.0,0.0,0.0,-1.697,-1.6489,-1.8572,-1.8931,-1.9232,-1.9815,-1.9532,-1.935,-1.9455,-1.7426,-1.6983,-1.9147,-1.9308,-2.0305,-2.2566,-2.4029,-2.4877,-2.4877,-2.4877,-2.4796,-2.4636,-2.3116,-2.3152,-2.4442,-2.2877,-2.2712,-2.3768,-2.3554,-2.3273,-2.2993,-2.2993,-2.2939,-2.2954,-2.3287,-2.3447,-2.3514,-2.4088,-2.4329,-2.4289,-2.3995,-2.3607,-2.322,0.0,0.0,0.0,0.0,0.0,0.0,-2.1251,-2.0845,-1.9664,-1.6612,-1.4669,-1.3125,-1.1754,-1.0435,-0.9989,-1.0932,-1.1054,-1.192,-1.3809,-1.3794,-1.3835,-1.3887,-1.3242,-1.2617,-1.2017,-1.1162,-1.0717,-1.0717,-1.0812,-1.1461,-1.2694,-1.2858,-1.426,-1.6686,-1.6698,-1.7534,-1.8906,-1.8906,-1.9734,-2.1367,-2.471,-2.6683,-2.7677,-2.7537,-2.7945,-2.8764,-2.9605,-3.0541,-3.127,-3.0801,0.0,0.0,0.0,0.0,0.0,0.0,0.0,0.0,0.0,0.0,0.0,0.0,0.0,0.0,0.0,0.0,0.0,0.0,0.0,0.0,0.0,0.0,0.0,0.0,-1.5162,-1.4386,-1.5001,-1.6039,-1.7243,-1.8577,-1.7864,-1.7435,-1.772,-1.565,-1.5463,-1.8345,-1.8572,-1.9898,-2.2905,-2.4201,-2.4823,-2.4823,-2.4823,-2.4756,-2.4636,-2.3298,-2.3197,-2.4275,-2.2917,-2.2696,-2.3394,-2.3354,-2.3153,-2.2928,-2.2928,-2.2928,-2.2873,-2.306,-2.3207,-2.338,0.0,0.0,0.0,0.0,-2.3273,-2.2928,0.0,0.0,0.0,0.0,0.0,0.0,-2.2135,-2.1156,-1.9588,-1.6941,-1.4971,-1.3173,-1.1474,-1.028,-0.9615,-0.9788,-0.9659,-0.9598,-0.9632,-1.1437,-1.2409,-1.2127,-1.2535,-1.2081,-1.0558,-1.0643,-1.0717,-1.0717,-1.0717,-1.0799,-1.0887,-1.1097,-1.2367,-1.4541,-1.466,-1.6086,-1.8241,-1.8221,-1.8658,-1.9501,-2.1245,-2.4099,-2.7085,-2.5798,-2.6794,-2.8809,-2.7765,-2.7736,-2.8032,-2.7052,0.0,0.0,0.0,0.0,0.0,0.0,0.0,0.0,0.0,0.0,0.0,0.0,0.0,0.0,0.0,0.0,0.0,0.0,0.0,0.0,0.0,0.0,0.0,0.0,-1.4277,-1.3964,-1.2692,-1.3969,-1.5783,-1.8019,-1.6451,-1.5344,-1.5889,-1.3851,-1.4306,-1.8648,-1.8723,-2.048,-2.4785,-2.5024,0.0,0.0,0.0,-2.485,-2.4596,-2.407,-2.3819,-2.3821,-2.3567,-2.3263,-2.3048,-2.322,-2.3153,-2.2928,-2.2928,-2.2928,-2.2928,-2.2928,-2.3033,-2.33,-2.3607,-2.3714,-2.3688,-2.338,-2.31,-2.2928,0.0,0.0,0.0,0.0,0.0,0.0,-2.3217,-2.2208,-2.0317,-1.6864,-1.6177,-1.5053,-1.2578,-1.1293,-1.1037,-1.2028,-1.0509,-0.953,-0.9768,-1.1329,-1.1736,-1.0535,-1.0834,-1.0876,-1.0493,-1.0643,-1.0717,-1.0717,-1.0717,-1.0799,-1.0887,-1.1097,-1.1552,-1.2237,-1.2386,-1.2938,-1.3759,-1.3632,-1.565,-1.8936,-1.895,-2.065,-2.3304,-2.4655,-2.5318,-2.5632,-2.6437,-2.7372,-2.8121,-2.7908,-2.8623,-2.926,-2.77,-2.7027,0.0,0.0,0.0,0.0,0.0,0.0,0.0,0.0,0.0,0.0,0.0,0.0,0.0,0.0,0.0,0.0,0.0,0.0,0.0,-1.4162,-1.3363,-1.2678,-1.2551,-1.2783,-1.3195,-1.3588,-1.3177,-1.3619,-1.5287,-1.3543,-1.4713,-2.0594,-1.9553,-2.0402,-2.4494,-2.4716,-2.4716,-2.4716,-2.4489,-2.4342,-2.4289,-2.2369,-2.2319,-2.4115,-2.2184,0.0,-2.3594,-2.3407,-2.3153,-2.2928,-2.2928,-2.2928,-2.2928,-2.2928,-2.2899,-2.2979,-2.33,-2.3407,-2.338,-2.3073,-2.2913,-2.2928,0.0,0.0,0.0,0.0,0.0,0.0,-2.5104,-2.3585,-2.1652,-1.9035,-1.7931,-1.6563,-1.4465,-1.3194,-1.2828,-1.3456,-1.1472,-1.0333,-1.0748,-1.0914,-1.0706,-1.0154,-1.0378,-1.0527,-1.0602,-1.0683,-1.0717,-1.0717,-1.0717,-1.0758,-1.0772,-1.0989,-1.1219,-1.1511,-1.166,-1.1932,-1.2277,-1.2203,-1.3974,-1.6889,-1.7714,-1.9318,-2.1573,-2.3819,-2.473,-2.4911,-2.5621,-2.6288,-2.6766,-2.6458,-2.6873,-2.7281,-2.6801,-2.6455,-2.6365,0.0,0.0,0.0,0.0,0.0,0.0,0.0,0.0,0.0,0.0,0.0,0.0,0.0,0.0,-1.6433,-1.4907,0.0,-1.2952,-1.329,-1.2823,-1.2447,-1.2596,-1.2549,-1.2447,-1.2311,-1.2291,-1.2705,-1.3581,-1.3649,-1.5351,-1.966,-1.9905,-2.1312,-2.4401,-2.4636,-2.4569,-2.4422,-2.4275,-2.4142,-2.3981,-2.2665,-2.2601,-2.3754,-2.2448,-2.2307,-2.3313,-2.3166,-2.3006,-2.2928,-2.2928,-2.2928,-2.2941,-2.3033,-2.3006,-2.2968,-2.3207,-2.3233,-2.3073,-2.2926,-2.2928,-2.2928,0.0,0.0,0.0,0.0,0.0,0.0,0.0,-2.5487,-2.3656,-2.1926,-2.036,-1.8862,-1.7348,-1.5945,-1.4898,-1.4267,-1.2556,-1.1614,-1.167,-1.0464,-0.993,-1.0263,-1.0419,-1.0561,-1.0717,-1.0717,-1.0717,-1.0717,-1.0717,-1.0717,-1.0724,-1.0907,-1.1118,-1.1355,-1.1538,-1.1769,-1.2013,-1.1986,-1.3303,-1.5509,-1.7141,-1.9177,-2.1437,-2.3281,-2.4396,-2.4917,-2.497,-2.5064,-2.5104,-2.469,-2.4676,-2.4938,-2.5641,-2.5879,-2.5941,-2.6741,-2.7023,0.0,0.0,0.0,0.0,0.0,0.0,0.0,0.0,-1.9923,-1.779,-1.7773,-1.5874,-1.4165,-1.4061,-1.3169,-1.2487,-1.251,-1.2501,-1.2535,-1.263,-1.2562,-1.244,-1.2264,-1.2244,-1.2189,-1.2033,-1.3399,-1.5367,-1.8,-1.9654,-2.1702,-2.4382,-2.4502,-2.4382,-2.4209,-2.4088,-2.3915,-2.3688,-2.3394,-2.326,-2.3327,-2.3073,-2.2953,-2.2953,-2.2953,-2.2926,-2.2928,-2.2928,-2.2899,-2.2966,-2.3153,-2.3126,-2.2966,-2.3166,-2.3086,-2.2928,-2.2928,-2.2928,-2.2928,0.0,0.0,0.0,0.0,0.0,0.0,0.0,0.0,-2.6653,-2.4493,-2.4004,-2.3424,-2.2157,-2.0018,-1.7463,-1.4483,-1.3982,-1.314,-1.147,-1.0244,-0.9829,-1.0263,-1.0419,-1.0561,-1.0717,-1.0717,-1.0717,-1.0717,-1.0717,-1.0717,-1.0724,-1.1009,-1.1158,-1.1199,-1.1491,-1.1708,-1.185,-1.1721,-1.381,-1.7233,-1.7258,-1.9571,-2.3016,-2.3267,-2.3794,-2.4329,-2.4596,-2.4369,-2.3995,-2.4182,-2.4102,-2.4067,-2.4615,-2.4647,-2.4655,-2.5633,-2.4617,-2.3151,-2.3732,-2.1754,-1.9711,-2.0582,-1.9004,-1.7575,0.0,-1.829,-1.7491,-1.7991,-1.7693,-1.6865,-1.5255,-1.4918,-1.4374,-1.2776,-1.2501,-1.2461,-1.2352,-1.2433,-1.24,-1.2121,-1.2088,-1.2026,-1.187,-1.1997,-1.3725,-1.7623,-1.8154,-2.0022,-2.4017,-2.4008,-2.3968,-2.4195,-2.3701,-2.3407,-2.338,-2.3073,-2.3046,-2.3327,-2.3287,-2.3273,-2.3273,-2.3273,-2.3126,-2.2928,-2.2928,-2.302,-2.326,-2.3006,-2.306,-2.3247,-2.3006,-2.2968,-2.2928,-2.2928,-2.2928,-2.2928,0.0,0.0,0.0,0.0,0.0,0.0,0.0,0.0,-2.8509,-2.7592,-2.6427,-2.5501,-2.4998,-2.2828,-2.0629,-1.8689,-1.6454,-1.4706,-1.3491,-1.1657,-1.0398,-1.006,-1.0317,-1.0521,-1.0588,-1.0677,-1.0717,-1.0717,-1.0717,-1.0765,-1.0786,-1.0982,-1.1084,-1.1241,-1.1389,-1.1518,-1.1579,-1.1606,-1.3849,-1.7308,-1.7218,-1.9472,-2.2806,-2.2806,-2.2846,-2.2979,-2.3434,-2.3447,0.0,-2.318,-2.3313,-2.3554,-2.3794,-2.3794,-2.3708,-2.3762,-2.3393,-2.2791,-2.2028,-2.052,-1.9105,-1.848,-1.7721,-1.7318,-1.7885,-1.7875,-1.7721,-1.8041,-1.8255,-1.81,-1.7157,-1.6907,-1.6702,-1.5891,-1.5757,-1.5731,-1.5653,-1.5876,-1.5926,-1.5541,-1.5497,-1.4473,-1.2063,-1.3682,-1.5695,-1.7631,-1.8792,-2.078,-2.3785,-2.3834,-2.3741,-2.3701,-2.346,-2.3247,-2.306,-2.2926,-2.2926,-2.306,-2.306,-2.306,-2.306,-2.306,-2.2979,-2.2928,-2.2928,-2.2939,-2.306,-2.3113,-2.31,-2.306,-2.3113,-2.302,-2.2928,-2.2928,-2.2928,-2.2928,0.0,0.0,0.0,0.0,0.0,0.0,0.0,0.0,0.0,0.0,-2.8934,-2.7973,-2.7394,-2.5585,-2.3889,-2.2542,-1.9313,-1.7037,-1.624,-1.3754,-1.2012,-1.1503,-1.1091,-1.0976,-1.1127,-1.0771,-1.0656,-1.0656,-1.0697,-1.0778,-1.082,-1.086,-1.1002,-1.1111,-1.126,-1.1328,-1.1405,-1.2052,-1.4223,-1.7157,-1.7645,-1.9691,-2.2405,-2.2245,-2.2254,-2.2442,-2.2965,-2.3103,-2.3059,-2.322,-2.3577,-2.3865,-2.3639,-2.3612,-2.3516,-2.258,-2.2148,-2.162,-1.9866,-1.8776,-1.7907,-1.6671,-1.6313,-1.6444,-1.694,-1.7295,-1.7822,-1.9022,-1.9586,-1.9735,-1.9351,-1.9244,-1.8999,-1.834,-1.8255,-1.8215,-1.8084,-1.8265,-1.8309,-1.7865,-1.8187,-1.7106,-1.3712,-1.5675,-1.753,-1.8333,-1.9628,-2.138,-2.3563,-2.3567,-2.346,-2.3327,-2.3247,-2.3086,-2.2928,-2.2928,-2.2928,-2.2928,-2.2928,-2.2928,-2.2928,-2.2928,-2.2928,-2.2928,-2.2928,-2.2913,-2.3006,-2.3233,-2.3247,-2.3209,-2.3354,-2.3313,-2.3182,-2.3182,-2.3006,-2.2928,0.0,0.0,0.0,0.0,0.0,0.0,0.0,0.0,0.0,0.0,0.0,-3.1639,-2.9643,-2.8552,-2.7007,-2.4703,-2.2397,-2.0571,-1.9542,-1.6523,-1.5029,-1.5578,-1.3277,-1.2159,-1.2641,-1.1248,-1.05,-1.05,-1.0649,-1.0724,-1.0731,-1.0813,-1.088,-1.0894,-1.1104,-1.1241,-1.1317,-1.3322,-1.5265,-1.7131,-1.8857,-2.0706,-2.2352,-2.179,-2.2334,-2.3322,-2.3661,-2.3588,-2.3494,-2.4994,-2.5501,-2.54,-2.4445,-2.4422,-2.4283,-2.2533,-2.0409,-1.8353,-1.6892,-1.5394,-1.4297,-1.4692,-1.3687,-1.3288,-1.551,-1.6164,-1.7396,-2.1533,-2.2407,-2.2259,-2.1925,-2.1878,-2.119,-1.8971,-1.8562,-1.841,-1.7976,-1.8033,-1.793,-1.756,-1.8812,-1.9119,-1.748,-1.7238,-1.7959,-1.9854,-2.0074,-2.1028,-2.3187,-2.306,-2.302,-2.3313,-2.3033,-2.2941,-2.2928,-2.2928,-2.2928,-2.2928,-2.2928,-2.2928,-2.2928,-2.2928,-2.2928,-2.2928,-2.2928,-2.3033,-2.3313,-2.3327,-2.3487,-2.3741,-2.3754,-2.3754,-2.3741,-2.3741,-2.3367,-2.2928,0.0,0.0,0.0,0.0,0.0,0.0,0.0,0.0,0.0,0.0,0.0,0.0,0.0,0.0,0.0,0.0,-2.6151,-2.398,-2.2802,-2.0816,-1.9265,-1.838,-1.8401,-1.7957,-1.6887,-1.6146,-1.541,-1.4583,-1.4106,-1.3911,-1.4045,-1.4241,-1.433,-1.4348,-1.4535,-1.4611,-1.4513,-1.5304,-1.6841,-1.8755,-1.9138,-2.0434,-2.2217,-2.2899,-2.3097,-2.3291,0.0,-2.5107,-2.4034,-2.4561,-2.4736,-2.4701,-2.4591,-2.3917,-2.2759,-2.0157,-1.8952,-1.7982,-1.5556,-1.4782,-1.4416,-1.3548,-1.419,-1.5536,-1.7626,-1.9447,-2.1391,-2.397,-2.4341,-2.4123,-2.3766,-2.3254,-2.2692,-2.2116,-2.2055,-2.1994,-2.181,-2.2166,-2.2178,-2.1466,-2.1961,-2.2122,-2.1192,-1.9669,-1.9175,-2.0039,-2.0132,-2.0943,-2.2937,-2.2926,-2.2913,-2.302,-2.2726,-2.2565,-2.2565,-2.2565,-2.2565,-2.2565,-2.2766,-2.2928,-2.2928,-2.2928,-2.2928,-2.2928,-2.2928,-2.2926,-2.302,-2.302,-2.3073,-2.3193,-2.3394,-2.3474,-2.35,-2.3701,-2.3634,-2.3434,0.0,0.0,0.0,0.0,0.0,0.0,0.0,0.0,0.0,0.0,0.0,0.0,0.0,0.0,0.0,0.0,0.0,-2.753,-2.6765,-2.5098,-2.3751,-2.2787,-2.2735,-2.2265,-2.117,-2.0077,-1.925,-1.8655,-1.805,-1.7692,-1.7502,-1.7868,-1.7509,-1.6508,-1.6655,-1.6634,-1.6582,-1.7402,-1.89,-2.0668,-2.0991,-2.1924,-2.314,-2.3687,-2.4001,0.0,-2.6154,-2.6305,-2.5702,-2.5702,-2.5702,-2.5681,-2.5304,-2.3863,-2.1622,-1.8013,-1.7254,-1.6873,-1.3977,-1.3525,-1.3846,-1.3719,-1.49,-1.688,-1.9709,-2.1626,-2.3321,-2.5098,-2.5718,-2.5676,-2.463,-2.4334,-2.4024,-2.3574,-2.3447,-2.3487,-2.3594,-2.3834,-2.3834,-2.338,-2.33,-2.318,-2.2954,-2.148,-2.0749,-2.1089,-2.12,-2.171,-2.2873,-2.2928,-2.2928,-2.2928,-2.2579,-2.2418,-2.2418,-2.2418,-2.2472,-2.2579,-2.2766,-2.2928,-2.2928,-2.2928,-2.2928,-2.2928,-2.2928,-2.2928,-2.2941,-2.2979,-2.3033,-2.3073,-2.3474,-2.3634,-2.3661,-2.3861,-2.3861,-2.3728,0.0,0.0,0.0,0.0,0.0,0.0,0.0,0.0,0.0,0.0,0.0,0.0,0.0,0.0,0.0,0.0,0.0,0.0,-3.1129,-2.9305,-2.8319,-2.8604,-2.6347,-2.5149,-2.531,-2.3081,-2.2124,-2.2634,-2.2372,-2.1852,-2.1057,-2.161,-2.0396,-1.778,-1.778,-1.778,-1.7804,-1.9759,-2.1357,-2.2706,-2.3948,-2.4649,-2.4919,-2.4081,-2.4911,-2.6419,-2.6208,-2.7025,-2.8174,-2.832,-2.8286,-2.7964,-2.6391,-2.4102,-2.1144,-1.6479,-1.5463,-1.5232,-1.2435,-1.2004,-1.2871,-1.5058,-1.5957,-1.7335,-2.1334,-2.2553,-2.3375,-2.5058,-2.6449,-2.669,-2.4526,-2.4961,-2.5002,-2.3187,-2.2899,-2.302,-2.3327,-2.3113,-2.3033,-2.33,-2.2819,-2.2565,-2.2832,-2.2619,-2.2579,-2.2914,-2.314,-2.318,-2.2873,-2.2846,-2.2846,-2.2928,-2.2539,-2.2392,-2.2418,-2.2418,-2.2565,-2.2928,-2.2928,-2.2928,-2.2928,-2.2928,-2.2928,-2.2928,-2.2928,-2.2928,-2.2954,-2.318,-2.33,-2.3367,-2.3928,-2.4155,-2.4155,-2.4168,-2.4008,-2.3728,0.0,0.0,0.0,0.0,0.0,0.0,0.0,0.0,0.0,0.0,0.0,0.0,0.0,0.0,0.0,0.0,0.0,0.0,-3.3233,-3.2472,-3.1867,-3.1538,-3.1694,-3.1207,-2.9939,-2.8916,-2.8032,-2.7275,-2.7133,-2.6565,-2.5657,-2.6488,-2.6045,-2.4586,-2.4586,-2.4083,-2.3271,-2.3795,-2.3829,-2.3526,-2.3666,-2.3861,-2.4326,-2.5371,-2.5872,-2.6116,-2.6442,-2.6591,-2.6862,-2.8253,-2.8176,-2.6947,-2.4243,-2.2907,-2.168,-1.8309,-1.7554,-1.7401,-1.5756,-1.5694,-1.6287,-1.6983,-1.8729,-2.0616,-2.1701,-2.3384,-2.4776,-2.4807,-2.4801,-2.4402,-2.3453,-2.3229,-2.3229,-2.3209,-2.3394,-2.3647,-2.3941,-2.3915,-2.3728,-2.3367,-2.3193,-2.3033,-2.2873,-2.3006,-2.3033,-2.2941,-2.2939,-2.2939,-2.2928,-2.2645,-2.2632,-2.2928,-2.2217,-2.1977,-2.2418,-2.2418,-2.2565,-2.2928,-2.2928,-2.2928,-2.2928,-2.2928,-2.2928,-2.2928,-2.2928,-2.2928,-2.2941,-2.2953,-2.2979,-2.302,-2.3407,-2.3554,-2.3581,-2.3794,-2.3834,-2.3728,0.0,0.0,0.0,0.0,0.0,0.0,0.0,0.0,0.0,0.0,0.0,0.0,0.0,0.0,0.0,0.0,0.0,0.0,0.0,-3.4456,-3.4209,-3.3899,-3.4489,-3.4349,-3.333,-3.289,-3.2292,-3.1601,-3.1635,-3.1012,-2.9852,-3.0627,-2.9777,-2.7602,-2.7602,-2.7109,-2.6272,-2.5737,-2.5697,0.0,0.0,-2.5074,-2.5679,-2.6443,-2.6952,-2.7177,-2.6754,-2.6332,-2.6042,-2.6481,-2.6475,-2.5788,-2.3455,-2.2691,-2.2086,-1.9149,-1.8848,-1.9136,-1.7806,-1.8331,-1.9338,-1.9701,-2.1016,-2.2227,-2.2423,-2.3632,-2.4583,-2.3981,-2.4106,-2.3914,-2.27,-2.2816,-2.3026,-2.2795,-2.2979,-2.3367,-2.3941,-2.3781,-2.3594,-2.3527,-2.3287,-2.306,-2.2886,-2.302,-2.3046,-2.2873,-2.2993,-2.2953,-2.2686,-2.2512,-2.2432,-2.2472,-2.2004,-2.1964,-2.2418,-2.2418,-2.2565,-2.2928,-2.2928,-2.2928,-2.2928,-2.2928,-2.2928,-2.2928,-2.2928,-2.2928,-2.2928,-2.2928,-2.2928,-2.2968,-2.3207,-2.3407,-2.3541,-2.3714,-2.3848,-2.3915,0.0,0.0,0.0,0.0,0.0,0.0,0.0,0.0,0.0,0.0,0.0,0.0,0.0,0.0,0.0,0.0,0.0,0.0,0.0,0.0,-3.5519,-3.5519,-3.5519,-3.5554,-3.5651,-3.5267,-3.5091,-3.5154,-3.5337,-3.4717,-3.3331,-3.3911,-3.2239,-2.8791,-2.8791,-2.8466,-2.7788,-2.66,-2.6999,-2.8382,-2.6884,-2.6777,-2.7513,0.0,-2.7832,-2.861,-2.6864,-2.5885,-2.5173,-2.3813,-2.4146,-2.483,-2.3335,-2.2857,-2.2391,-1.9903,-2.017,-2.0929,-1.9913,-2.0902,-2.2416,-2.3038,-2.3311,-2.3569,-2.3859,-2.4176,-2.4147,-2.3283,-2.4056,-2.4203,-2.2252,-2.2899,-2.3292,-2.2241,-2.2285,-2.2779,-2.3647,-2.3287,-2.3113,-2.3647,-2.3207,-2.2928,-2.2928,-2.2928,-2.2928,-2.2928,-2.3073,-2.2979,-2.2445,-2.2352,-2.2191,-2.1937,-2.2004,-2.2164,-2.2418,-2.2458,-2.2605,-2.2928,-2.2928,-2.2996,-2.3256,-2.3256,-2.3393,-2.3597,-2.3324,-2.342,-2.3653,-2.3119,-2.3145,-2.3406,-2.3343,-2.3541,-2.3768,-2.3768,-2.3928,-2.4115,0.0,0.0,0.0,0.0,0.0,0.0,0.0,0.0,0.0,0.0,-3.5519,-3.5519,0.0,0.0,0.0,0.0,0.0,0.0,0.0,0.0,0.0,-3.5519,-3.5519,-3.5782,-3.6384,-3.5744,-3.5739,-3.6319,-3.629,-3.5689,-3.4602,-3.526,-3.4257,-3.199,-3.199,-3.0976,-2.9193,-2.8011,-2.7374,-2.6983,-2.6139,-2.6152,-2.668,-2.7356,0.0,0.0,-2.5677,-2.4176,-2.3052,-2.1698,-2.2892,-2.463,-2.3022,-2.2508,-2.2545,-2.2964,-2.3252,-2.3695,-2.4906,-2.566,-2.6248,-2.6679,-2.7187,-2.7518,-2.7264,-2.7403,-2.6967,-2.4642,-2.434,-2.3796,-2.1669,-2.1673,-2.2114,-2.2325,-2.2592,-2.302,-2.3674,-2.3474,-2.3287,-2.3394,-2.3086,-2.2928,-2.2928,-2.2928,-2.2928,-2.2928,-2.2686,-2.2525,-2.2432,-2.1964,-2.1748,-2.1695,-2.2098,-2.2365,-2.2418,-2.2659,-2.2806,-2.2928,-2.2928,-2.3665,-2.5046,-2.5046,-2.5853,-2.7172,-2.5719,-2.6072,-2.7534,-2.4523,-2.4331,-2.5783,-2.4284,-2.3728,-2.3768,-2.3768,-2.3808,-2.3834,0.0,0.0,0.0,0.0,0.0,0.0,0.0,-3.5519,-3.5519,-3.5519,-3.5789,-3.5878,-3.5549,-3.5519,0.0,0.0,0.0,0.0,0.0,0.0,0.0,-3.5519,-3.5519,-3.5846,-3.6569,-3.6596,-3.6596,-3.66,0.0,-3.6144,-3.4433,-3.4755,-3.384,-3.1973,-3.1973,-3.1304,-3.0065,-2.9155,-2.8733,-2.8589,-2.8207,-2.7869,-2.7742,-2.8462,0.0,0.0,-2.654,-2.5411,-2.4065,-2.2552,-2.3725,-2.5436,-2.3153,-2.2898,-2.3548,-2.4074,-2.5376,-2.6856,-2.7658,-2.896,-2.9915,-2.9189,-2.9384,-2.9399,-2.7864,-2.7621,-2.7214,-2.5565,-2.5203,-2.4906,-2.3852,-2.3214,-2.295,-2.3417,-2.2955,-2.2846,-2.3447,-2.3273,-2.314,-2.3313,-2.3046,-2.2928,-2.2928,-2.2928,-2.2806,-2.2645,-2.2498,-2.2418,-2.2418,-2.1871,-2.1681,-2.1777,-2.2044,-2.2338,-2.2645,-2.2792,-2.2928,-2.2928,-2.4092,-2.5037,-2.5907,-2.677,-2.7807,-2.8759,-2.7464,-2.7205,-2.7473,-2.5549,-2.4847,-2.5059,-2.4181,-2.4476,-2.5371,-2.434,-2.4723,-2.5568,0.0,0.0,0.0,0.0,0.0,0.0,0.0,-3.5519,-3.5519,-3.5519,-3.6088,-3.6237,-3.5579,-3.5639,-3.5669,0.0,0.0,0.0,0.0,0.0,0.0,0.0,0.0,0.0,-3.6569,0.0,0.0,-3.6816,-3.7498,0.0,0.0,0.0,0.0,0.0,-3.1331,-3.0917,-3.0403,-2.9711,-2.9825,0.0,0.0,-2.9505,-2.9149,0.0,0.0,0.0,0.0,-2.7075,-2.589,-2.427,-2.489,-2.6039,-2.3912,-2.4021,-2.5058,-2.5291,-2.7186,-2.927,-2.9654,-3.1252,-3.2483,-3.1206,-3.1129,-3.0765,-2.865,-2.8163,-2.7878,-2.6743,-2.653,-2.6409,-2.6045,-2.5122,-2.4432,-2.4317,-2.3426,-2.2835,-2.3046,-2.2926,-2.2886,-2.3193,-2.3006,-2.2928,-2.2928,-2.2928,-2.2766,-2.2525,-2.2458,-2.2365,-2.2231,-2.1737,-2.1617,-2.1977,-2.1991,-2.2271,-2.2928,-2.2928,-2.2928,-2.2928,-2.4713,-2.601,-2.6815,-2.8235,-2.9463,-3.0374,-2.9325,-2.8392,-2.753,-2.6534,-2.5699,-2.5045,-2.4701,-2.5898,-2.7499,-2.6042,-2.6359,-2.7288,0.0,0.0,0.0,0.0,0.0,0.0,0.0,-3.5519,-3.5519,-3.5519,-3.6088,-3.6237,-3.5579,-3.6028,-3.6148,0.0,0.0,0.0,0.0,0.0,0.0,0.0,0.0,0.0,0.0,0.0,0.0,-3.7498,-3.8243,0.0,0.0,0.0,0.0,0.0,0.0,-3.0722,-2.9827,-2.9238,0.0,0.0,0.0,0.0,0.0,0.0,0.0,0.0,0.0,-2.7633,-2.6938,-2.5551,-2.5283,-2.5463,-2.5778,-2.6359,-2.7244,-2.8226,-2.8923,-2.9792,-3.1462,-3.238,-3.2828,-3.3073,-3.3126,-3.2932,-3.1976,-3.1722,-3.1028,-2.8649,-2.817,-2.7751,-2.6288,-2.5879,-2.5413,-2.4227,-2.3936,-2.3544,-2.262,-2.2472,-2.2565,-2.2873,-2.2954,-2.2928,-2.2928,-2.2928,-2.2914,-2.2887,-2.2565,-2.2191,-2.1722,-2.1323,-2.1403,-2.1964,-2.1991,-2.2271,-2.2928,-2.2928,-2.2928,-2.2941,-2.3375,-2.5353,-2.8574,-2.897,-3.0793,-3.3585,-3.1826,-3.1037,-3.0729,-2.7636,-2.7548,-2.9207,-2.7712,-2.8336,-2.9977,-2.9764,-2.8813,-2.7505,0.0,0.0,0.0,0.0,0.0,0.0,-3.5519,-3.5519,-3.5639,-3.6058,-3.6656,-3.6956,-3.6686,-3.7225,-3.7045,0.0,0.0,0.0,0.0,0.0,0.0,0.0,0.0,0.0,0.0,0.0,-3.8837,-3.9629,-3.9502,0.0,0.0,0.0,0.0,0.0,0.0,-3.1105,-3.0783,-3.0836,0.0,0.0,0.0,0.0,0.0,0.0,0.0,0.0,0.0,0.0,-2.8804,-2.7084,-2.7267,-2.8159,-2.7463,-2.8257,-2.9374,-2.8979,-2.9923,-3.1313,-3.2277,-3.3223,-3.3984,-3.4141,-3.4004,-3.3594,-3.2734,-3.2148,-3.1422,-3.0135,-2.9903,-2.9707,-2.9039,-2.811,-2.7246,-2.6732,-2.5045,-2.368,-2.3429,-2.2538,-2.2071,-2.2539,-2.2592,-2.2672,-2.2914,-2.2928,-2.2792,-2.2605,-2.2164,-2.1804,-2.1628,-2.1603,-2.175,-2.1977,-2.3182,-2.3557,-2.2928,-2.3924,-2.3924,-2.2941,-2.4497,-2.5998,-2.7306,-2.975,-3.1555,-3.2805,-3.1567,-3.1439,-3.1751,-2.7962,-2.7912,-2.9971,-2.8223,-2.9345,-3.1878,-3.0734,-3.061,-3.0751,0.0,0.0,0.0,0.0,0.0,-3.5519,-3.5519,-3.5519,-3.5729,-3.6387,-3.7015,-3.7494,-3.7674,-3.8026,-3.7718,-3.6473,0.0,0.0,0.0,0.0,0.0,0.0,0.0,0.0,0.0,0.0,-3.9721,-4.0928,-4.0579,-4.0092,0.0,0.0,-3.4514,-3.3643,0.0,0.0,0.0,0.0,0.0,0.0,0.0,0.0,0.0,0.0,0.0,0.0,0.0,0.0,0.0,0.0,0.0,-3.0024,-2.8952,-2.9678,-3.0703,-2.9766,-3.0778,-3.2226,-3.2519,-3.3535,-3.4512,-3.4512,-3.4199,-3.3691,-3.2969,-3.2129,-3.1406,-3.0976,-3.0898,-3.0898,-3.0898,-2.9962,-2.8979,-2.8486,-2.6106,-2.4239,-2.4007,-2.2616,-2.1802,-2.2231,-2.2298,-2.2405,-2.2699,-2.2806,-2.2903,-2.2965,-2.2225,-2.1862,-2.2185,-2.2461,-2.2628,-2.2628,-2.4595,-2.5236,-2.4256,-2.5606,-2.5383,-2.3665,-2.5535,-2.6358,-2.6284,-2.9071,-3.09,-3.1848,-3.0662,-3.0959,-3.1926,-2.8615,-2.8697,-3.0865,-2.9654,-3.1192,-3.3882,-3.2508,-3.2525,-3.3031,0.0,0.0,0.0,0.0,0.0,0.0,-3.5519,-3.5519,-3.5729,-3.6387,-3.7015,-3.7644,-3.8302,-3.8062,-3.7957,-3.8351,0.0,0.0,0.0,0.0,0.0,0.0,0.0,0.0,0.0,0.0,-4.0044,-4.0798,-4.1407,-4.1713,-4.1682,-3.8092,-3.6025,-3.5289,0.0,0.0,0.0,0.0,0.0,0.0,0.0,0.0,-3.1517,0.0,0.0,0.0,0.0,0.0,0.0,0.0,0.0,0.0,0.0,-3.0508,-3.0898,-3.0898,-3.1504,-3.2229,-3.2229,-3.3105,-3.4082,-3.4082,-3.375,-3.332,-3.2891,-3.2129,-3.1406,-3.0976,-3.0898,-3.0898,-3.0898,-3.0898,-3.0333,-2.8664,-2.7013,-2.5504,-2.4197,-2.2616,-2.1722,-2.1951,-2.1991,-2.2111,-2.2392,-2.2686,-2.3349,-2.4266,-2.2883,-2.2489,-2.3494,-2.3825,-2.4004,-2.4004,-2.6024,-2.7208,-2.7441,-2.7916,-2.7238,-2.545,-2.5861,-2.6079,-2.6216,-2.6547,-2.8357,-3.1337,-2.9578,-2.9778,-3.1307,-2.9767,-3.0549,-3.2679,-3.3008,-3.4314,-3.5947,-3.5947,-3.4815,-3.317,0.0,0.0,0.0,0.0,0.0,0.0,0.0,-3.5519,-3.5729,-3.6387,-3.7015,-3.7674,-3.8332,-3.8703,-3.8848,-3.8614,0.0,0.0,0.0,0.0,0.0,0.0,0.0,0.0,0.0,-3.914,-4.0507,-4.219,-4.1868,-4.2209,-4.3077,-3.8919,-3.6844,-3.6503,-3.3794,-3.2742,0.0,0.0,0.0,0.0,0.0,-3.2298,-3.1037,0.0,0.0,0.0,0.0,0.0,0.0,0.0,0.0,0.0,0.0,0.0,0.0,-3.0898,-3.1289,-3.1797,-3.209,-3.2676,-3.3262,-3.3555,-3.3086,-3.2539,-3.2402,-3.1699,-3.1055,-3.0918,-3.0898,-3.0898,-3.0898,-3.0898,-3.0704,-3.0216,-2.7811,-2.5835,-2.5413,-2.316,-2.1722,-2.1951,-2.2338,-2.2619,-2.2712,-2.2806,-2.289,-2.2794,-2.2306,-2.1984,-2.188,-2.3054,-2.3828,-2.3989,-2.7377,-2.8535,-2.7064,-2.9017,-2.8359,-2.5122,-2.5674,-2.5291,-2.4023,-2.5476,-2.7327,-2.9204,-2.861,-3.0421,-3.3425,-3.041,-3.1456,-3.4831,-3.3688,-3.4383,-3.6016,-3.6016,-3.5587,-3.5089,0.0,0.0,0.0,0.0,0.0,0.0,0.0,-3.5519,-3.5729,-3.6387,-3.7015,-3.7764,-3.8691,-3.8429,-3.8417,-3.9014,0.0,0.0,0.0,0.0,0.0,0.0,0.0,0.0,-3.8751,-3.9282,-4.0659,-4.2807,-4.2007,-4.2345,-4.3727,-3.9744,-3.7744,-3.74,-3.4813,-3.3897,0.0,0.0,0.0,0.0,-3.2316,-3.1675,-3.1037,0.0,0.0,0.0,0.0,0.0,0.0,0.0,0.0,0.0,0.0,0.0,0.0,0.0,-3.1074,-3.1367,-3.1797,-3.2344,-3.2851,-3.3125,-3.2676,-3.2229,-3.2229,-3.1504,-3.0898,-3.0898,-3.0898,-3.0898,-3.0898,-3.0898,-3.0898,-3.0898,-2.8128,-2.5984,-2.5984,-2.3363,-2.1496,-2.179,-2.2245,-2.2579,-2.2686,-2.2792,-2.2659,-2.2191,-2.2044,-2.1777,-2.1296,-2.2774,-2.3664,-2.3873,-2.7724,-2.9386,-2.8641,-3.0409,-2.9768,-2.6649,-2.6506,-2.5479,-2.3702,-2.4345,-2.5928,-2.8163,-2.7503,-2.9952,0.0,-3.1439,-3.2426,-3.5665,-3.4671,-3.4952,-3.6016,-3.6016,-3.6016,-3.6016,0.0,0.0,0.0,0.0,0.0,0.0,0.0,-3.5519,-3.5729,-3.6327,-3.6956,-3.7823,-3.914,-3.7472,-3.713,-3.9293,0.0,0.0,0.0,0.0,0.0,0.0,0.0,0.0,-3.9373,-3.9433,-4.054,-4.27,-4.1873,-4.2273,-4.371,-4.0498,-3.8642,-3.7992,-3.5701,-3.466,0.0,0.0,0.0,0.0,-3.0995,-3.0726,0.0,0.0,0.0,0.0,0.0,0.0,0.0,0.0,0.0,0.0,0.0,0.0,0.0,0.0,0.0,0.0,0.0,-3.2051,-3.2656,-3.2656,-3.2363,-3.2131,-3.2131,-3.1465,0.0,-3.0898,-3.0898,-3.0898,-3.0898,-3.0898,-3.084,-3.0762,-2.8068,-2.5984,-2.5863,-2.3139,-2.1256,-2.1614,-2.1844,-2.2111,-2.2365,-2.2659,-2.2699,-2.2378,-2.2111,-2.183,-2.1601,-2.2749,-2.345,-2.3574,-2.7007,-2.9651,-3.1286,-3.1873,-3.1256,-2.9421,-2.7957,-2.6504,-2.4994,-2.3434,-2.4775,-2.8262,-2.6542,-2.899,-3.4037,-3.2766,-3.3546,-3.543,-3.5859,-3.6016,-3.6016,-3.6016,-3.6016,-3.6016,0.0,0.0,0.0,0.0,0.0,0.0,0.0,0.0,0.0,0.0,-3.6297,-3.7015,-3.7793,-3.7172,-3.7109,0.0,0.0,0.0,0.0,0.0,0.0,0.0,0.0,0.0,-3.9373,-3.9918,-4.0658,-4.173,-4.2016,-4.2617,-4.3374,-4.0386,-3.8906,-3.864,-3.5926,-3.4379,0.0,0.0,0.0,0.0,-3.0453,-2.9793,0.0,0.0,0.0,0.0,-2.957,-2.9922,0.0,0.0,0.0,0.0,0.0,0.0,0.0,0.0,-3.0898,-3.0918,-3.1016,0.0,-3.1348,-3.1348,-3.1269,-3.1191,0.0,-3.1035,-3.0898,-3.0898,-3.0898,-3.0898,-3.0898,-3.0898,-3.045,-2.9216,-2.7331,-2.5558,-2.4363,-2.2616,-2.1563,-2.1844,-2.2138,-2.2258,-2.2098,-2.2352,-2.2311,-2.179,-2.1762,-2.1523,-2.1229,-2.1515,-2.2278,-2.3574,-2.5639,-2.7513,-2.9108,-3.1156,-3.1104,-2.9026,-2.896,-2.8072,-2.6392,-2.6007,-2.7276,-2.9683,-2.9299,-3.0992,-3.4101,-3.412,-3.463,-3.543,-3.5859,-3.6016,-3.6016,-3.6016,-3.6016,-3.6016,0.0,0.0,0.0,0.0,0.0,0.0,0.0,0.0,0.0,0.0,0.0,0.0,0.0,0.0,0.0,0.0,0.0,0.0,0.0,0.0,0.0,0.0,0.0,-3.8504,-3.9098,-3.9668,-4.0576,-4.1871,-4.1931,-4.2402,-4.325,-4.0659,-3.9431,-3.9274,-3.6009,-3.3959,0.0,0.0,0.0,-2.9639,-2.9436,0.0,0.0,0.0,0.0,0.0,-2.9121,-2.9551,0.0,-3.043,-3.0703,-3.0898,0.0,0.0,0.0,0.0,-3.0898,-3.0898,-3.0898,-3.1035,-3.1133,-3.0937,-3.1035,-3.1133,-3.0937,-3.0898,-3.0898,-3.0898,-3.0898,-3.0645,-2.9715,-2.9653,-2.9161,-2.7386,-2.5885,-2.4348,-2.2716,-2.1691,-2.1373,-2.1802,-2.1804,-2.1857,-2.1977,-2.2124,-2.2084,-2.1842,-2.1695,-2.1547,-2.1323,-2.1189,-2.1538,-2.2404,-2.4039,-2.6045,-2.8367,-3.0536,-3.1028,-2.9808,-2.9271,-2.8597,-2.7781,-2.7014,-2.7843,-2.9861,-3.0122,-3.1481,-3.3535,-3.416,-3.4551,-3.4844,-3.5488,-3.5605,-3.5449,-3.5664,-3.5742,-3.5742,0.0,0.0,0.0,0.0,0.0,0.0,0.0,0.0,0.0,0.0,0.0,0.0,0.0,0.0,0.0,0.0,0.0,0.0,0.0,0.0,0.0,0.0,-3.799,-3.8714,-3.8909,-3.955,-4.0696,-4.241,-4.1893,-4.2252,-4.325,-4.0986,-3.9738,-3.9183,-3.5763,-3.3472,0.0,0.0,-2.9525,-2.8789,-2.8437,0.0,0.0,0.0,0.0,0.0,0.0,0.0,0.0,-2.9961,-3.041,-3.0781,-3.0781,0.0,0.0,0.0,0.0,0.0,-3.0976,-3.1348,-3.1582,-3.1035,-3.1152,-3.1309,-3.0879,-3.0742,-3.0626,-3.0393,-3.0335,-2.9813,-2.7944,-2.7807,-2.7397,-2.5495,-2.4101,-2.2731,-2.1353,-2.0922,-2.0922,-2.1494,-2.1296,-2.1349,-2.1804,-2.1897,-2.1897,-2.1857,-2.1617,-2.1547,-2.1547,-2.1243,-2.1109,-2.1109,-2.2716,-2.5024,-2.7991,-2.9707,-3.0645,-3.0898,-2.9471,-2.8906,-2.9174,-2.7739,-2.8105,-2.9927,-3.0354,-3.1408,-3.2949,-3.375,-3.4082,-3.416,-3.4961,-3.5039,-3.4746,-3.5137,-3.5332,-3.541,0.0,0.0,0.0,0.0,0.0,0.0,0.0,0.0,0.0,0.0,0.0,0.0,0.0,0.0,0.0,0.0,0.0,0.0,0.0,0.0,0.0,-3.5734,-3.7342,-3.8608,-3.9452,-4.1085,-4.2081,-4.241,-4.2821,-4.311,-4.325,-4.0986,-3.8827,-3.6803,-3.4442,-3.2989,-3.2129,-2.967,-2.8534,-2.8379,-2.832,0.0,0.0,0.0,0.0,0.0,0.0,0.0,0.0,-2.9512,-2.9961,-3.0293,-3.0293,0.0,0.0,0.0,0.0,0.0,-3.1328,-3.1992,-3.2324,-3.1172,-3.0937,-3.0859,-3.041,-3.0019,-2.9427,-2.8122,-2.7836,-2.7449,-2.6177,-2.6025,-2.5561,-2.4117,-2.2548,-2.1506,-2.1507,-2.1229,-2.1082,-2.1162,-2.1363,-2.143,-2.1256,-2.147,-2.151,-2.1269,-2.1203,-2.1176,-2.1176,-2.1136,-2.1109,-2.1109,-2.2716,-2.4471,-2.6349,-2.7991,-2.953,-3.0898,-3.0645,-3.0547,-3.0566,-3.0311,-3.0792,-3.1783,-3.1841,-3.2409,-3.3359,-3.3867,-3.4082,-3.4121,-3.4609,-3.4766,-3.4707,-3.4785,-3.5059,-3.5449,0.0,0.0,0.0,0.0,0.0,0.0,0.0,0.0,0.0,0.0,0.0,0.0,0.0,0.0,0.0,0.0,0.0,0.0,0.0,0.0,-3.6304,-3.6006,-3.734,-3.8464,-3.9268,-4.0336,-4.1696,-4.3419,-4.3319,-4.3469,-4.3758,-4.1128,-3.8675,-3.6335,-3.4623,-3.3284,-3.218,-3.0224,-2.8953,-2.8301,0.0,0.0,0.0,0.0,0.0,0.0,0.0,0.0,0.0,0.0,-2.9648,-3.0195,-3.0195,0.0,0.0,0.0,0.0,0.0,-3.1133,-3.1641,-3.1714,-2.9974,-3.0773,-3.168,-3.0781,-2.9738,-2.8758,-2.806,-2.7223,-2.6126,-2.4559,-2.4513,-2.427,-2.2757,-2.1847,-2.1336,-2.1309,-2.1056,-2.0935,-2.1096,-2.1096,-2.1082,-2.1109,-2.1229,-2.1256,-2.1122,-2.1109,-2.1109,-2.1109,-2.1109,-2.1109,-2.1109,-2.1853,-2.3435,-2.5984,-2.6712,-2.8367,-3.0898,-3.0898,-3.0898,-3.0898,-3.0898,-3.123,-3.1836,-3.207,-3.2519,-3.3105,-3.3535,-3.373,-3.3769,-3.4199,-3.4219,-3.4062,-3.4531,-3.5,-3.5449,0.0,0.0,0.0,0.0,0.0,0.0,0.0,0.0,0.0,0.0,0.0,0.0,0.0,0.0,0.0,0.0,0.0,0.0,0.0,-3.5629,-3.6279,-3.6405,-3.7243,-3.8031,-3.8781,-3.9643,-4.132,-4.392,-4.3647,-4.3586,-4.3642,-4.1351,-3.8996,-3.6558,-3.5211,-3.3717,-3.223,-3.0876,-2.9513,-2.8301,0.0,0.0,0.0,0.0,0.0,0.0,0.0,0.0,0.0,0.0,0.0,0.0,0.0,0.0,0.0,-3.0586,-3.0644,-3.0762,-3.0859,-3.1191,-3.103,-2.8952,-3.0088,-3.1328,-3.0033,-2.8523,-2.7399,-2.7158,-2.6087,-2.4661,-2.2867,-2.2999,-2.2949,-2.17,-2.1443,-2.139,-2.1229,-2.0962,-2.0855,-2.1082,-2.0909,-2.0869,-2.1082,-2.1109,-2.1109,-2.1109,-2.1109,-2.1109,-2.1109,-2.1109,-2.1109,-2.1109,-2.1109,-2.2702,-2.5984,-2.5984,-2.7632,-3.0898,-3.0898,-3.0898,-3.0898,-3.0898,-3.1113,-3.1543,-3.1973,-3.2402,-3.2832,-3.3242,-3.3418,-3.3457,-3.3789,-3.3769,-3.3672,-3.4414,-3.5,-3.543,0.0,0.0,0.0,0.0,0.0,0.0,0.0,0.0,0.0,0.0,0.0,0.0,0.0,0.0,0.0,0.0,0.0,0.0,0.0,-3.5232,-3.583,-3.638,-3.6499,-3.7057,-3.8145,-4.0307,-4.1859,-4.2707,-4.3737,-4.342,-4.1897,-4.1688,-3.9987,-3.7063,-3.572,-3.407,-3.223,-3.0876,-2.9513,-2.8301,-2.8301,0.0,0.0,0.0,0.0,0.0,0.0,0.0,0.0,0.0,0.0,0.0,0.0,0.0,-2.9668,-2.9668,-2.9941,-3.0351,-3.0781,-3.1191,-3.103,-2.9071,-2.8446,-2.7948,-2.648,-2.5326,-2.4333,-2.3459,-2.2992,-2.2392,-2.1108,-2.111,-2.1262,-2.1136,-2.1149,-2.1229,-2.1547,-2.1269,-2.1082,-2.1109,-2.1096,-2.1082,-2.1109,-2.1109,-2.1109,-2.1109,-2.1109,-2.1109,-2.1109,-2.1109,-2.1109,-2.1109,-2.1109,-2.2702,-2.5984,-2.5984,-2.7632,-3.0898,-3.0898,-3.0898,-3.0898,-3.0898,-3.1113,-3.1543,-3.1973,-3.2402,-3.2832,-3.3242,-3.3418,-3.3418,-3.3457,-3.3691,-3.4082,-3.4531,-3.5,-3.5391,0.0,0.0,0.0,0.0,0.0,0.0,0.0,0.0,0.0,0.0,0.0,0.0,0.0,0.0,0.0,0.0,0.0,0.0,0.0,-3.5006,-3.5583,-3.5855,-3.5855,-3.6016,-3.6453,-3.8764,-4.0773,-4.2536,-4.2939,-4.2272,-4.0575,-4.0153,-3.8588,-3.6135,-3.6007,-3.4848,-3.2989,-3.1945,-3.0773,-2.946,-2.8654,-2.8301,0.0,0.0,0.0,0.0,0.0,0.0,0.0,0.0,-2.8711,-2.8945,-2.9121,-2.9355,-2.9626,-2.9626,-2.903,-2.8443,-2.8592,-2.821,-2.7327,-2.5423,-2.4811,-2.487,-2.5512,-2.4567,-2.3486,-2.3351,-2.2443,-2.1486,-2.1047,-2.1189,-2.1323,-2.1136,-2.1269,-2.1363,-2.1283,-2.1176,-2.1475,-2.2529,-2.1727,-2.1769,-2.3566,-2.283,-2.2646,-2.3658,-2.3719,-2.381,-2.4147,-2.4163,-2.4163,-2.4163,-2.3887,-2.4907,-2.7494,-2.7267,-2.8369,-3.0898,-3.0898,-3.0898,-3.0898,-3.0898,-3.1113,-3.1543,-3.1973,-3.2402,-3.2832,-3.3242,-3.3418,-3.3418,-3.3418,-3.3848,-3.4473,-3.4648,-3.5156,-3.5742,0.0,0.0,0.0,0.0,0.0,0.0,0.0,0.0,0.0,0.0,0.0,0.0,0.0,0.0,0.0,0.0,0.0,0.0,-3.3891,-3.46,-3.5132,-3.5483,-3.5508,-3.5658,-3.6009,-3.7565,-3.9374,-4.1412,-4.2359,-4.1909,-4.0161,-3.9506,-3.807,-3.6081,-3.6282,-3.5299,-3.3457,-3.2518,-3.1214,-2.9754,-2.8588,-2.8086,0.0,0.0,0.0,0.0,0.0,0.0,0.0,0.0,-2.8594,-2.875,-2.8887,-2.8694,-2.8477,-2.8477,-2.7564,-2.6531,-2.6531,-2.5953,-2.4913,-2.3108,-2.2497,-2.2598,-2.357,-2.2962,-2.2349,-2.2885,-2.1902,-2.0975,-2.0975,-2.1136,-2.1203,-2.1002,-2.1216,-2.1336,-2.1136,-2.1538,-2.2278,-2.345,-2.3014,-2.3363,-2.5115,-2.4319,-2.4032,-2.5038,-2.5081,-2.5255,-2.5561,-2.5578,-2.5578,-2.5578,-2.5271,-2.6092,-2.8169,-2.7917,-2.8827,-3.0898,-3.0898,-3.0898,-3.0898,-3.0898,-3.1055,-3.1348,-3.1777,-3.2207,-3.2637,-3.3047,-3.3301,-3.3418,-3.3418,-3.3867,-3.4492,-3.4492,-3.4961,-3.5566,0.0,0.0,0.0,0.0,0.0,0.0,0.0,0.0,0.0,0.0,0.0,0.0,0.0,0.0,0.0,0.0,0.0,0.0,-3.3909,-3.3897,-3.4399,-3.5433,-3.5483,-3.6009,-3.7136,-3.7186,-3.7807,-3.9071,-4.2031,-4.2508,-4.0742,-4.0161,-3.8917,-3.7136,-3.6609,-3.5299,-3.341,-3.2202,-3.0586,-2.8786,-2.803,-2.7728,-2.7767,0.0,0.0,0.0,0.0,0.0,0.0,0.0,-2.8579,-2.8306,-2.8735,-2.7597,-2.61,-2.6082,-2.5483,-2.4895,-2.4895,-2.4837,-2.4486,-2.3047,-2.2137,-2.129,-2.0074,-2.0027,-2.0481,-2.1427,-2.1145,-2.0681,-2.0681,-2.0681,-2.0681,-2.0681,-2.0922,-2.1109,-2.1109,-2.2529,-2.3574,-2.3636,-2.5008,-2.5819,-2.5397,-2.5304,-2.5156,-2.4753,-2.472,-2.472,-2.4736,-2.4736,-2.4736,-2.4736,-2.472,-2.572,-2.7773,-2.7831,-2.8827,-3.0898,-3.0898,-3.0898,-3.0898,-3.0898,-3.0898,-3.0918,-3.1328,-3.1758,-3.2187,-3.2617,-3.3027,-3.3418,-3.3418,-3.3691,-3.4082,-3.4082,-3.4336,-3.4707,0.0,0.0,0.0,0.0,0.0,0.0,0.0,0.0,0.0,0.0,0.0,0.0,0.0,0.0,0.0,0.0,0.0,0.0,-3.3312,-3.3696,-3.4223,-3.4881,-3.4931,-3.5257,-3.5984,-3.6408,-3.72,-3.8299,-3.9661,-3.961,-3.827,-3.8092,-3.7292,-3.5984,-3.4985,-3.4452,-3.4195,-3.206,-3.1298,-3.1376,-2.9648,-2.8942,-2.8911,0.0,0.0,0.0,0.0,0.0,0.0,0.0,0.0,0.0,-2.529,-2.5095,-2.4772,-2.4573,-2.3699,-2.2794,-2.2621,-2.1827,-2.093,-2.0478,-2.0389,-2.0323,-2.0087,-2.0013,-2.012,-2.0802,-2.0962,-2.0922,-2.0708,-2.0842,-2.0909,-2.0708,-2.0922,-2.1109,-2.1109,-2.1538,-2.2553,-2.4553,-2.4235,-2.4898,-2.7564,-2.6832,-2.6551,-2.7567,-2.7679,-2.7791,-2.8145,-2.8163,-2.8163,-2.8163,-2.7828,-2.8239,-2.9489,-2.9203,-2.9661,-3.0898,-3.0898,-3.0898,-3.0898,-3.0898,-3.0898,-3.0918,-3.1328,-3.1582,-3.1738,-3.2168,-3.2598,-3.2988,-3.2988,-3.3418,-3.4082,-3.4082,-3.4336,-3.4668,0.0,0.0,0.0,0.0,0.0,0.0,0.0,0.0,0.0,0.0,-3.8602,-3.8099,0.0,0.0,0.0,0.0,0.0,0.0,0.0,-3.352,-3.3922,-3.47,-3.468,-3.5031,-3.5855,-3.6634,-3.7136,-3.7362,-3.814,-3.8065,-3.7186,-3.7186,-3.6709,-3.5834,-3.508,-3.4755,-3.459,-3.2559,-3.1833,-3.1968,-3.0325,-2.9416,-2.8911,0.0,0.0,0.0,0.0,0.0,0.0,0.0,0.0,0.0,-2.3822,-2.3521,-2.3228,-2.3092,-2.2145,-2.1115,-2.1246,-1.9996,-1.8699,-1.8873,-1.8396,-1.7889,-1.801,-1.9175,-2.0214,-2.0454,-2.0548,-2.0575,-2.0508,-2.0548,-2.0575,-2.0508,-2.0641,-2.0802,-2.0922,-2.1485,-2.2505,-2.4215,-2.4679,-2.5704,-2.7808,-2.7678,-2.7787,-2.8618,-2.8672,-2.8789,-2.9043,-2.9062,-2.9062,-2.9062,-2.8965,-2.916,-2.9687,-2.9609,-2.9922,-3.0605,-3.0605,-3.0703,-3.0898,-3.0898,-3.0898,-3.0918,-3.1328,-3.1523,-3.1562,-3.1992,-3.2324,-3.2559,-3.2734,-3.3105,-3.3594,-3.375,-3.3965,-3.418,0.0,0.0,0.0,0.0,0.0,0.0,0.0,0.0,0.0,0.0,-3.747,-3.681,0.0,0.0,0.0,0.0,0.0,0.0,0.0,-3.3345,-3.3571,-3.4675,-3.4715,-3.5244,-3.6341,-3.7144,-3.712,-3.6291,-3.7389,-3.7638,-3.7111,-3.7111,-3.6883,-3.6405,-3.621,-3.5562,-3.461,-3.3276,-3.2194,-3.1315,-3.049,-2.9522,-2.8534,-2.8712,0.0,0.0,0.0,0.0,0.0,0.0,0.0,0.0,-2.3375,-2.2507,-2.1462,-2.1713,-2.0852,-1.992,-2.0257,-1.9,-1.7553,-1.7769,-1.6409,-1.501,-1.4871,-1.7737,-2.0323,-1.9998,-1.988,-1.992,-2.0187,-2.0013,-1.992,-2.0187,-2.0167,-2.0334,-2.0641,-2.1907,-2.2914,-2.3036,-2.567,-2.7262,-2.6677,-2.7952,-2.8711,-2.832,-2.8301,-2.8301,-2.8301,-2.8301,-2.832,-2.834,-2.8691,-2.8906,-2.8984,-2.9336,-2.9726,-3.0137,-3.0176,-3.041,-3.082,-3.0879,-3.0898,-3.0918,-3.1289,-3.1465,-3.1484,-3.1894,-3.207,-3.2148,-3.2578,-3.2754,-3.2851,-3.3262,-3.3418,-3.3476,0.0,0.0,0.0,0.0,0.0,0.0,0.0,0.0,0.0,0.0,0.0,0.0,0.0,0.0,0.0,0.0,0.0,0.0,0.0,-3.3144,-3.3571,-3.4675,-3.4821,-3.5254,-3.5927,-3.4727,-3.4466,-3.5278,-3.6677,-3.7086,-3.6581,-3.6581,-3.6531,-3.6332,-3.4475,-3.4032,-3.456,-3.2478,-3.1995,-3.2618,-3.1793,-3.1343,-3.0905,-2.9031,-2.8382,0.0,0.0,0.0,0.0,0.0,0.0,0.0,-2.0244,-2.025,-2.0182,-2.0017,-1.9906,-1.9529,-1.8287,-1.7457,-1.6766,-1.5907,-1.5473,-1.5236,-1.5185,-1.6719,-1.8106,-1.7998,-1.9159,-2.016,-2.0167,-2.0127,-2.016,-2.0167,-2.0167,-2.0334,-2.0641,-2.0774,-2.1278,-2.2467,-2.4023,-2.5343,-2.6171,-2.759,-2.8398,-2.8301,-2.8301,-2.8301,-2.8301,-2.8301,-2.8437,-2.8769,-2.8555,-2.875,-2.9414,-2.918,-2.9277,-2.9707,-3.0039,-3.0254,-3.0351,-3.0723,-3.0898,-3.0898,-3.0996,-3.1035,-3.1035,-3.1133,-3.1367,-3.1699,-3.2129,-3.25,-3.2851,-3.3262,-3.3418,-3.3437,0.0,0.0,0.0,0.0,0.0,0.0,0.0,0.0,0.0,0.0,0.0,0.0,0.0,0.0,0.0,0.0,0.0,0.0,0.0,0.0,-3.3571,-3.4675,-3.4727,-3.4859,-3.512,-3.3782,-3.3288,-3.3696,-3.4495,-3.5357,-3.6405,-3.6405,-3.6279,-3.5909,-3.4681,-3.4209,-3.4254,-3.301,-3.2704,-3.305,-3.2646,-3.1954,-3.1024,-2.9738,-2.8516,-2.7431,-2.6784,0.0,0.0,0.0,0.0,0.0,0.0,0.0,-1.9372,-1.9372,-1.9479,-1.9286,-1.7901,-1.6767,-1.5451,-1.3444,-1.2961,-1.3003,-1.2918,-1.4592,-1.6161,-1.6052,-1.8066,-1.9813,-1.9813,-1.9813,-1.9813,-1.9813,-1.9813,-1.992,-2.0214,-2.012,-2.0327,-2.1075,-2.3057,-2.4501,-2.4965,-2.7006,-2.8301,-2.8301,-2.8301,-2.8301,-2.8301,-2.8301,-2.8398,-2.8613,-2.8594,-2.8711,-2.8965,-2.8926,-2.9023,-2.9258,-2.9473,-2.9805,-3.0215,-3.0684,-3.0898,-3.0898,-3.0898,-3.0898,-3.0898,-3.0898,-3.1016,-3.1269,-3.1699,-3.1992,-3.2266,-3.2891,-3.3125,-3.3144,0.0,0.0,0.0,0.0,0.0,0.0,0.0,0.0,0.0,0.0,0.0,0.0,0.0,0.0,0.0,0.0,0.0,0.0,0.0,0.0,0.0,-3.4483,-3.4198,-3.4014,-3.393,-3.2987,-3.2325,-3.2059,-3.1971,-3.3231,-3.5715,-3.5953,-3.5727,-3.5158,-3.5059,-3.4599,-3.3897,-3.3551,-3.3296,-3.3111,-3.3111,-3.2136,-3.0697,-3.0481,-2.8849,-2.6683,-2.6613,-2.5287,-2.3619,-2.3817,0.0,0.0,0.0,0.0,-1.9174,-1.9314,-1.9292,-1.905,-1.766,-1.5782,-1.3555,-1.125,-1.0548,-1.0456,-1.0679,-1.2845,-1.4811,-1.4997,-1.7337,-1.943,-1.943,-1.943,-1.943,-1.943,-1.943,-1.9466,-1.976,-1.976,-1.9746,-1.9786,-2.244,-2.4095,-2.3855,-2.6554,-2.8301,-2.8301,-2.8301,-2.8301,-2.8301,-2.8301,-2.832,-2.8398,-2.8672,-2.8672,-2.8398,-2.8672,-2.8809,-2.8809,-2.8965,-2.9434,-3.0215,-3.0684,-3.0898,-3.0898,-3.0898,-3.0898,-3.0898,-3.0898,-3.0898,-3.0937,-3.1348,-3.1523,-3.1621,-3.248,-3.2793,-3.2851,0.0,0.0,0.0,0.0,0.0,0.0,0.0,0.0,0.0,0.0,-3.5742,-3.5018,0.0,0.0,0.0,0.0,0.0,0.0,0.0,0.0,0.0,-3.3671,-3.2906,-3.2398,-3.2126,-3.0404,-3.0038,-3.118,-3.0778,-3.1367,-3.2883,-3.4117,-3.4342,-3.3744,-3.3407,-3.35,-3.3828,-3.2224,-3.2157,-3.3111,-3.3111,-3.2632,-3.1854,-3.0783,-2.9848,-2.8846,-2.6883,-2.5234,-2.3907,-2.3232,-2.2245,0.0,0.0,0.0,-2.0091,-1.9217,-1.8985,-1.8409,-1.5747,-1.2891,-1.0642,-1.0575,-1.031,-1.0447,-1.2051,-1.3539,-1.4986,-1.6385,-1.811,-1.943,-1.943,-1.943,-1.943,-1.943,-1.943,-1.9466,-1.976,-1.9586,-1.9519,-1.9773,-2.2227,-2.3815,-2.3822,-2.6554,-2.8301,-2.8301,-2.8301,-2.8301,-2.8301,-2.8301,-2.8457,-2.8828,-2.8535,-2.8516,-2.8828,-2.8535,-2.8379,-2.8379,-2.9121,-2.9726,-3.0215,-3.0684,-3.0898,-3.0898,-3.0898,-3.0898,-3.0898,-3.0898,-3.0898,-3.0937,-3.1348,-3.1523,-3.1621,-3.248,-3.2793,-3.2851,0.0,0.0,0.0,0.0,0.0,0.0,0.0,0.0,0.0,0.0,0.0,-3.4197,0.0,0.0,0.0,-3.0959,0.0,0.0,0.0,0.0,0.0,-3.272,-3.1611,-3.0745,-3.0242,-2.8645,-2.8147,-2.8773,-2.8813,-2.9146,-2.9745,-3.136,-3.2582,-3.3458,-3.2553,-3.2768,-3.374,-3.1474,-3.1529,-3.3025,-3.2326,-3.1896,-3.1696,-3.1132,-3.0053,-2.8657,-2.7892,-2.6845,-2.5641,-2.4888,-2.3909,-2.2804,-2.1912,0.0,0.0,0.0,-1.9663,-1.9013,-1.5326,-1.2722,-1.1003,-1.0377,-1.0958,-1.1807,-1.2632,-1.4674,-1.6567,-1.7089,-1.8513,-1.9559,-1.9457,-1.943,-1.943,-1.943,-1.943,-1.947,-1.9546,-1.9452,-1.9747,-2.0714,-2.257,-2.4156,-2.4986,-2.706,-2.8301,-2.8301,-2.8301,-2.8301,-2.8301,-2.8301,-2.8379,-2.8555,-2.8398,-2.8379,-2.8574,-2.8379,-2.8301,-2.8301,-2.916,-2.9668,-2.9863,-3.0566,-3.0898,-3.0898,-3.0898,-3.0898,-3.0898,-3.0898,-3.0898,-3.0918,-3.1094,-3.1309,-3.1601,-3.2207,-3.2598,-3.2851,0.0,0.0,0.0,0.0,0.0,0.0,0.0,0.0,0.0,0.0,0.0,0.0,0.0,0.0,0.0,0.0,-3.0608,0.0,0.0,0.0,0.0,-3.1362,-3.0208,-2.9214,-2.8495,-2.75,-2.7012,-2.7012,-2.7344,-2.7559,-2.7728,-2.9051,-3.0729,-3.263,-3.1511,-3.1796,-3.2929,-3.0644,-3.0859,-3.2723,-3.1749,-3.1374,-3.1386,-3.1386,-3.0202,-2.8538,-2.8576,-2.8104,-2.7234,-2.6455,-2.5434,-2.4271,-2.3364,-2.2452,0.0,0.0,0.0,-1.8931,-1.5433,-1.349,-1.2243,-1.1332,-1.2221,-1.3465,-1.3992,-1.6019,-1.7839,-1.8082,-1.8992,-1.9733,-1.9519,-1.947,-1.943,-1.943,-1.943,-1.943,-1.943,-1.943,-1.9809,-2.0916,-2.2645,-2.4267,-2.5371,-2.7222,-2.8301,-2.8301,-2.8301,-2.8301,-2.8301,-2.8301,-2.8301,-2.8301,-2.8301,-2.8301,-2.8301,-2.8301,-2.8301,-2.8301,-2.9043,-2.9453,-2.9646,-3.0371,-3.0781,-3.0898,-3.0898,-3.0898,-3.0898,-3.0898,-3.0898,-3.0898,-3.0898,-3.1152,-3.1562,-3.2012,-3.2441,-3.2851,0.0,0.0,0.0,0.0,0.0,0.0,0.0,0.0,0.0,0.0,0.0,0.0,-3.382,-3.1935,-3.0608,-3.0608,-3.0608,-3.0859,-3.1386,-3.0858,0.0,-2.935,-2.8666,0.0,-2.7094,-2.7012,-2.7012,-2.7012,-2.7031,-2.7266,-2.7728,-2.778,-2.8793,-3.0472,-2.9977,-3.0212,-3.0782,-2.9422,-3.0061,-3.1984,-3.1869,-3.1671,-3.1386,-3.1386,-3.0693,-2.9585,-2.8514,-2.8091,-2.7891,-2.6816,-2.5978,-2.5083,-2.3781,-2.2926,-2.2161,0.0,0.0,0.0,-1.5939,-1.4753,-1.3844,-1.4084,-1.4321,-1.4991,-1.6886,-1.7367,-1.7925,-1.9724,-1.9927,-1.98,-1.9786,-1.9546,-1.943,-1.943,-1.943,-1.943,-1.943,-1.943,-1.943,-1.9533,-2.204,-2.3822,-2.3933,-2.6554,-2.8301,-2.8301,-2.8301,-2.8301,-2.8301,-2.8301,-2.8301,-2.8301,-2.8301,-2.8301,-2.8301,-2.8301,-2.8301,-2.8301,-2.875,-2.916,-2.959,-3.0039,-3.0469,-3.0898,-3.0898,-3.0898,-3.0898,-3.0898,-3.0898,-3.0898,-3.0898,-3.1152,-3.1562,-3.2012,-3.2441,-3.2851,0.0,0.0,0.0,0.0,0.0,0.0,0.0,0.0,0.0,0.0,0.0,0.0,0.0,-3.2203,-3.0984,-3.0633,-3.0306,-3.0005,-2.9813,-2.9864,0.0,-2.7788,-2.8042,-2.7549,-2.6191,-2.6465,-2.6484,-2.6142,-2.6484,-2.6836,-2.7246,-2.7539,-2.8186,-2.9006,-2.8898,-2.9722,-3.11,-2.9001,-2.926,-3.1058,-2.9986,-2.9712,-2.9989,-3.0169,-3.0005,-2.9634,-2.9312,-2.9628,-2.9984,-2.8539,-2.7421,-2.6562,-2.6345,-2.4905,-2.3101,-2.2125,-2.0639,-1.9005,-1.7682,-1.6483,-1.547,-1.4878,-1.5285,-1.6051,-1.6983,-1.8422,-1.9649,-2.0133,-2.0307,-2.0307,-2.012,-1.9693,-1.943,-1.943,-1.943,-1.943,-1.943,-1.943,-2.0097,-2.1983,-2.3151,-2.4544,-2.6499,-2.7672,-2.8301,-2.8301,-2.8301,-2.8301,-2.8301,-2.8301,-2.8301,-2.8301,-2.8301,-2.8301,-2.8301,-2.8301,-2.8301,-2.8301,-2.9004,-2.9414,-2.959,-3.0312,-3.0742,-3.0898,-3.0898,-3.0898,-3.0898,-3.0898,-3.0898,-3.0898,-3.0898,-3.1328,-3.1953,-3.2109,-3.2598,-3.3223,0.0,0.0,0.0,0.0,0.0,0.0,0.0,0.0,0.0,-3.2602,0.0,0.0,0.0,0.0,-3.1185,-3.0658,-3.0281,-2.9782,-2.9189,-2.9207,-2.854,-2.6911,-2.7311,-2.7016,-2.5742,-2.6172,-2.6172,-2.5693,-2.6035,-2.6387,-2.6816,-2.7109,-2.7461,-2.7871,-2.8008,-2.8967,-3.0304,-2.8617,-2.8819,-3.0221,-2.9084,-2.8962,-2.946,-2.9642,-2.9488,-2.9223,-2.9278,-2.9951,-3.0606,-2.9306,-2.8166,-2.7372,-2.7846,-2.6497,-2.4503,-2.3429,-2.2299,-2.1079,-1.9733,-1.8671,-1.7779,-1.6818,-1.7098,-1.7704,-1.7864,-1.915,-2.0267,-2.0361,-2.0454,-2.0494,-2.0401,-1.9987,-1.9626,-1.9533,-1.9506,-1.9479,-1.9386,-1.943,-2.0155,-2.2096,-2.2774,-2.4044,-2.6554,-2.7276,-2.778,-2.8247,-2.8301,-2.8301,-2.8301,-2.8301,-2.8301,-2.8301,-2.8301,-2.8301,-2.8301,-2.8301,-2.8359,-2.8516,-2.9082,-2.9512,-2.9805,-3.0391,-3.0742,-3.0898,-3.0898,-3.0898,-3.0898,-3.0898,-3.0898,-3.0898,-3.0898,-3.1406,-3.2229,-3.2229,-3.2695,-3.3418,0.0,0.0,0.0,0.0,0.0,0.0,0.0,0.0,-3.224,-3.224,0.0,0.0,0.0,0.0,0.0,-3.0708,-3.0618,-3.0309,-2.9587,-2.8916,-2.8005,-2.6681,0.0,0.0,-2.5693,-2.6172,-2.6191,-2.5693,-2.5693,-2.5977,-2.6387,-2.6387,-2.6602,-2.7031,-2.7461,-2.7871,-2.8281,-2.8281,-2.8765,-2.9453,-2.9432,-2.9586,-2.985,-2.9853,-2.9254,-2.8387,-2.8388,-2.8937,-2.9587,-2.9024,-2.8171,-2.7408,-2.783,-2.7342,-2.6273,-2.4977,-2.4095,-2.3217,0.0,0.0,0.0,-2.0158,-1.9917,-1.9841,-1.9815,-1.9591,-1.9645,-2.0454,-2.0414,-2.0307,-2.0615,-2.0441,-2.0147,-1.9867,-1.9813,-1.9693,-1.947,-1.943,-1.943,-1.9475,-2.0759,-2.2194,-2.371,-2.5206,-2.6717,-2.8174,-2.8301,-2.8301,-2.8301,-2.8301,-2.8301,-2.8301,-2.8301,-2.8301,-2.8301,-2.8301,-2.8496,-2.8926,-2.8926,-2.9375,-3.0195,-3.0215,-3.0469,-3.0898,-3.0898,-3.0898,-3.0898,-3.0898,-3.0898,-3.0898,-3.0898,-3.1426,-3.2229,-3.2187,-3.2715,-3.3418,0.0,0.0,0.0,0.0,0.0,-3.4299,-3.3746,-3.3194,-3.2842,0.0,0.0,0.0,-3.2842,-3.2315,-3.1938,-3.1788,-3.0947,-2.9872,-2.8459,-2.7631,-2.6748,-2.5605,-2.6114,-2.6191,-2.5693,-2.6465,-2.6484,-2.5693,-2.6055,-2.6269,-2.6387,-2.6387,-2.6602,-2.7031,-2.7148,-2.7441,-2.7904,-2.8164,-2.8416,-2.8595,-2.8329,-2.8256,-2.831,-2.8453,-2.8418,-2.8241,-2.8382,-2.9415,-3.0656,-3.0134,-2.928,-2.7987,-2.5717,-2.625,-2.7256,-2.5335,-2.5168,-2.5571,-2.5253,0.0,0.0,0.0,0.0,0.0,-1.9444,-1.9126,-1.8918,-1.9586,-1.9826,-2.008,-2.0588,-2.0615,-2.0535,-2.0441,-2.008,-1.9693,-1.947,-1.943,-1.9809,-2.0859,-2.1358,-2.2645,-2.5206,-2.5882,-2.6717,-2.8174,-2.8301,-2.8301,-2.8301,-2.8301,-2.8301,-2.8301,-2.8301,-2.8301,-2.8301,-2.8301,-2.8496,-2.8926,-2.9238,-2.9668,-3.0215,-3.0547,-3.0762,-3.0898,-3.0898,-3.0898,-3.0898,-3.0898,-3.0898,-3.0918,-3.123,-3.168,-3.2268,-3.2519,-3.2969,-3.3418,0.0,0.0,0.0,0.0,0.0,-3.5228,-3.4675,-3.4299,-3.4022,0.0,0.0,0.0,-3.3445,-3.2918,-3.2566,-3.2566,-3.1681,-3.039,-2.8633,-2.8091,-2.7066,-2.5447,-2.6016,-2.6269,-2.6016,-2.6504,-2.6504,-2.6016,-2.6074,-2.6113,-2.6113,-2.6113,-2.625,-2.6454,-2.6855,-2.7148,-2.7441,-2.8047,-2.8301,-2.8262,-2.8027,-2.793,-2.7976,-2.8095,-2.8076,-2.8052,-2.8689,-2.9465,-3.026,-3.061,-3.005,-2.8581,-2.5467,-2.5937,-2.7451,-2.6464,-2.6337,-2.6607,-2.7035,-2.5837,-2.4444,-2.4315,0.0,0.0,-2.0793,-1.9755,-1.8928,-1.9612,-1.9519,-1.9466,-2.0174,-2.0307,-2.0347,-2.0468,-2.0201,-1.988,-1.9586,-1.9653,-2.0019,-2.0742,-2.083,-2.2024,-2.5061,-2.52,-2.6045,-2.8121,-2.8301,-2.8301,-2.8301,-2.8301,-2.8301,-2.8301,-2.8301,-2.8301,-2.8301,-2.8301,-2.8496,-2.8926,-2.9355,-2.9785,-3.0215,-3.0684,-3.0898,-3.0898,-3.0898,-3.0898,-3.0898,-3.0898,-3.0996,-3.1172,-3.1426,-3.1894,-3.2461,-3.2695,-3.3066,-3.3418,0.0,0.0,-3.461,-3.4211,-3.5211,-3.5806,-3.5238,-3.5139,-3.5037,0.0,-3.4865,-3.4826,-3.4399,-3.3796,-3.3488,-3.3488,-3.2714,-3.1458,-2.96,-2.9303,-2.8168,-2.5771,-2.6113,-2.6309,-2.6309,-2.6406,-2.6406,-2.6309,-2.6016,-2.5771,-2.5693,-2.5693,-2.5693,-2.5713,-2.6523,-2.6934,-2.707,-2.7832,-2.8203,-2.8301,-2.8301,-2.8301,-2.8301,-2.8301,-2.8027,-2.7865,-2.9003,-2.9207,-2.9153,-3.0673,-3.06,-2.94,-2.665,-2.6562,-2.7573,-2.8056,-2.7615,-2.7167,-2.8028,-2.7574,-2.6713,-2.5953,-2.4743,0.0,-2.3039,-2.1081,-1.9583,-2.0202,-1.9396,-1.8834,-1.9712,-1.9797,-1.9813,-2.0134,-2.0241,-2.0174,-1.9893,-2.0067,-2.0134,-1.988,-1.984,-2.1041,-2.404,-2.4013,-2.5093,-2.8067,-2.8301,-2.8301,-2.8301,-2.8301,-2.8301,-2.8301,-2.8301,-2.8301,-2.8301,-2.8301,-2.8496,-2.8926,-2.9316,-2.9746,-3.0215,-3.0625,-3.084,-3.0898,-3.0898,-3.0898,-3.0898,-3.0937,-3.1191,-3.1523,-3.1562,-3.209,-3.2793,-3.2851,-3.3105,-3.3418,0.0,-3.2773,-3.2796,-3.2705,-3.3224,-3.349,-3.2937,-3.2845,-3.3357,-3.4745,-3.5987,-3.6835,-3.7161,-3.6355,-3.5776,-3.5776,-3.3931,-3.1968,-3.0163,-2.8712,-2.7268,-2.5791,-2.5771,-2.5859,-2.5859,-2.6543,-2.6562,-2.5859,-2.6465,-2.6406,-2.5693,-2.5693,-2.5693,-2.5693,-2.5869,-2.6317,-2.7031,-2.7187,-2.7656,-2.8301,-2.8301,-2.8301,-2.8301,-2.8301,-2.8027,-2.7669,-2.7554,-2.8479,-2.9897,-3.0874,-3.1428,-3.1276,-2.8917,-2.8947,-2.9772,-2.8954,-2.9238,-2.9751,-2.9528,-2.9343,-2.891,-2.7859,-2.6666,0.0,-2.3647,-2.248,-2.1521,-2.0847,-1.9725,-1.9174,-2.0022,-1.9583,-1.9265,-1.98,-2.0281,-2.0481,-2.0187,-2.0201,-2.0153,-2.0147,-2.0147,-2.1222,-2.4057,-2.4244,-2.5332,-2.8087,-2.8301,-2.8301,-2.8301,-2.8301,-2.8301,-2.8301,-2.8301,-2.8301,-2.8301,-2.8301,-2.8496,-2.8926,-2.9004,-2.9453,-3.0195,-3.0293,-3.0527,-3.0898,-3.0898,-3.0898,-3.0918,-3.125,-3.1445,-3.1562,-3.1894,-3.2344,-3.2832,-3.3184,-3.3359,-3.3418,-3.1381,-3.146,-3.1633,-3.1633,-3.245,-3.3041,-3.2915,-3.2967,-3.3315,-3.4182,-3.5577,-3.6503,-3.6503,-3.645,-3.6157,-3.5604,-3.4206,-3.238,-2.9938,-2.8998,-2.7673,-2.5771,-2.5693,-2.5888,-2.6317,-2.6582,-2.6699,-2.6699,-2.6003,-2.5793,-2.6005,-2.5115,-2.4955,-2.543,-2.6074,-2.6504,-2.6738,-2.7383,-2.7891,-2.8301,-2.8301,-2.8301,-2.8301,-2.8301,-2.8164,-2.8015,-2.8287,-2.9084,-3.0043,-2.9797,-3.0215,-3.0575,-2.9215,-2.9242,-2.9653,-2.941,-2.9753,-3.0261,-3.0538,-3.0595,-3.0457,-2.9894,-2.868,0.0,0.0,-2.4769,-2.3307,-2.2612,-2.1309,-2.0426,-2.0799,-2.0522,-2.0208,-2.023,-2.0693,-2.0879,-2.0274,-2.0481,-2.0615,-2.0468,-2.0454,-2.1218,-2.3185,-2.3965,-2.5401,-2.8106,-2.8301,-2.8301,-2.8301,-2.8301,-2.8301,-2.8301,-2.8301,-2.8301,-2.8301,-2.8301,-2.8398,-2.8613,-2.8809,-2.9258,-2.9883,-3.0098,-3.0449,-3.0898,-3.0898,-3.0898,-3.0918,-3.1113,-3.1465,-3.1875,-3.2305,-3.2734,-3.3125,-3.334,-3.3418,-3.3418,-2.9994,-3.0222,-3.047,-3.047,-3.1517,-3.2446,-3.2659,-3.2778,-3.2959,-3.3206,-3.4543,-3.5431,-3.5328,-3.5722,-3.5774,-3.5232,-3.4399,-3.2772,-3.003,-2.9553,-2.8308,-2.582,-2.5693,-2.5868,-2.6198,-2.6095,-2.6205,-2.6522,-2.4772,-2.4445,-2.5465,-2.3995,-2.3754,-2.4562,-2.554,-2.6072,-2.6256,-2.7251,-2.7912,-2.8301,-2.8301,-2.8301,-2.8301,-2.8301,-2.8301,-2.8436,-2.9209,-2.9655,-2.9664,-2.8721,-2.9033,-2.9693,-2.9352,-2.9348,-2.9584,-3.009,-3.0266,-3.041,-3.1207,-3.1537,-3.1662,-3.1436,-3.0573,-2.9581,0.0,0.0,0.0,-2.4694,-2.339,-2.2262,-2.2021,-2.1862,-2.1601,-2.1076,-2.141,-2.1534,-2.0914,-2.1408,-2.1541,-2.0819,-2.0923,-2.146,-2.2393,-2.3783,-2.5702,-2.8203,-2.834,-2.832,-2.8398,-2.834,-2.8301,-2.8301,-2.8301,-2.8301,-2.8301,-2.8301,-2.8301,-2.8301,-2.8633,-2.9023,-2.9453,-2.9883,-3.0332,-3.0762,-3.0859,-3.0898,-3.0898,-3.0976,-3.1465,-3.2207,-3.2539,-3.2988,-3.3418,-3.3418,-3.3418,-3.3418,-2.8568,-2.8587,-2.8627,-2.8627,-2.903,-2.9396,-2.9456,-2.9456,-3.0065,-3.1813,-3.3259,-3.4785,-3.6351,-3.5392,-3.5284,-3.6764,-3.5052,-3.3189,-3.1566,-3.0182,-2.8308,-2.582,-2.5693,-2.4985,-2.3499,-2.4186,-2.383,-2.2401,-2.2501,-2.245,-2.2215,-2.203,-2.2113,-2.2449,-2.2333,-2.3478,-2.5518,-2.5404,-2.6492,-2.8301,-2.8301,-2.8301,-2.8301,-2.8301,-2.8301,-2.8343,-2.8736,-2.8691,-2.8524,-2.9086,-3.0034,-3.0977,-3.093,-3.1342,-3.1854,-3.193,-3.1947,-3.1847,-3.1496,-3.2114,-3.2641,-3.1637,-3.2006,-3.1943,-2.9491,0.0,-2.864,-2.6649,0.0,-2.4822,-2.3975,0.0,0.0,-2.2032,-2.243,-2.2885,-2.3159,-2.3815,-2.3424,-2.1012,-2.1647,-2.2348,-2.2483,-2.4584,-2.6683,-2.8645,-2.8496,-2.8457,-2.8828,-2.8496,-2.8301,-2.8301,-2.8301,-2.8301,-2.8301,-2.8301,-2.8301,-2.8301,-2.834,-2.8574,-2.9004,-2.9453,-2.9863,-3.0293,-3.0703,-3.0898,-3.0918,-3.1289,-3.1738,-3.2168,-3.2226,-3.2734,-3.3418,-3.3418,-3.3418,-3.3418,-2.8301,-2.8301,-2.8359,-2.8613,-2.8594,-2.873,-2.9219,-2.9492,-3.003,-3.1164,-3.2259,-3.3582,-3.5199,-3.5273,-3.562,-3.6639,-3.5174,-3.3363,-3.1356,-2.9624,-2.8055,-2.6515,-2.625,-2.5519,-2.4166,-2.4491,-2.3963,-2.2391,-2.1558,-2.1462,-2.2024,-2.0992,-2.0925,-2.1753,-2.2119,-2.2797,-2.373,-2.4127,-2.5361,-2.6987,-2.6987,-2.7565,-2.8301,-2.8301,-2.7988,-2.7552,-2.7722,-2.7341,-2.6911,-2.8019,-2.868,-2.9212,-2.9943,-3.0835,-3.1482,-3.0802,-3.1065,-3.1563,-3.1345,-3.1612,-3.2073,-3.2297,-3.2466,-3.2264,-3.1058,-3.0532,-2.9958,-2.8953,0.0,0.0,0.0,0.0,0.0,0.0,-2.3595,-2.3472,-2.3037,-2.4006,-2.4356,-2.3139,-2.2737,-2.2749,-2.3473,-2.5091,-2.6791,-2.8427,-2.8613,-2.8633,-2.8555,-2.8613,-2.8535,-2.8301,-2.8301,-2.8301,-2.8301,-2.8301,-2.8301,-2.8301,-2.8301,-2.8516,-2.8945,-2.9375,-2.9805,-3.0215,-3.0684,-3.0898,-3.0898,-3.1074,-3.1562,-3.2229,-3.2229,-3.2676,-3.3418,-3.3418,-3.3418,-3.3418,-2.832,-2.8301,-2.8398,-2.8691,-2.8496,-2.8535,-2.9277,-2.9648,-3.0059,-3.0625,-3.1164,-3.2051,-3.3639,-3.4065,-3.4715,-3.5938,-3.4389,-3.2755,-3.1218,-2.9295,-2.7742,-2.671,-2.6484,-2.5635,-2.3959,-2.412,-2.3339,-2.1449,-2.0212,-2.0084,-2.1071,-1.9777,-1.9717,-2.0695,-2.1299,-2.1742,-2.2177,-2.2782,-2.4,-2.548,-2.548,-2.6372,-2.7726,-2.8121,-2.7832,-2.7187,-2.7051,-2.6543,-2.5977,-2.6805,-2.7315,-2.7767,-2.8634,-2.9715,-3.053,-2.967,-3.0033,-3.0756,-3.0851,-3.0874,-3.1168,-3.246,-3.2426,-3.2141,-3.2181,-3.1738,-3.1165,-3.0749,-3.0332,0.0,0.0,0.0,-2.684,0.0,0.0,-2.4311,-2.3652,-2.4734,-2.529,-2.4466,-2.3551,-2.352,-2.4855,-2.5672,-2.6809,-2.8505,-2.8711,-2.8672,-2.8476,-2.8652,-2.8613,-2.8301,-2.8301,-2.8301,-2.8301,-2.8301,-2.8301,-2.8301,-2.8301,-2.8457,-2.8769,-2.9316,-2.9726,-3.0059,-3.0644,-3.0898,-3.0898,-3.0898,-3.1387,-3.2229,-3.2229,-3.2676,-3.3418,-3.3418,-3.3418,-3.3418,-2.8379,-2.8301,-2.8301,-2.832,-2.8301,-2.8437,-2.8867,-2.8945,-2.9258,-3.0117,-2.99,-3.0322,-3.21,-3.1093,-3.1584,-3.4775,-3.2437,-3.105,-3.1618,-2.9488,-2.7454,-2.5781,-2.6172,-2.4753,-2.1213,-2.1959,-2.0862,-1.7767,-1.7701,-1.7849,-1.8158,-1.809,-1.8238,-1.863,-1.8643,-1.9556,-2.1133,-2.1148,-2.2236,-2.3877,-2.3877,-2.482,-2.6318,-2.778,-2.8027,-2.765,-2.7168,-2.6738,-2.6309,-2.5879,-2.6572,-2.76,-2.7647,-2.8495,-2.9442,-2.9396,-2.9442,-2.9554,-2.9932,-3.0043,-3.0324,-3.1619,-3.1938,-3.1968,-3.2144,-3.2616,-3.2692,-3.1596,-3.2223,-3.2062,-2.9125,0.0,0.0,0.0,0.0,0.0,0.0,-2.7058,-2.6611,-2.3917,-2.3999,-2.4838,-2.6491,-2.6316,-2.7068,-2.9417,-2.8769,-2.8476,-2.8887,-2.8516,-2.8301,-2.8301,-2.8301,-2.8301,-2.8301,-2.8301,-2.8301,-2.8301,-2.8301,-2.8301,-2.834,-2.918,-2.9626,-2.9704,-3.0508,-3.0898,-3.0898,-3.0898,-3.1387,-3.2229,-3.2229,-3.2676,-3.3418,-3.3418,-3.3418,-3.3418,-2.873,-2.7929,-2.7452,-2.8179,-2.7511,-2.7066,-2.7735,-2.842,-2.9336,-3.0508,-3.0019,-3.0322,-3.2156,-3.1692,-3.1889,-3.368,-3.2061,-3.0815,-3.0414,-2.8807,-2.7609,-2.7063,-2.7148,-2.5796,-2.2656,-2.2852,-2.1426,-1.8183,-1.8183,-1.8237,-1.8343,-1.8343,-1.8397,-1.8504,-1.8691,-1.9106,-1.9639,-1.9904,-2.0886,-2.2404,-2.3226,-2.3938,-2.4765,-2.6264,-2.7021,-2.7226,-2.707,-2.6562,-2.5937,-2.5732,-2.5965,-2.6332,-2.6332,-2.722,-2.8049,-2.72,-2.7531,-2.8258,-2.8361,-2.8404,-2.8751,-3.0279,-3.0445,-3.0331,-3.0672,-3.1297,-3.1724,-3.1361,-3.2253,-3.2395,-3.0185,0.0,0.0,0.0,0.0,0.0,0.0,-2.6465,-2.6711,-2.6361,-2.6698,-2.6756,-2.6372,-2.7269,-2.8148,-2.873,-2.8711,-2.8652,-2.8516,-2.8633,-2.8574,-2.8301,-2.8301,-2.8301,-2.8301,-2.8301,-2.8301,-2.8301,-2.8301,-2.8437,-2.873,-2.9297,-2.9726,-3.0019,-3.0625,-3.0898,-3.0898,-3.0898,-3.1387,-3.2229,-3.2229,-3.2676,-3.3418,-3.3418,-3.3418,-3.3418,-2.8292,-2.7082,-2.6394,-2.7524,-2.6938,-2.6534,-2.7203,-2.8464,-2.9746,-3.0762,-3.0391,-3.0455,-3.1493,-3.1271,-3.1416,-3.2359,-3.1011,-2.9983,-2.9698,-2.8468,-2.765,-2.7441,-2.763,-2.6281,-2.3203,-2.3414,-2.1892,-1.849,-1.8597,-1.8651,-1.8651,-1.8651,-1.8584,-1.8504,-1.8905,-1.8971,-1.8798,-1.9199,-1.9924,-2.0902,-2.1642,-2.2401,-2.3207,-2.471,-2.5666,-2.6307,-2.6807,-2.6465,-2.5693,-2.5693,-2.5693,-2.5693,-2.5693,-2.6235,-2.6764,-2.5917,-2.6284,-2.6976,-2.714,-2.718,-2.7531,-2.8981,-2.9161,-2.9149,-2.9858,-3.0445,-3.0854,-3.0763,-3.1821,-3.2054,-2.9846,0.0,0.0,0.0,0.0,0.0,0.0,-2.6211,-2.6699,-2.7611,-2.791,-2.7844,-2.7174,-2.8052,-2.8574,-2.832,-2.8535,-2.8516,-2.8086,-2.8476,-2.8574,-2.8301,-2.8301,-2.8301,-2.8301,-2.8301,-2.8301,-2.8301,-2.8437,-2.8652,-2.8945,-2.9531,-2.9941,-3.0215,-3.0684,-3.0898,-3.0898,-3.0898,-3.1387,-3.2229,-3.2229,-3.2676,-3.3418,-3.3418,-3.3418,-3.3437,-2.7007,-2.5799,-2.516,-2.6187,-2.6491,-2.6655,-2.7029,-2.8671,-3.014,-3.0704,-3.0645,-3.0451,-3.0215,-2.9709,-2.9813,-3.0755,-2.93,-2.8668,-2.9525,-2.8436,-2.75,-2.707,-2.7461,-2.6188,-2.2921,-2.3475,-2.2125,-1.8655,-1.8811,-1.8958,-1.8971,-1.8958,-1.8784,-1.8544,-1.9118,-1.9038,-1.8531,-1.9118,-1.943,-1.943,-1.9359,-2.0242,-2.1643,-2.3135,-2.4068,-2.4873,-2.6429,-2.6465,-2.5693,-2.5693,-2.5693,-2.5693,-2.5693,-2.5693,-2.5693,-2.5693,-2.5693,-2.5771,-2.625,-2.6367,-2.6646,-2.7834,-2.8105,-2.8374,-2.9591,-2.9969,-3.0086,-2.9969,-3.109,-3.1136,-2.8177,0.0,0.0,0.0,0.0,0.0,0.0,-2.6467,-2.678,-2.7611,-2.7669,-2.791,-2.8809,-2.8516,-2.8301,-2.8301,-2.8281,-2.8105,-2.7767,-2.8066,-2.8301,-2.8301,-2.8301,-2.8301,-2.8301,-2.832,-2.832,-2.832,-2.875,-2.8965,-2.9004,-2.9824,-3.0215,-3.0254,-3.0703,-3.0898,-3.0898,-3.0898,-3.1387,-3.2229,-3.2229,-3.2676,-3.3418,-3.3418,-3.3418,-3.3496,-2.5493,-2.4418,-2.3187,-2.2037,-2.3362,-2.4438,-2.4245,-2.5103,-2.6601,-2.8773,-2.7244,-2.6954,-2.9463,-2.8086,-2.754,-2.8866,-2.8554,-2.8265,-2.8249,-2.816,-2.7949,-2.7519,-2.791,-2.7248,-2.5252,-2.4276,-2.2918,-2.1075,-1.9883,-1.9359,-1.9573,-1.9359,-1.9092,-1.8824,-1.9199,-1.9038,-1.8531,-1.9118,-1.943,-1.9403,-1.9132,-1.9388,-2.0127,-2.1317,-2.2314,-2.3438,-2.605,-2.6465,-2.5693,-2.5693,-2.5693,-2.5693,-2.5693,-2.5693,-2.5693,-2.5693,-2.5693,-2.5713,-2.583,-2.5898,-2.6026,-2.6685,-2.6605,-2.6574,-2.7562,-2.8577,-2.9293,-2.9147,-3.048,-3.0916,-2.847,-2.8322,0.0,0.0,0.0,0.0,0.0,-2.7469,-2.7394,-2.7675,-2.6816,-2.6816,-2.8301,-2.8359,-2.8301,-2.8301,-2.8008,-2.791,-2.8125,-2.8242,-2.8301,-2.8301,-2.8301,-2.8301,-2.8301,-2.8594,-2.8769,-2.8769,-2.9199,-2.957,-2.9883,-3.0098,-3.0391,-3.0723,-3.084,-3.0898,-3.0898,-3.0898,-3.1387,-3.2229,-3.2229,-3.2676,-3.3418,-3.3418,-3.3418,-3.3496,-2.4225,-2.3006,-2.1751,-2.0738,-2.1532,-2.2434,-2.3021,-2.4107,-2.5411,-2.6984,-2.572,-2.536,-2.7153,-2.6754,-2.6354,-2.6336,-2.7565,-2.7917,-2.7062,-2.7825,-2.8184,-2.7949,-2.8164,-2.7618,-2.6155,-2.5206,-2.3753,-2.1855,-2.0787,-2.0065,-1.9613,-1.9439,-1.9145,-1.8758,-1.9172,-1.9038,-1.8531,-1.9118,-1.943,-1.9359,-1.9185,-1.9225,0.0,-2.0827,-2.1536,-2.21,-2.4298,-2.537,-2.5693,-2.5693,-2.5693,-2.5693,-2.5693,-2.5693,-2.5693,-2.5693,-2.5693,-2.5693,-2.5693,-2.583,-2.6035,-2.6094,-2.6191,-2.6367,-2.668,-2.7462,-2.8116,-2.8015,-2.9231,-2.9799,-2.7979,-2.7958,0.0,0.0,0.0,0.0,0.0,-2.7867,-2.7737,-2.742,-2.707,-2.7226,-2.8203,-2.7793,-2.7617,-2.7988,-2.7969,-2.7871,-2.7734,-2.8262,-2.8398,-2.8027,-2.8555,-2.8769,-2.8574,-2.918,-2.9394,-2.9199,-2.9648,-2.9961,-3.0195,-3.041,-3.0644,-3.0898,-3.0898,-3.0898,-3.0898,-3.0898,-3.1289,-3.1914,-3.2305,-3.2851,-3.3418,-3.3418,-3.3418,-3.3516,-2.3021,-2.167,-2.0815,-2.1069,-2.0681,-2.0903,-2.2562,-2.4049,-2.5039,-2.5277,-2.4822,-2.4522,-2.453,-2.5513,-2.5544,-2.3977,-2.6245,-2.7298,-2.6227,-2.7314,-2.8121,-2.8281,-2.8301,-2.7726,-2.6445,-2.61,-2.4616,-2.193,-2.1601,-2.0773,-1.9426,-1.9345,-1.9052,-1.8624,-1.9065,-1.8971,-1.8517,-1.9038,-1.9279,-1.9319,-1.9359,-1.943,-1.9533,-2.0816,-2.1166,-2.1048,-2.2069,-2.3754,-2.5508,-2.5508,-2.5586,-2.5713,-2.583,-2.5771,-2.5693,-2.5752,-2.5732,-2.5693,-2.5693,-2.6016,-2.623,-2.5898,-2.6387,-2.6855,-2.6543,-2.6758,-2.7031,-2.709,-2.7915,-2.8348,-2.7294,0.0,0.0,0.0,0.0,0.0,-2.8207,-2.8195,-2.8063,-2.726,-2.7643,0.0,-2.8203,-2.7246,-2.6953,-2.7748,-2.8027,-2.7891,-2.7129,-2.8203,-2.8476,-2.7748,-2.8902,-2.9336,-2.9004,-2.9805,-3.0039,-2.9746,-3.0117,-3.0293,-3.0293,-3.0703,-3.0898,-3.0898,-3.0898,-3.0898,-3.0898,-3.0898,-3.1172,-3.168,-3.2539,-3.3105,-3.3418,-3.3418,-3.3418,-3.3535,-2.1149,-2.1056,-2.1042,-2.1096,-2.1029,-2.1038,-2.1393,-2.1486,-2.2058,-2.3369,-2.2306,-2.2226,-2.4277,-2.3721,-2.3477,-2.4146,-2.4681,-2.5414,-2.6383,-2.6464,-2.706,-2.8228,-2.8301,-2.8174,-2.7906,-2.6717,-2.5308,-2.3812,-2.2291,-2.0946,-1.972,-1.9225,-1.9078,-1.9256,-1.8811,-1.8584,-1.8504,-1.8597,-1.8784,-1.9025,-1.9265,-1.943,-1.943,-1.9707,-2.0231,-2.0926,-2.1128,-2.2556,-2.4372,-2.4523,-2.5038,-2.581,-2.6562,-2.6259,-2.5752,-2.6172,-2.6016,-2.5693,-2.5693,-2.5752,-2.5918,-2.6211,-2.6387,-2.6562,-2.6836,-2.6973,-2.7109,-2.748,-2.7747,-2.7851,-2.7611,0.0,0.0,0.0,-3.0051,-3.0828,-2.97,-2.936,-2.8892,-2.8091,-2.6912,-2.6602,-2.7676,-2.7891,-2.8027,-2.8164,-2.793,-2.7767,-2.7611,-2.8086,-2.8184,-2.7728,-2.8555,-2.916,-2.9453,-2.9941,-3.0351,-3.0664,-3.0742,-3.0762,-3.0762,-3.0859,-3.0898,-3.0898,-3.0898,-3.0898,-3.0898,-3.0898,-3.1348,-3.2129,-3.2988,-3.3359,-3.3418,-3.3418,-3.3418,-3.3535,-1.9512,-1.965,-1.9737,-1.9737,-2.0526,-2.1109,-2.1109,-2.0869,-2.0978,-2.1765,-2.1026,-2.0874,-2.1905,-2.217,-2.214,-2.1812,-2.314,-2.403,-2.3973,-2.4721,-2.5854,-2.7378,-2.7378,-2.778,-2.8613,-2.7523,-2.6389,-2.5207,-2.3334,-2.1835,-2.0684,-1.9462,-1.8918,-1.8891,-1.845,-1.8424,-1.8718,-1.8718,-1.8891,-1.9172,-1.9363,-1.943,-1.943,-1.943,-1.9726,-2.0118,-1.9907,-2.0888,-2.2379,-2.3114,-2.4059,-2.4933,-2.5376,-2.5564,-2.5732,-2.5996,-2.6055,-2.6074,-2.6074,-2.6406,-2.6738,-2.6719,-2.7051,-2.7305,-2.707,-2.7363,-2.7676,-2.7728,-2.7885,-2.793,-2.7767,-2.834,-2.8864,-2.8794,-3.0591,-3.1598,-3.0636,-3.009,-2.9509,-2.8712,-2.7281,-2.6816,-2.7891,-2.8184,-2.8203,-2.7988,-2.7988,-2.7793,-2.7344,-2.7949,-2.8105,-2.7728,-2.8691,-2.9355,-2.9626,-3.0449,-3.0879,-3.0898,-3.0898,-3.0898,-3.0898,-3.0898,-3.0898,-3.0898,-3.0898,-3.0898,-3.0918,-3.1133,-3.1582,-3.2226,-3.2851,-3.3223,-3.3457,-3.3672,-3.375,-3.3848,-1.8529,-1.8832,-1.9024,-1.9024,-2.0195,-2.1109,-2.1109,-2.0909,-2.0748,-2.0681,-2.0468,-2.0187,-1.984,-2.0934,-2.1099,-1.9609,-2.165,-2.2694,-2.1852,-2.3132,-2.4613,-2.6204,-2.6148,-2.6711,-2.7975,-2.7314,-2.6387,-2.5151,-2.3596,-2.2236,-2.0985,-1.958,-1.8731,-1.8384,-1.8223,-1.8302,-1.8688,-1.8798,-1.8998,-1.9279,-1.9345,-1.943,-1.943,-1.943,-1.943,-1.939,-1.9025,-1.9417,-2.0336,-2.1333,-2.2504,-2.3611,-2.3769,-2.4556,-2.5369,-2.51,-2.5783,-2.6473,-2.6153,-2.6788,-2.7461,-2.7226,-2.7656,-2.7988,-2.7305,-2.7676,-2.8066,-2.7787,-2.8008,-2.8184,-2.7904,-2.8508,-2.8993,-2.8725,-3.0475,-3.1567,-3.0718,-3.0175,-2.9642,-2.8923,-2.7723,-2.7246,-2.7832,-2.8047,-2.7988,-2.7559,-2.793,-2.7832,-2.7051,-2.7734,-2.7969,-2.7539,-2.8848,-2.9609,-2.9707,-3.082,-3.1269,-3.1016,-3.0937,-3.0898,-3.0898,-3.0898,-3.0898,-3.0898,-3.0898,-3.0898,-3.0937,-3.1445,-3.1855,-3.2226,-3.2734,-3.3184,-3.3594,-3.3945,-3.4121,-3.4258,-1.8832,-1.9737,-2.0856,-2.0856,-2.0982,-2.1109,-2.1109,-2.1082,-2.0975,-2.0708,-2.0655,-2.0428,-1.9867,-2.0389,-2.0544,-1.9813,-2.0226,-2.1096,-2.232,-2.2587,-2.3296,-2.4804,-2.4862,-2.492,-2.5078,-2.4751,-2.378,-2.2024,-2.1824,-2.0856,-1.9128,-1.8988,-1.8568,-1.8049,-1.8343,-1.833,-1.8089,-1.841,-1.8704,-1.8985,-1.9265,-1.943,-1.943,-1.943,-1.943,-1.939,-1.9025,-1.8961,-1.9007,-1.8904,-2.0249,-2.2062,-2.28,-2.3652,-2.4245,-2.3286,-2.4853,-2.6628,-2.5286,-2.5999,-2.7168,-2.7519,-2.7728,-2.7695,-2.7669,-2.7728,-2.7767,-2.7728,-2.8008,-2.8281,-2.8242,-2.8015,-2.7983,-2.8318,-2.8799,-2.9267,-2.961,-2.9203,-2.8782,-2.8327,-2.7492,-2.6894,-2.6602,-2.7266,-2.7539,-2.7109,-2.748,-2.7519,-2.7031,-2.7461,-2.7519,-2.709,-2.8691,-2.9746,-3.0137,-3.0684,-3.1113,-3.1445,-3.1074,-3.0898,-3.0898,-3.0898,-3.0898,-3.0898,-3.0898,-3.0898,-3.0957,-3.1777,-3.2129,-3.2307,-3.3047,-3.3633,-3.4023,-3.4062,-3.4316,-3.4707,-1.864,-1.9088,-1.9546,-1.9546,-2.0399,-2.0779,-1.9674,-2.0102,-2.023,-1.9262,-2.0035,-2.0521,-2.0107,-2.0107,-2.012,-2.0067,-2.0,-2.028,-2.1046,-2.1301,-2.2115,-2.3636,-2.3636,-2.4055,-2.5048,-2.4548,-2.3959,-2.3244,-2.2131,-2.1242,-2.0501,-1.9261,-1.8437,-1.7995,-1.8115,-1.8357,-1.8528,-1.8704,-1.8918,-1.9199,-1.9377,-1.943,-1.943,-1.943,-1.943,-1.9359,-1.9239,-1.9078,-1.8878,-1.8584,-1.947,-2.0794,-2.1127,-2.2006,-2.2911,-2.249,-2.3474,-2.458,-2.3993,-2.513,-2.6486,-2.6707,-2.7424,-2.8047,-2.8047,-2.8047,-2.8047,-2.8047,-2.8184,-2.8301,-2.8301,-2.8164,-2.8105,-2.8262,0.0,0.0,0.0,-2.9354,-2.888,-2.8691,-2.72,-2.6387,-2.6719,-2.707,-2.7519,-2.8105,-2.8086,-2.7851,-2.7422,-2.7324,-2.7422,-2.7773,-2.8437,-2.9141,-2.9805,-3.0527,-3.0976,-3.1133,-3.0976,-3.0898,-3.0898,-3.0898,-3.0898,-3.0898,-3.0898,-3.0898,-3.0957,-3.1816,-3.2229,-3.2246,-3.3086,-3.3691,-3.4101,-3.4355,-3.4551,-3.4805,-1.7859,-1.7731,-1.7731,-1.7731,-1.9164,-1.9941,-1.8704,-1.9537,-1.9959,-1.8877,-1.9781,-2.0468,-2.0254,-2.012,-2.0107,-2.0167,-2.012,-2.0147,-2.0347,-2.0641,-2.1348,-2.2432,-2.2432,-2.2909,-2.4037,-2.3539,-2.315,-2.3006,-2.1682,-2.096,-2.0771,-1.9386,-1.8597,-1.8249,-1.8249,-1.8475,-1.8918,-1.8918,-1.9092,-1.943,-1.943,-1.943,-1.943,-1.943,-1.943,-1.9417,-1.9265,-1.9105,-1.8878,-1.8584,-1.8932,-1.9483,-1.9382,-2.0423,-2.1581,-2.1174,-2.2129,-2.3387,-2.3387,-2.474,-2.6209,-2.6662,-2.7511,-2.8301,-2.8301,-2.8301,-2.8301,-2.8301,-2.8301,-2.8301,-2.8301,-2.8301,-2.8301,-2.8301,0.0,0.0,0.0,-2.9168,0.0,-2.8643,-2.7242,-2.6445,-2.6797,-2.6934,-2.7383,-2.8281,-2.8203,-2.7988,-2.7728,-2.7246,-2.7285,-2.7891,-2.8281,0.0,-2.957,-3.0449,-3.0898,-3.0898,-3.0898,-3.0898,-3.0898,-3.0898,-3.0898,-3.0898,-3.1016,-3.1074,-3.1133,-3.2012,-3.2344,-3.2422,-3.3144,-3.3769,-3.4297,-3.459,-3.4863,-3.5176,-1.6237,-1.5913,-1.5913,-1.5913,-1.7334,-1.85,-1.8512,-1.9764,-2.0575,-2.022,-2.018,-2.018,-2.0167,-2.0494,-2.0548,-2.0254,-2.0494,-2.0668,-2.0668,-2.0949,-2.1109,-2.1096,-2.1096,-2.1109,-2.1159,-2.0877,-2.0435,-1.9859,-1.9859,-1.9492,-1.8931,-1.9225,-1.9199,-1.8918,-1.8918,-1.8918,-1.8918,-1.8918,-1.9092,-1.943,-1.943,-1.943,-1.943,-1.943,-1.943,-1.939,-1.9038,-1.8931,-1.8878,-1.8584,-1.829,-1.7996,-1.7689,-1.9028,-2.0436,-1.8961,-2.1022,-2.3822,-2.3822,-2.4931,-2.6427,-2.7906,-2.8301,-2.8301,-2.8301,-2.8301,-2.8301,-2.8301,-2.8301,-2.8301,-2.8301,-2.8301,-2.8301,-2.8301,0.0,0.0,0.0,-2.8335,0.0,-2.7767,-2.7708,-2.7356,-2.6484,-2.6777,-2.7031,-2.7031,-2.7441,-2.7728,-2.7728,-2.7246,-2.7012,-2.7031,-2.8262,0.0,-2.9626,-3.0449,-3.0898,-3.0898,-3.0898,-3.0898,-3.0898,-3.0898,-3.0898,-3.0918,-3.1328,-3.1504,-3.1582,-3.2441,-3.2793,-3.2832,-3.3262,-3.3945,-3.4687,-3.4707,-3.5254,-3.5996,-1.7988,-1.7667,-1.7269,-1.6108,-1.7345,-1.8116,-1.6883,-1.8996,-2.0129,-1.8643,-1.9485,-2.016,-1.996,-2.0201,-2.0414,-2.0521,-2.0615,-2.0762,-2.0962,-2.1056,-2.1109,-2.1109,-2.1109,-2.1109,-2.1109,-2.0828,-2.0588,-2.0401,-2.0,-1.9506,-1.8931,-1.9025,-1.9011,-1.8918,-1.8918,-1.9038,-1.9225,-1.9225,-1.9279,-1.943,-1.943,-1.943,-1.943,-1.943,-1.943,-1.9417,-1.9265,-1.9225,-1.9185,-1.8891,-1.8718,-1.8597,-1.829,-1.8646,-1.9168,-1.883,-1.9721,-2.0816,-2.0816,-2.2605,-2.4654,-2.5096,-2.6771,-2.8301,-2.8301,-2.8301,-2.8301,-2.8301,-2.8301,-2.8301,-2.8301,-2.8301,-2.8301,-2.8301,-2.8301,0.0,-2.8301,0.0,-2.7363,-2.7246,-2.6973,-2.668,-2.6426,-2.7031,-2.7578,-2.7871,-2.8281,-2.8262,-2.7748,-2.7539,0.0,0.0,-2.8125,0.0,-2.957,-3.0137,-3.0586,-3.0898,-3.0898,-3.0898,-3.0898,-3.0898,-3.0898,-3.0918,-3.1328,-3.1523,-3.1582,-3.2441,-3.2793,-3.2832,-3.3262,-3.3769,-3.4297,-3.459,-3.5078,-3.5625,-1.7764,-1.6882,-1.5856,-1.4179,-1.5917,-1.7141,-1.6043,-1.8617,-2.0191,-1.8766,-1.9546,-2.012,-1.9826,-2.0054,-2.0347,-2.0655,-2.0775,-2.0909,-2.1096,-2.1109,-2.1109,-2.1109,-2.1109,-2.1109,-2.1109,-2.0935,-2.0735,-2.0508,-1.992,-1.9452,-1.9092,-1.9092,-1.9092,-1.9092,-1.9092,-1.9199,-1.943,-1.943,-1.943,-1.943,-1.943,-1.943,-1.943,-1.943,-1.943,-1.943,-1.943,-1.943,-1.939,-1.9158,-1.9011,-1.8918,-1.8838,-1.8824,-1.8838,-1.8905,-1.9132,-1.9533,-2.0097,-2.1983,-2.3933,-2.4544,-2.6499,-2.8301,-2.8301,-2.8301,-2.8301,-2.8301,-2.8301,-2.8301,-2.8301,-2.8301,-2.834,-2.8496,-2.8398,-2.834,-2.8496,0.0,-2.75,0.0,-2.7266,-2.7031,-2.6875,-2.75,-2.7949,-2.8047,-2.8594,-2.8555,-2.7767,-2.7969,-2.8066,-2.791,-2.8476,-2.9101,-2.9805,-3.0234,-3.0605,-3.0898,-3.0898,-3.0898,-3.0898,-3.0898,-3.0898,-3.0918,-3.1504,-3.1758,-3.1836,-3.2676,-3.3027,-3.3066,-3.332,-3.3691,-3.4121,-3.4551,-3.5,-3.5449,-1.6087,-1.4353,-1.2588,-1.0941,-1.344,-1.5764,-1.5848,-1.8566,-2.0465,-2.022,-2.0167,-2.0107,-1.98,-2.0027,-2.0321,-2.0615,-2.0909,-2.1082,-2.1109,-2.1109,-2.1109,-2.1109,-2.1109,-2.1109,-2.1109,-2.1109,-2.0815,-2.0167,-1.9666,-1.9444,-1.943,-1.943,-1.943,-1.943,-1.943,-1.943,-1.943,-1.943,-1.943,-1.943,-1.943,-1.943,-1.943,-1.943,-1.943,-1.943,-1.943,-1.943,-1.943,-1.943,-1.9185,-1.8998,-1.9279,-1.9386,-1.9345,-1.9065,-1.9199,-1.9761,-2.1131,-2.262,-2.4189,-2.5608,-2.7114,-2.8301,-2.8301,-2.8301,-2.8301,-2.8301,-2.8301,-2.8301,-2.8301,-2.832,-2.8457,-2.8809,-2.8574,-2.8457,-2.8828,-2.8516,-2.8242,-2.8242,-2.8281,-2.8144,-2.7806,-2.8086,-2.8184,-2.7885,-2.8516,-2.8633,-2.7885,0.0,-2.8828,-2.832,-2.9121,-2.9766,-3.0195,-3.0625,-3.0859,-3.0898,-3.0898,-3.0898,-3.0898,-3.0898,-3.0898,-3.0937,-3.1758,-3.2148,-3.2226,-3.3047,-3.3398,-3.3418,-3.3457,-3.3711,-3.4121,-3.459,-3.5019,-3.5449,-1.7437,-1.5825,-1.4194,-1.2644,-1.3144,-1.4244,-1.5689,-1.7686,-1.9274,-2.0111,-2.0167,-2.004,-1.9533,-1.9733,-2.0027,-2.0307,-2.0615,-2.0869,-2.1096,-2.1109,-2.1109,-2.1109,-2.1109,-2.1109,-2.1109,-2.1109,-2.0815,-2.0167,-1.9867,-1.9586,-1.943,-1.943,-1.943,-1.943,-1.943,-1.943,-1.943,-1.943,-1.943,-1.943,-1.943,-1.943,-1.943,-1.943,-1.943,-1.943,-1.943,-1.943,-1.943,-1.943,-1.9377,-1.9279,-1.9345,-1.9519,-1.9679,-1.9613,-1.98,-2.0033,-2.0219,-2.2148,-2.4225,-2.4334,-2.6336,-2.8301,-2.8301,-2.8301,-2.8301,-2.8301,-2.8301,-2.8301,-2.8301,-2.8555,-2.8691,-2.8476,-2.8633,-2.8691,-2.8476,-2.8086,-2.7812,-2.7812,-2.8105,-2.8262,-2.8164,-2.8516,-2.8867,0.0,-2.9297,-2.9336,-2.9196,-2.9941,-2.9766,-2.834,-2.9121,-2.9766,-3.0195,-3.0312,-3.0547,-3.0898,-3.0898,-3.0898,-3.0898,-3.0898,-3.0898,-3.0918,-3.1445,-3.1855,-3.2268,-3.2734,-3.3125,-3.3457,-3.3789,-3.3984,-3.416,-3.4941,-3.5293,-3.5449,-1.778,-1.6208,-1.458,-1.2963,-1.3491,-1.4459,-1.5463,-1.7811,-1.9612,-1.9986,-2.0147,-2.0067,-1.9613,-1.9586,-1.9826,-2.0388,-2.0588,-2.0802,-2.1096,-2.1109,-2.1109,-2.1109,-2.1109,-2.1042,-2.0909,-2.1042,-2.0815,-2.0167,-1.9947,-1.9653,-1.943,-1.943,-1.943,-1.943,-1.943,-1.943,-1.943,-1.943,-1.943,-1.943,-1.943,-1.943,-1.943,-1.943,-1.943,-1.943,-1.943,-1.943,-1.943,-1.943,-1.943,-1.943,-1.943,-1.9653,-2.0,-2.0,-2.0107,-2.0201,-2.004,-2.1685,-2.3741,-2.4789,-2.6279,-2.763,-2.816,-2.8437,-2.8516,-2.834,-2.8437,-2.8516,-2.832,-2.8476,-2.8613,-2.8574,-2.8613,-2.8613,-2.8574,-2.8223,-2.7743,-2.722,-2.7337,-2.7251,-2.6698,-2.7004,-2.7598,-2.8408,-2.8804,0.0,-2.959,-3.041,-3.0007,-2.8107,-2.9466,-2.993,-2.9408,-3.0142,-3.0644,-3.0898,-3.0898,-3.0898,-3.0898,-3.1094,-3.1172,-3.1211,-3.1836,-3.2226,-3.248,-3.291,-3.3223,-3.3457,-3.3906,-3.4082,-3.418,-3.5059,-3.5391,-3.5449,-1.7911,-1.632,-1.47,-1.3346,-1.4284,-1.535,-1.566,-1.827,-2.0121,-1.9874,-2.004,-2.0054,-1.9773,-1.9519,-1.9706,-2.0535,-2.0615,-2.0748,-2.1082,-2.1109,-2.1109,-2.1109,-2.1109,-2.0975,-2.0681,-2.0869,-2.0762,-2.0294,-2.0013,-1.972,-1.9439,-1.9439,-1.947,-1.943,-1.943,-1.943,-1.943,-1.943,-1.943,-1.943,-1.943,-1.943,-1.943,-1.9412,-1.947,-1.943,-1.9466,-1.9466,-1.9497,-1.9479,-1.9466,-1.9497,-1.9479,-1.984,-2.0241,-2.0294,-2.0273,-2.0361,-2.0307,-2.1329,-2.3104,-2.5565,-2.6155,-2.6457,-2.7465,-2.8164,-2.8501,-2.8157,-2.8587,-2.8906,-2.8555,-2.8535,-2.8618,-2.8616,-2.8548,-2.8412,-2.8246,0.0,-2.7576,-2.6343,-2.6261,-2.5926,-2.4886,-2.5081,-2.5755,-2.6858,-2.7799,-2.8612,-2.939,-3.0103,-2.9674,-2.7939,-2.9849,-3.0216,-2.8783,-3.0216,-3.0898,-3.0898,-3.0957,-3.0996,-3.0996,-3.1426,-3.1621,-3.166,-3.2383,-3.2734,-3.2832,-3.3184,-3.3359,-3.3476,-3.3965,-3.416,-3.4277,-3.5156,-3.5488,-3.5547,-1.9121,-1.7809,-1.6617,-1.6473,-1.5561,-1.5524,-1.7372,-1.7913,-1.8582,-1.9932,-1.9987,-1.976,-1.9466,-1.9399,-1.9626,-2.0241,-2.0307,-2.0535,-2.1069,-2.1109,-2.1109,-2.1109,-2.1109,-2.0975,-2.0681,-2.0481,-2.0441,-2.0601,-2.0307,-2.0013,-1.9733,-1.9733,-1.9599,-1.943,-1.943,-1.943,-1.943,-1.943,-1.943,-1.943,-1.943,-1.943,-1.9399,-1.9639,-1.9586,-1.9439,-1.992,-1.9947,-1.9773,-2.0013,-1.9933,-1.9773,-2.0013,-2.016,-2.0281,-2.0535,-2.0788,-2.0922,-2.0668,-2.1558,-2.2868,-2.4294,-2.4651,-2.4691,-2.4867,-2.6046,-2.7085,-2.7227,-2.8445,-2.9453,-2.9375,-2.9668,-2.9334,-2.7655,-2.8539,-2.835,-2.5422,0.0,-2.6252,-2.4822,-2.5128,-2.5409,-2.5222,-2.5271,-2.5539,-2.6164,-2.7263,-2.8088,-2.8582,-2.871,-2.8646,-2.8336,-2.9982,-3.0762,-3.0509,-3.0762,-3.0898,-3.0898,-3.125,-3.1426,-3.1426,-3.1875,-3.207,-3.207,-3.2207,-3.2461,-3.2793,-3.2871,-3.3105,-3.3496,-3.4297,-3.4609,-3.4707,-3.5605,-3.5918,-3.5937,-1.943,-1.8098,-1.7009,-1.7067,-1.6484,-1.6358,-1.7521,-1.8349,-1.9073,-1.988,-1.988,-1.9693,-1.9457,-1.943,-1.9599,-2.0127,-2.0167,-2.0481,-2.1069,-2.1109,-2.1109,-2.1109,-2.0962,-2.0815,-2.0681,-2.0388,-2.0374,-2.0681,-2.0535,-2.0241,-1.98,-1.98,-1.9639,-1.943,-1.943,-1.943,-1.943,-1.943,-1.943,-1.9386,-1.9533,-1.9599,-1.9626,-1.992,-1.9947,-1.9867,-2.0134,-2.0147,-2.0054,-2.0187,-2.0147,-2.0054,-2.0187,-2.0347,-2.0494,-2.0641,-2.0882,-2.1082,-2.0949,-2.13,-2.2015,-2.3229,-2.3567,-2.374,-2.4366,-2.5276,-2.5932,-2.584,-2.7301,-2.8557,-2.8276,-2.9144,-2.9335,-2.7618,-2.773,-2.7246,-2.5028,-2.5074,-2.4859,-2.3697,-2.3831,-2.3733,-2.3121,-2.3012,-2.3503,-2.464,-2.5246,-2.6,-2.7073,-2.7931,-2.7991,-2.7134,-2.8664,-2.9962,-3.0898,-3.0898,-3.0898,-3.0898,-3.1328,-3.1523,-3.1543,-3.2207,-3.25,-3.2519,-3.2734,-3.2949,-3.3125,-3.3125,-3.3379,-3.3828,-3.4453,-3.4844,-3.5156,-3.5781,-3.6016,-3.6016,-1.943,-1.8402,-1.756,-1.756,-1.756,-1.7669,-1.7997,-1.8988,-1.9746,-1.988,-1.9786,-1.9613,-1.9399,-1.943,-1.9599,-2.0127,-2.0167,-2.0481,-2.1069,-2.1109,-2.1109,-2.1109,-2.0828,-2.0708,-2.0775,-2.0481,-2.0481,-2.0775,-2.0775,-2.0508,-2.0,-1.9933,-1.9746,-1.9466,-1.9457,-1.943,-1.943,-1.943,-1.943,-1.9444,-1.9613,-1.9733,-1.9826,-2.012,-2.0167,-2.0193,-2.0388,-2.0388,-2.0347,-2.0414,-2.0388,-2.0347,-2.0414,-2.0548,-2.0695,-2.0762,-2.0935,-2.1109,-2.1109,-2.1109,-2.1281,-2.219,-2.2425,-2.2657,-2.3572,-2.4293,-2.4735,-2.4499,-2.6042,-2.7282,-2.6923,-2.7927,-2.8325,-2.6922,0.0,-2.5852,-2.43,-2.4039,-2.356,-2.2535,-2.2422,-2.2134,-2.1209,-2.1109,-2.1601,-2.2904,-2.3387,-2.4116,-2.5375,-2.6953,-2.7486,-2.6709,-2.7935,-2.9402,-3.1191,-3.1191,-3.1191,-3.1191,-3.1621,-3.1816,-3.1836,-3.2598,-3.2988,-3.3105,-3.332,-3.3476,-3.3574,-3.3574,-3.3769,-3.4121,-3.4648,-3.5078,-3.5449,-3.5859,-3.5743,-3.5382,-1.943,-1.9301,-1.9243,-1.9243,-1.9243,-1.937,-1.9926,-1.9687,-1.9586,-2.0134,-1.9733,-1.9399,-1.943,-1.943,-1.9599,-2.0127,-2.0167,-2.0481,-2.1069,-2.1109,-2.1109,-2.1109,-2.0828,-2.0802,-2.1069,-2.0788,-2.0788,-2.1082,-2.1082,-2.0922,-2.0601,-2.0334,-2.004,-1.976,-1.9492,-1.943,-1.943,-1.943,-1.943,-1.943,-1.9444,-1.9559,-1.9826,-2.012,-2.0167,-2.0247,-2.0855,-2.0869,-2.0681,-2.0949,-2.0869,-2.0695,-2.0962,-2.0869,-2.0735,-2.1002,-2.1096,-2.1109,-2.1109,-2.1109,-2.1042,-2.0873,-2.0854,-2.0916,-2.095,-2.2166,-2.3338,-2.3624,-2.496,-2.6117,-2.6083,-2.6204,-2.5736,-2.4132,0.0,0.0,-2.1444,-2.2198,-2.2489,-2.1026,-2.1096,-2.1209,-2.1109,-2.1109,-2.1172,-2.1299,-2.2716,-2.3636,-2.376,-2.5314,-2.6986,-2.8828,-2.8967,-3.0018,-3.207,-3.207,-3.207,-3.209,-3.25,-3.2695,-3.2715,-3.3164,-3.3594,-3.3965,-3.3574,-3.3652,-3.4023,-3.4023,-3.4043,-3.416,-3.5,-3.5371,-3.5449,-3.5859,-3.4883,-3.3378,-1.943,-1.943,-1.943,-1.943,-1.943,-1.9506,-1.9907,-1.9626,-1.9506,-1.9907,-1.9613,-1.943,-1.943,-1.943,-1.9533,-1.9933,-2.0134,-2.0401,-2.0815,-2.1002,-2.1029,-2.0855,-2.0735,-2.0722,-2.0842,-2.0735,-2.0815,-2.1109,-2.1109,-2.0869,-2.0401,-2.0281,-1.9987,-1.9533,-1.947,-1.943,-1.943,-1.943,-1.943,-1.9457,-1.976,-1.9973,-2.012,-2.0601,-2.0775,-2.0802,-2.1029,-2.1042,-2.0962,-2.1069,-2.1042,-2.0962,-2.1069,-2.1029,-2.0962,-2.1082,-2.1109,-2.1109,-2.1109,-2.1109,-2.1082,-2.0975,-2.0949,-2.0949,-2.0949,-2.1436,-2.1888,-2.2013,-2.3387,-2.4532,-2.4532,-2.5429,-2.5697,-2.4109,0.0,-2.3563,-2.157,-2.1395,-2.1403,-2.0985,-2.1203,-2.1309,-2.1122,-2.1269,-2.1309,-2.1122,-2.1905,-2.2384,-2.2384,-2.5125,-2.7656,-2.9743,-3.0835,-3.1616,-3.2168,-3.2229,-3.2229,-3.2168,-3.2598,-3.2793,-3.2812,-3.3516,-3.3926,-3.4082,-3.418,-3.4316,-3.4453,-3.4453,-3.4629,-3.479,-3.3924,-3.378,-3.3922,-3.3106,-3.2313,-3.1762,-1.943,-1.943,-1.943,-1.943,-1.943,-1.9466,-1.976,-1.9559,-1.9466,-1.976,-1.9546,-1.943,-1.943,-1.943,-1.9479,-1.9773,-2.0067,-2.0361,-2.0655,-2.0949,-2.1015,-2.0815,-2.0815,-2.0815,-2.0815,-2.0815,-2.0909,-2.1109,-2.1109,-2.0855,-2.0374,-2.0281,-1.9973,-1.9506,-1.947,-1.943,-1.943,-1.943,-1.943,-1.947,-1.9907,-2.0147,-2.0294,-2.0788,-2.1029,-2.1109,-2.1109,-2.1109,-2.1109,-2.1109,-2.1109,-2.1109,-2.1109,-2.1109,-2.1109,-2.1109,-2.1109,-2.1109,-2.1109,-2.1176,-2.1229,-2.1136,-2.1109,-2.1109,-2.1109,-2.1109,-2.1136,-2.1229,-2.2537,-2.3634,-2.3906,-2.5328,-2.5939,-2.4441,-2.4022,-2.3393,-2.1916,-2.1349,-2.1162,-2.1363,-2.1563,-2.1603,-2.1403,-2.1563,-2.1603,-2.1403,-2.1577,-2.1943,-2.2448,-2.6104,-2.8772,-3.0194,-3.1477,-3.2334,-3.2559,-3.2559,-3.2559,-3.2559,-3.2988,-3.3125,-3.3008,-3.375,-3.4082,-3.4082,-3.4375,-3.457,-3.4707,-3.4863,-3.4746,-3.4345,-3.3198,-3.2574,-3.2315,-3.1203,-3.0502,-3.0048,-1.943,-1.943,-1.943,-1.943,-1.943,-1.9466,-1.976,-1.9546,-1.9466,-1.976,-1.9546,-1.943,-1.943,-1.943,-1.9479,-1.9773,-2.0067,-2.0361,-2.0655,-2.0949,-2.1109,-2.1109,-2.1109,-2.1109,-2.1109,-2.1109,-2.1109,-2.1109,-2.1109,-2.0962,-2.0668,-2.0374,-2.0067,-1.9786,-1.9492,-1.943,-1.943,-1.943,-1.943,-1.9399,-1.9679,-1.9973,-2.0267,-2.0561,-2.0855,-2.1109,-2.1109,-2.1109,-2.1109,-2.1109,-2.1109,-2.1109,-2.1109,-2.1109,-2.1109,-2.1109,-2.1109,-2.1109,-2.1109,-2.1323,-2.1547,-2.1189,-2.1109,-2.1122,-2.1122,-2.1122,-2.1203,-2.1561,-2.2694,-2.3831,-2.4475,-2.5723,-2.6161,-2.4793,-2.4595,-2.3963,-2.2241,-2.1991,-2.1991,-2.1991,-2.1991,-2.1991,-2.1991,-2.1991,-2.1991,-2.1991,-2.1991,-2.2687,-2.4351,-2.8188,-3.0339,-3.0212,-3.0573,-3.1643,-3.3374,-3.3355,-3.3355,-3.3437,-3.3867,-3.3848,-3.3374,-3.3887,-3.4082,-3.4082,-3.4082,-3.4316,-3.4746,-3.5215,-3.4259,-3.2543,-3.3008,-3.2192,-3.0782,-3.0782,-2.9713,-2.8417,-1.943,-1.943,-1.943,-1.943,-1.943,-1.9457,-1.9479,-1.9426,-1.9457,-1.9492,-1.9426,-1.943,-1.943,-1.943,-1.9479,-1.9773,-2.0067,-2.0441,-2.0949,-2.1069,-2.1109,-2.1109,-2.1109,-2.1109,-2.1109,-2.1109,-2.1109,-2.1109,-2.0909,-2.0655,-2.0361,-2.0067,-1.9773,-1.9492,-1.947,-1.943,-1.943,-1.943,-1.943,-1.947,-1.9907,-2.016,-2.0294,-2.0788,-2.1029,-2.1109,-2.1109,-2.1109,-2.1109,-2.1109,-2.1109,-2.1109,-2.1109,-2.1109,-2.1109,-2.1109,-2.1109,-2.1149,-2.1363,-2.1547,-2.1601,-2.1507,-2.1577,-2.1724,-2.1724,-2.1724,-2.2127,-2.3429,-2.4001,-2.4754,-2.6216,-2.7015,-2.6744,-2.4868,-2.479,-2.4291,-2.2268,-2.1991,-2.1991,-2.1991,-2.2164,-2.2205,-2.2004,-2.2164,-2.2205,-2.2004,-2.2178,-2.3686,-2.6919,-2.8443,-2.983,-3.0959,-3.2683,-3.317,-3.2514,-3.1857,-3.2155,-3.3355,-3.2458,-3.2003,-3.1846,-3.1287,-3.1723,-3.2991,-3.3354,-3.4305,-3.5644,-3.5781,-3.4694,-3.2851,-3.1616,-3.0183,-2.8661,-2.7507,-2.6904,-2.6752,-1.9345,-1.943,-1.943,-1.943,-1.943,-1.943,-1.943,-1.943,-1.943,-1.943,-1.943,-1.943,-1.943,-1.943,-1.9479,-1.9773,-2.0174,-2.0601,-2.1082,-2.1109,-2.1109,-2.1109,-2.1109,-2.1109,-2.1109,-2.1109,-2.1109,-2.1109,-2.0815,-2.0521,-2.0167,-1.9933,-1.9639,-1.943,-1.943,-1.943,-1.943,-1.943,-1.943,-1.947,-2.0,-2.0167,-2.0294,-2.0882,-2.1109,-2.1109,-2.1109,-2.1109,-2.1109,-2.1109,-2.1109,-2.1109,-2.1109,-2.1538,-2.1978,-2.1299,-2.1538,-2.2034,-2.1663,-2.1695,-2.175,-2.1871,-2.1937,-2.1991,-2.1991,-2.1991,-2.2531,-2.4384,-2.5203,-2.6216,-2.8286,-2.9235,-2.9142,-2.731,-2.6644,-2.5606,-2.3658,-2.2792,-2.2338,-2.2338,-2.2485,-2.2525,-2.2352,-2.2485,-2.2849,-2.3325,-2.3658,-2.5166,-2.8295,-2.9462,-3.0537,-3.1619,-3.2935,-3.3482,-3.3132,-3.1906,-3.219,-3.3926,-3.2992,-3.2561,-3.258,-3.2151,-3.2485,-3.339,-3.3886,-3.4705,-3.5781,-3.5957,-3.4452,-3.1948,-3.0734,-2.8831,-2.6709,-2.5718,-2.5531,-2.5825,-1.9305,-1.943,-1.943,-1.943,-1.943,-1.943,-1.943,-1.943,-1.943,-1.943,-1.943,-1.943,-1.943,-1.9444,-1.9519,-1.9813,-2.0374,-2.0828,-2.1096,-2.1109,-2.1109,-2.1109,-2.1109,-2.1109,-2.1109,-2.1109,-2.1109,-2.1109,-2.0815,-2.0521,-2.0167,-1.9933,-1.9639,-1.943,-1.943,-1.943,-1.943,-1.943,-1.9386,-1.9452,-2.0013,-2.0254,-2.0334,-2.0895,-2.1109,-2.1109,-2.1109,-2.1109,-2.1109,-2.1109,-2.1109,-2.1109,-2.1299,-2.2306,-2.312,-2.1768,-2.2335,-2.3175,-2.1988,-2.1817,-2.2098,-2.2392,-2.2285,-2.2098,-2.2071,-2.2058,-2.272,-2.4943,-2.6325,-2.7963,-3.0581,-3.2062,-3.2387,-3.1038,-2.9344,-2.7569,-2.5786,-2.3992,-2.2928,-2.2928,-2.2928,-2.2928,-2.2928,-2.2886,-2.3584,-2.5202,-2.5618,-2.6588,-2.8472,-3.0392,-3.1545,-3.1846,-3.1917,-3.2691,-3.4285,-3.2855,-3.297,-3.4707,-3.4595,-3.4483,-3.4502,-3.4815,-3.4795,-3.4561,-3.4987,-3.5315,-3.5488,-3.5859,-3.3725,-3.031,-3.031,-2.8194,-2.5117,-2.509,-2.5277,-2.5585,-1.9305,-1.943,-1.943,-1.943,-1.943,-1.943,-1.943,-1.943,-1.943,-1.943,-1.943,-1.943,-1.943,-1.9573,-1.9826,-2.0107,-2.0681,-2.1042,-2.1109,-2.1109,-2.1109,-2.1109,-2.1109,-2.1109,-2.1109,-2.1109,-2.1109,-2.1109,-2.0815,-2.0521,-2.0167,-1.9933,-1.9639,-1.943,-1.943,-1.943,-1.943,-1.943,-1.9492,-1.9733,-2.0094,-2.0374,-2.0615,-2.0975,-2.1109,-2.1109,-2.1109,-2.1109,-2.1109,-2.1109,-2.1109,-2.1362,-2.2654,-2.2574,-2.2212,-2.314,-2.2879,-2.2301,-2.2284,-2.2271,-2.2392,-2.2699,-2.2899,-2.2966,-2.2726,-2.2672,-2.3621,-2.6846,-2.772,-2.896,-3.22,-3.3087,-3.2714,-3.1093,-2.9344,-2.7569,-2.5786,-2.3992,-2.2928,-2.2928,-2.2928,-2.2928,-2.2928,-2.3086,-2.3453,-2.4104,-2.4257,-2.5031,-2.68,-2.7664,-2.8633,-2.9799,-3.0407,-3.0784,-3.0909,-3.1954,-3.3181,-3.4707,-3.3535,-3.2991,-3.2942,-3.1861,-3.2209,-3.3537,-3.3629,-3.4527,-3.5898,-3.5976,-3.3725,-3.031,-3.031,-2.8258,-2.5384,-2.5157,-2.5411,-2.5838,-1.9305,-1.943,-1.943,-1.943,-1.943,-1.943,-1.943,-1.9982,-2.0429,-2.0429,-2.0429,-2.0429,-2.0429,-2.0082,-1.9973,-2.0401,-2.0855,-2.1109,-2.1109,-2.1109,-2.1109,-2.1109,-2.1109,-2.1109,-2.1109,-2.1109,-2.1109,-2.1109,-2.0815,-2.0601,-2.0441,-2.0,-1.972,-1.9573,-1.9484,-1.943,-1.943,-1.943,-1.9452,-1.9626,-2.0054,-2.0321,-2.0508,-2.0949,-2.1109,-2.1109,-2.1109,-2.1109,-2.1109,-2.1109,-2.1109,-2.1411,-2.3076,-2.3798,-2.3989,-2.3989,-2.4227,-2.4166,-2.2792,-2.2418,-2.2525,-2.2979,-2.3207,-2.3287,-2.3113,-2.3193,-2.4372,-2.7935,-2.8543,-2.9487,-3.3072,-3.3555,-3.3082,-3.2155,-3.0022,-2.8095,-2.7091,-2.4879,-2.337,-2.337,-2.337,-2.337,-2.337,-2.3447,-2.3947,-2.4989,-2.4375,-2.5157,-2.7834,-2.754,-2.7987,-2.9679,-3.1041,-3.1651,-3.1444,-3.3276,-3.4564,-3.5332,-3.4307,-3.4015,-3.4134,-3.3357,-3.3586,-3.4521,-3.4521,-3.5089,-3.6016,-3.6016,-3.3725,-3.031,-3.031,-2.8286,-2.5291,-2.5144,-2.5358,-2.5705,-1.9305,-1.943,-1.943,-1.943,-1.9591,-1.9751,-1.9751,-2.1031,-2.1983,-2.1983,-2.1983,-2.1983,-2.1983,-2.0973,-2.0501,-2.1047,-2.1061,-2.1109,-2.1109,-2.1109,-2.1109,-2.1109,-2.1109,-2.1109,-2.1109,-2.1109,-2.1109,-2.1109,-2.0869,-2.0722,-2.0668,-2.0174,-1.992,-1.9867,-1.9573,-1.9439,-1.9497,-1.9444,-1.9457,-1.9492,-2.0013,-2.0207,-2.0374,-2.0909,-2.1109,-2.1109,-2.1109,-2.1109,-2.1109,-2.1109,-2.1109,-2.1411,-2.3076,-2.4641,-2.5565,-2.4381,-2.5165,-2.5794,-2.3209,-2.2525,-2.2699,-2.3207,-2.3407,-2.3474,-2.3474,-2.3634,-2.4734,-2.8069,-2.8461,-2.9312,-3.2944,-3.3303,-3.2988,-3.2975,-3.0472,-2.8425,-2.8154,-2.5571,-2.3714,-2.3768,-2.3768,-2.3794,-2.3834,-2.3848,-2.4476,-2.5964,-2.4966,-2.561,-2.8687,-2.77,-2.7822,-2.9644,-3.1352,-3.235,-3.2645,-3.4552,-3.5519,-3.5519,-3.5529,-3.5684,-3.6016,-3.6016,-3.6016,-3.6016,-3.6016,-3.6016,-3.5947,-3.5655,-3.3448,-3.0239,-2.9955,-2.7903,-2.509,-2.513,-2.5277,-2.5411,-1.9305,-1.943,-1.943,-1.943,-2.0472,-2.1301,-2.1301,-2.2533,-2.3487,-2.3487,-2.3487,-2.3487,-2.3487,-2.2662,-2.2273,-2.2564,-2.1673,-2.1109,-2.1109,-2.1109,-2.1109,-2.1109,-2.1109,-2.1109,-2.1109,-2.1109,-2.1109,-2.1109,-2.1069,-2.0922,-2.0681,-2.0601,-2.0414,-2.016,-1.9867,-1.9746,-1.972,-1.9479,-1.9506,-1.9773,-2.0094,-2.0388,-2.0655,-2.0989,-2.1109,-2.1109,-2.1109,-2.1109,-2.1109,-2.1109,-2.1109,-2.1411,-2.3076,-2.3183,-2.2813,-2.4034,-2.3932,-2.3351,-2.2929,-2.2993,-2.322,-2.33,-2.3714,-2.4088,-2.4088,-2.3915,-2.4394,-2.6364,-2.6737,-2.7705,-3.0976,-3.1545,-3.14,-3.1166,-2.9509,-2.7814,-2.6512,-2.465,-2.3487,-2.3741,-2.3768,-2.3875,-2.4115,-2.4142,-2.4321,-2.4782,-2.463,-2.479,-2.529,-2.5111,-2.5719,-2.7398,-2.7972,-2.8917,-3.0335,-3.2505,-3.3586,-3.3586,-3.5169,-3.5957,-3.6016,-3.6016,-3.6016,-3.6016,-3.6016,-3.6016,-3.5879,-3.4227,-3.2316,-3.0168,-2.8485,-2.6763,-2.5104,-2.5358,-2.5317,-2.513,-1.9305,-1.943,-1.943,-1.943,-2.0644,-2.1586,-2.1586,-2.3599,-2.5096,-2.5096,-2.5096,-2.5096,-2.5096,-2.3371,-2.232,-2.2662,-2.1547,-2.0869,-2.0869,-2.1015,-2.1109,-2.1109,-2.1109,-2.1109,-2.1109,-2.1109,-2.1109,-2.1109,-2.1109,-2.1042,-2.0909,-2.0748,-2.0601,-2.0468,-2.0,-1.98,-1.9786,-1.9492,-1.9497,-1.9599,-2.0054,-2.0307,-2.0481,-2.0935,-2.1109,-2.1109,-2.1109,-2.1109,-2.1109,-2.1109,-2.1109,-2.1411,-2.3076,-2.3515,-2.3573,-2.4222,-2.4349,-2.4128,-2.3133,-2.3086,-2.3367,-2.3527,-2.3888,-2.4249,-2.4409,-2.4342,-2.4743,-2.6643,-2.6836,-2.7354,-2.9682,-2.9915,-2.9727,-2.9622,-2.8223,-2.7,-2.6504,-2.5058,-2.4102,-2.4235,-2.4249,-2.4302,-2.4436,-2.4596,-2.4743,-2.4877,-2.489,-2.489,-2.489,-2.473,-2.4924,-2.5634,-2.6852,-2.8351,-3.0078,-3.2158,-3.3743,-3.4727,-3.5587,-3.6016,-3.6016,-3.6016,-3.5451,-3.4521,-3.5519,-3.5382,-3.4402,-3.3684,-3.221,-3.0129,-2.8612,-2.6997,-2.5585,-2.5718,-2.5571,-2.5304]},{"header":{"parameterUnit":"m.s-1","parameterCategory":1,"la1":30.6,"la2":28.766,"lo1":-90.7593,"lo2":-88.6598,"dy":0.0162,"dx":0.0183,"nx":116,"ny":114,"refTime":"2023-10-26T18:00:00:Z","depth":0,"parameterNumber":3,"parameterNumberName":"V-component_of_WINDS"},"data":[0.0,0.0,0.0,0.0,0.0,0.0,0.0,0.0,0.0,0.0,0.0,0.0,0.0,0.0,0.0,0.0,0.0,0.0,0.0,0.0,0.0,0.0,0.0,0.0,0.0,0.0,0.0,0.0,0.0,0.0,0.0,0.0,0.0,0.0,0.0,0.0,0.0,0.0,0.0,0.0,0.0,0.0,0.0,0.0,0.0,0.0,0.0,0.0,0.0,0.0,0.0,0.0,0.0,0.0,0.0,0.0,0.0,0.0,0.0,0.0,0.0,0.0,0.0,0.0,0.0,0.0,0.0,0.0,0.0,0.0,0.0,0.0,0.0,0.0,0.0,0.0,0.0,0.0,0.0,0.0,0.0,0.0,0.0,0.0,0.0,0.0,0.0,0.0,0.0,0.0,0.0,0.0,0.0,0.0,0.0,0.0,0.0,0.0,0.0,0.0,0.0,0.0,0.0,0.0,0.0,0.0,0.0,0.0,0.0,0.0,0.0,0.0,0.0,0.0,0.0,0.0,0.0,0.0,0.0,0.0,0.0,0.0,0.0,0.0,0.0,0.0,0.0,0.0,0.0,0.0,0.0,0.0,0.0,0.0,0.0,0.0,0.0,0.0,0.0,0.0,0.0,0.0,0.0,0.0,0.0,0.0,0.0,0.0,0.0,0.0,0.0,0.0,0.0,0.0,0.0,0.0,0.0,0.0,0.0,0.0,0.0,0.0,0.0,0.0,0.0,0.0,0.0,0.0,0.0,0.0,0.0,0.0,0.0,0.0,0.0,0.0,0.0,0.0,0.0,0.0,0.0,0.0,0.0,0.0,0.0,0.0,0.0,0.0,0.0,0.0,0.0,0.0,0.0,0.0,0.0,0.0,0.0,0.0,0.0,0.0,0.0,0.0,0.0,0.0,0.0,0.0,0.0,0.0,0.0,0.0,0.0,0.0,0.0,0.0,0.0,0.0,0.0,0.0,0.0,0.0,0.0,0.0,0.0,0.0,0.0,0.0,0.0,0.0,0.0,0.0,0.0,0.0,0.0,0.0,0.0,0.0,0.0,0.0,0.0,0.0,0.0,0.0,0.0,0.0,0.0,0.0,0.0,0.0,0.0,0.0,0.0,0.0,0.0,0.0,0.0,0.0,0.0,0.0,0.0,0.0,0.0,0.0,0.0,0.0,0.0,0.0,0.0,0.0,0.0,0.0,0.0,0.0,0.0,0.0,0.0,0.0,0.0,0.0,0.0,0.0,0.0,0.0,0.0,0.0,0.0,0.0,0.0,0.0,0.0,0.0,0.0,0.0,0.0,0.0,0.0,0.0,0.0,0.0,0.0,0.0,0.0,0.0,0.0,0.0,0.0,0.0,0.0,0.0,0.0,0.0,0.0,0.0,0.0,0.0,0.0,0.0,0.0,0.0,0.0,0.0,0.0,0.0,0.0,0.0,0.0,0.0,0.0,0.0,0.0,0.0,0.0,0.0,0.0,0.0,0.0,0.0,0.0,0.0,0.0,0.0,0.0,0.0,0.0,0.0,0.0,0.0,0.0,0.0,0.0,0.0,0.0,0.0,0.0,0.0,0.0,0.0,0.0,0.0,0.0,0.0,0.0,0.0,0.0,0.0,0.0,0.0,0.0,0.0,0.0,0.0,0.0,0.0,0.0,0.0,0.0,0.0,0.0,0.0,0.0,0.0,0.0,0.0,0.0,0.0,0.0,0.0,0.0,0.0,0.0,0.0,0.0,0.0,0.0,0.0,0.0,0.0,0.0,0.0,0.0,0.0,0.0,0.0,0.0,0.0,0.0,0.0,0.0,0.0,0.0,0.0,0.0,0.0,0.0,0.0,0.0,0.0,0.0,0.0,0.0,0.0,0.0,0.0,0.0,0.0,0.0,0.0,0.0,0.0,0.0,0.0,0.0,0.0,0.0,0.0,0.0,0.0,0.0,0.0,0.0,0.0,0.0,0.0,0.0,0.0,0.0,0.0,0.0,0.0,0.0,0.0,0.0,0.0,0.0,0.0,0.0,0.0,0.0,0.0,0.0,0.0,0.0,0.0,0.0,0.0,0.0,0.0,0.0,0.0,0.0,0.0,0.0,0.0,0.0,0.0,0.0,0.0,0.0,0.0,0.0,0.0,0.0,0.0,0.0,0.0,0.0,0.0,0.0,0.0,0.0,0.0,0.0,0.0,0.0,0.0,0.0,0.0,0.0,0.0,0.0,0.0,0.0,0.0,0.0,0.0,0.0,0.0,0.0,0.0,0.0,0.0,0.0,0.0,0.0,0.0,0.0,0.0,0.0,0.0,0.0,0.0,0.0,0.0,0.0,0.0,0.0,0.0,0.0,0.0,0.0,0.0,0.0,0.0,0.0,0.0,0.0,0.0,0.0,0.0,0.0,0.0,0.0,0.0,0.0,0.0,0.0,0.0,0.0,0.0,0.0,0.0,0.0,0.0,0.0,0.0,0.0,0.0,0.0,0.0,0.0,0.0,0.0,0.0,0.0,0.0,0.0,0.0,0.0,0.0,0.0,0.0,0.0,0.0,0.0,0.0,0.0,0.0,0.0,0.0,0.0,0.0,0.0,0.0,0.0,0.0,0.0,0.0,0.0,0.0,0.0,0.0,0.0,0.0,0.0,0.0,0.0,0.0,0.0,0.0,0.0,0.0,0.0,0.0,0.0,0.0,0.0,0.0,0.0,0.0,0.0,0.0,0.0,0.0,0.0,0.0,0.0,0.0,0.0,0.0,0.0,0.0,0.0,0.0,0.0,0.0,0.0,0.0,0.0,0.0,0.0,0.0,0.0,0.0,0.0,0.0,0.0,0.0,0.0,0.0,0.0,0.0,0.0,0.0,0.0,0.0,0.0,0.0,0.0,0.0,0.0,0.0,0.0,0.0,0.0,0.0,0.0,0.0,0.0,0.0,0.0,0.0,0.0,0.0,0.0,0.0,0.0,0.0,0.0,0.0,0.0,0.0,0.0,0.0,0.0,0.0,0.0,0.0,0.0,0.0,0.0,0.0,0.0,0.0,0.0,0.0,0.0,0.0,0.0,0.0,0.0,0.0,0.0,0.0,0.0,0.0,0.0,0.0,0.0,0.0,0.0,0.0,0.0,0.0,0.0,0.0,0.0,0.0,0.0,0.0,0.0,0.0,0.0,0.0,0.0,0.0,0.0,0.0,0.0,0.0,0.0,0.0,0.0,0.0,0.0,0.0,0.0,0.0,0.0,0.0,0.0,0.0,0.0,0.0,0.0,0.0,0.0,0.0,0.0,0.0,0.0,0.0,0.0,0.0,0.0,0.0,0.0,0.0,0.0,0.0,0.0,0.0,0.0,0.0,0.0,0.0,0.0,0.0,0.0,0.0,0.0,0.0,0.0,0.0,0.0,0.0,0.0,0.0,0.0,0.0,0.0,0.0,0.0,0.0,0.0,0.0,0.0,0.0,0.0,0.0,0.0,0.0,0.0,0.0,0.0,0.0,0.0,0.0,0.0,0.0,0.0,0.0,0.0,0.0,0.0,0.0,0.0,0.0,0.0,0.0,0.0,0.0,0.0,0.0,0.0,0.0,0.0,0.0,0.0,0.0,0.0,0.0,0.0,0.0,0.0,0.0,0.0,0.0,0.0,0.0,0.0,0.0,0.0,0.0,0.0,0.0,0.0,0.0,0.0,0.0,0.0,0.0,0.0,0.0,0.0,0.0,0.0,0.0,0.0,0.0,0.0,0.0,0.0,0.0,0.0,0.0,0.0,0.0,0.0,0.0,0.0,0.0,0.0,0.0,0.0,0.0,0.0,0.0,0.0,0.0,0.0,0.0,0.0,0.0,0.0,0.0,0.0,0.0,0.0,0.0,0.0,0.0,0.0,0.0,0.0,0.0,0.0,0.0,0.0,0.0,0.0,0.0,0.0,0.0,0.0,0.0,0.0,0.0,0.0,0.0,0.0,0.0,0.0,0.0,0.0,0.0,0.0,0.0,0.0,0.0,0.0,0.0,0.0,0.0,0.0,0.0,0.0,0.0,0.0,0.0,0.0,0.0,0.0,0.0,0.0,0.0,0.0,0.0,0.0,0.0,0.0,0.0,0.0,0.0,0.0,0.0,0.0,0.0,0.0,0.0,0.0,0.0,0.0,0.0,0.0,0.0,0.0,0.0,0.0,0.0,0.0,0.0,0.0,0.0,0.0,0.0,0.0,0.0,0.0,0.0,0.0,0.0,0.0,0.0,0.0,0.0,0.0,0.0,0.0,0.0,0.0,0.0,0.0,0.0,0.0,0.0,0.0,0.0,0.0,0.0,0.0,0.0,0.0,0.0,0.0,0.0,0.0,0.0,0.0,0.0,0.0,0.0,0.0,0.0,0.0,0.0,0.0,0.0,0.0,0.0,0.0,0.0,0.0,0.0,0.0,0.0,0.0,0.0,0.0,0.0,0.0,0.0,0.0,0.0,0.0,0.0,0.0,0.0,0.0,0.0,0.0,0.0,0.0,0.0,0.0,0.0,0.0,0.0,0.0,0.0,0.0,0.0,0.0,0.0,0.0,0.0,0.0,0.0,0.0,0.0,0.0,0.0,0.0,0.0,0.0,0.0,0.0,0.0,0.0,0.0,0.0,0.0,0.0,0.0,0.0,0.0,0.0,0.0,0.0,0.0,0.0,0.0,0.0,0.0,0.0,0.0,0.0,0.0,0.0,0.0,0.0,0.0,0.0,0.0,0.0,0.0,0.0,0.0,0.0,0.0,0.0,0.0,0.0,0.0,0.0,0.0,0.0,0.0,0.0,0.0,0.0,0.0,0.0,0.0,0.0,0.0,0.0,0.0,0.0,0.0,0.0,0.0,0.0,0.0,0.0,0.0,0.0,0.0,0.0,0.0,0.0,0.0,0.0,0.0,0.0,0.0,0.0,0.0,0.0,0.0,0.0,0.0,0.0,0.0,0.0,0.0,0.0,0.0,0.0,0.0,0.0,0.0,0.0,0.0,0.0,0.0,0.0,0.0,0.0,0.0,0.0,0.0,0.0,0.0,0.0,0.0,0.0,0.0,0.0,0.0,0.0,0.0,0.0,0.0,0.0,0.0,0.0,0.0,0.0,0.0,0.0,0.0,0.0,0.0,0.0,0.0,0.0,0.0,0.0,0.0,0.0,0.0,0.0,0.0,0.0,0.0,0.0,0.0,0.0,0.0,0.0,0.0,0.0,0.0,0.0,0.0,0.0,0.0,0.0,0.0,0.0,0.0,0.0,0.0,0.0,0.0,0.0,0.0,0.0,0.0,0.0,0.0,0.0,0.0,0.0,0.0,0.0,0.0,0.0,0.0,0.0,0.0,0.0,0.0,0.0,0.0,0.0,0.0,0.0,0.0,0.0,0.0,0.0,0.0,0.0,0.0,0.0,0.0,0.0,0.0,0.0,0.0,0.0,0.0,0.0,0.0,0.0,0.0,0.0,0.0,0.0,0.0,0.0,0.0,0.0,0.0,0.0,0.0,0.0,0.0,0.0,0.0,0.0,0.0,0.0,0.0,0.0,0.0,0.0,0.0,0.0,0.0,0.0,0.0,0.0,0.0,0.0,0.0,0.0,0.0,0.0,0.0,0.0,0.0,0.0,0.0,0.0,0.0,0.0,0.0,0.0,0.0,0.0,0.0,0.0,0.0,0.0,0.0,0.0,0.0,0.0,0.0,0.0,0.0,0.0,0.0,0.0,0.0,0.0,0.0,0.0,0.0,0.0,0.0,0.0,0.0,0.0,0.0,0.0,0.0,0.0,0.0,0.0,0.0,0.0,0.0,0.0,0.0,0.0,0.0,0.0,0.0,0.0,0.0,0.0,0.0,0.0,0.0,0.0,0.0,0.0,0.0,0.0,0.0,0.0,0.0,0.0,0.0,0.0,0.0,0.0,0.0,0.0,0.0,0.0,0.0,0.0,0.0,0.0,0.0,0.0,0.0,0.0,0.0,0.0,0.0,0.0,0.0,0.0,0.0,0.0,0.0,0.0,0.0,0.0,0.0,0.0,0.0,0.0,0.0,0.0,0.0,0.0,0.0,0.0,0.0,0.0,0.0,0.0,0.0,0.0,0.0,0.0,0.0,0.0,0.0,0.0,0.0,0.0,0.0,0.0,0.0,4.8331,4.7654,0.0,0.0,0.0,0.0,0.0,0.0,0.0,0.0,0.0,0.0,0.0,0.0,0.0,0.0,0.0,0.0,0.0,0.0,0.0,0.0,0.0,0.0,0.0,0.0,0.0,0.0,0.0,0.0,0.0,0.0,0.0,0.0,0.0,0.0,0.0,0.0,0.0,4.4865,4.5513,4.5516,4.4807,4.2831,4.035,3.7434,0.0,0.0,0.0,0.0,0.0,0.0,0.0,0.0,0.0,0.0,0.0,0.0,0.0,0.0,0.0,0.0,0.0,0.0,0.0,0.0,0.0,0.0,0.0,0.0,0.0,0.0,0.0,0.0,0.0,0.0,0.0,0.0,0.0,0.0,0.0,0.0,0.0,0.0,0.0,0.0,0.0,0.0,0.0,0.0,0.0,0.0,0.0,0.0,0.0,0.0,0.0,0.0,0.0,0.0,0.0,0.0,0.0,0.0,0.0,0.0,0.0,0.0,0.0,0.0,0.0,0.0,0.0,0.0,0.0,0.0,5.1898,4.9967,0.0,0.0,0.0,0.0,0.0,0.0,0.0,0.0,0.0,0.0,0.0,0.0,0.0,0.0,0.0,0.0,0.0,0.0,0.0,0.0,0.0,0.0,0.0,4.0637,4.1679,4.3263,4.3211,4.3513,0.0,0.0,0.0,0.0,0.0,0.0,4.6369,4.6977,4.7469,4.7874,4.9329,4.9489,4.832,4.7947,4.5842,4.2189,3.9437,0.0,0.0,0.0,0.0,0.0,0.0,0.0,0.0,0.0,0.0,0.0,0.0,0.0,0.0,0.0,0.0,0.0,0.0,0.0,0.0,0.0,0.0,0.0,0.0,0.0,0.0,0.0,0.0,0.0,0.0,0.0,0.0,0.0,0.0,0.0,0.0,0.0,0.0,0.0,0.0,0.0,0.0,0.0,0.0,0.0,0.0,0.0,0.0,0.0,0.0,0.0,0.0,0.0,0.0,0.0,0.0,0.0,0.0,0.0,0.0,0.0,0.0,0.0,6.1986,6.2379,6.2815,6.1914,6.1468,6.1122,5.6144,5.3442,5.257,5.2268,0.0,0.0,0.0,0.0,0.0,0.0,0.0,0.0,0.0,0.0,0.0,0.0,0.0,0.0,0.0,0.0,0.0,0.0,0.0,4.1912,4.255,4.3214,4.4191,4.5636,4.5709,4.6022,4.6716,0.0,0.0,0.0,0.0,0.0,4.7105,4.7233,4.8178,5.007,5.1788,5.2181,5.1329,5.1967,5.1285,4.9267,4.3558,4.076,4.0161,0.0,0.0,0.0,0.0,0.0,0.0,0.0,0.0,0.0,0.0,0.0,0.0,0.0,0.0,0.0,0.0,0.0,0.0,0.0,0.0,0.0,0.0,0.0,0.0,0.0,0.0,0.0,0.0,0.0,0.0,0.0,0.0,0.0,0.0,0.0,0.0,0.0,0.0,0.0,0.0,0.0,4.9369,5.0197,0.0,0.0,0.0,0.0,0.0,0.0,0.0,0.0,0.0,0.0,0.0,0.0,0.0,6.0691,6.2089,6.4403,6.5613,6.576,6.7149,6.7479,6.6857,6.5357,6.4667,6.4469,6.2328,0.0,5.9201,5.7802,0.0,0.0,0.0,0.0,0.0,0.0,0.0,0.0,0.0,0.0,0.0,0.0,0.0,0.0,0.0,0.0,0.0,0.0,0.0,0.0,0.0,4.4398,4.5732,4.6882,4.7233,4.7782,4.8707,4.7331,0.0,0.0,4.7067,4.7406,4.8861,4.9724,5.1447,5.4118,5.4864,5.5324,5.5444,5.5792,5.506,5.3306,5.0196,4.7324,4.4649,4.2016,0.0,0.0,0.0,0.0,0.0,0.0,0.0,0.0,0.0,0.0,0.0,0.0,0.0,0.0,0.0,0.0,0.0,0.0,0.0,0.0,0.0,0.0,0.0,0.0,0.0,0.0,0.0,0.0,0.0,0.0,0.0,0.0,0.0,0.0,0.0,0.0,0.0,0.0,0.0,5.0119,5.1259,5.1685,5.1817,5.1831,0.0,0.0,0.0,0.0,0.0,0.0,0.0,0.0,0.0,5.9586,6.1507,6.2871,6.3564,6.5537,6.6733,6.7173,6.8348,6.8715,6.8348,6.765,6.7048,6.6554,6.5861,6.5185,6.4367,6.1408,5.9733,5.8946,0.0,0.0,0.0,0.0,5.6599,5.6253,0.0,0.0,0.0,0.0,0.0,0.0,0.0,0.0,0.0,0.0,0.0,0.0,4.4797,4.6049,4.7348,4.8637,4.8913,4.9472,5.0474,4.9187,4.8712,4.9408,4.9183,4.9619,5.0922,5.2654,5.4748,5.7234,5.7402,5.7858,5.8474,5.8688,5.7912,5.6368,5.5884,5.3098,4.8577,4.5843,4.445,4.3899,0.0,0.0,0.0,0.0,0.0,0.0,0.0,0.0,0.0,0.0,0.0,0.0,0.0,0.0,0.0,0.0,0.0,0.0,0.0,0.0,0.0,0.0,0.0,0.0,0.0,0.0,0.0,0.0,0.0,0.0,0.0,0.0,0.0,0.0,0.0,0.0,0.0,5.2316,5.3524,5.356,5.4351,5.4559,0.0,0.0,0.0,0.0,0.0,0.0,5.9565,6.0449,6.1514,6.2903,6.4297,6.5118,6.5338,6.6512,6.7504,6.8311,6.8935,6.9229,6.9192,6.8788,6.8274,6.7687,6.7467,6.7283,6.6836,6.3841,6.2289,6.1745,6.1321,6.082,6.0325,6.0927,6.0784,6.0361,0.0,0.0,0.0,0.0,0.0,0.0,0.0,0.0,0.0,0.0,0.0,4.6491,4.9334,4.9058,4.9536,5.1706,5.1297,5.1256,5.1946,5.1322,5.0937,5.0963,5.1706,5.2457,5.3207,5.5499,5.7123,5.8041,5.8725,5.9126,5.9258,5.9962,5.9867,5.9097,5.9062,5.6164,5.1197,4.9795,4.8381,4.6925,4.5138,0.0,0.0,0.0,0.0,0.0,0.0,0.0,0.0,0.0,0.0,0.0,0.0,0.0,0.0,0.0,0.0,0.0,0.0,0.0,0.0,0.0,0.0,0.0,0.0,0.0,0.0,0.0,0.0,0.0,0.0,0.0,0.0,0.0,0.0,0.0,0.0,0.0,0.0,5.6676,5.8125,0.0,0.0,0.0,0.0,5.895,5.9121,6.0534,6.3658,6.4589,6.5396,6.6239,6.71,6.7871,6.8641,6.8752,6.9192,6.9963,7.0,7.0036,7.0,6.8458,6.7724,6.765,6.688,6.6145,6.5385,6.5186,6.5087,6.4904,6.3328,6.2668,6.2631,6.2668,6.2668,6.2631,0.0,0.0,0.0,0.0,0.0,0.0,0.0,0.0,4.4978,4.6681,4.7544,4.8627,5.0223,5.1239,5.1946,5.2485,5.2746,5.284,5.2813,5.2112,5.1741,5.1741,5.209,5.3258,5.5377,5.6983,5.8422,5.9711,6.0513,6.1034,6.1232,6.208,6.2135,6.1559,6.1559,6.0229,5.7808,5.4328,5.2535,5.1828,4.9079,4.6945,0.0,0.0,0.0,0.0,0.0,0.0,0.0,0.0,0.0,0.0,0.0,0.0,0.0,0.0,0.0,0.0,0.0,0.0,0.0,0.0,0.0,0.0,0.0,0.0,0.0,0.0,0.0,0.0,0.0,0.0,0.0,0.0,0.0,0.0,0.0,0.0,0.0,5.9852,6.0913,0.0,6.1288,6.0564,6.0808,6.2556,6.2835,6.3894,6.6023,6.6084,6.6439,6.7247,6.754,6.7834,6.8128,6.8128,6.8274,6.8531,6.8531,6.8274,6.776,6.7173,6.6659,6.6145,6.5852,6.5595,6.5338,6.5852,6.6072,6.6072,6.5962,6.5632,6.5191,6.5191,6.4861,6.442,0.0,0.0,0.0,0.0,0.0,0.0,0.0,4.4341,4.5815,4.7773,4.877,4.9819,5.114,5.2493,5.3363,5.3365,5.3776,5.3943,5.368,5.3046,5.2799,5.3054,5.371,5.4994,5.7019,5.8104,5.9309,6.0599,6.1182,6.1845,6.2579,6.314,6.346,6.346,6.346,6.3411,6.3089,5.9419,5.7279,5.6073,5.3323,5.146,5.0059,0.0,0.0,0.0,0.0,0.0,0.0,0.0,0.0,0.0,0.0,0.0,0.0,0.0,0.0,0.0,0.0,0.0,0.0,0.0,0.0,0.0,0.0,0.0,0.0,0.0,0.0,0.0,0.0,0.0,0.0,0.0,0.0,0.0,0.0,5.8813,6.0943,6.2349,6.3547,6.4336,6.4465,6.415,6.4336,6.5382,6.5608,6.6467,6.8161,6.7915,6.7944,6.8495,6.8495,6.8238,6.7714,6.7687,6.754,6.7283,6.7577,6.7136,6.6109,6.6109,6.5668,6.4897,6.4897,6.4751,6.4567,6.5632,6.6109,6.6219,6.7283,6.7357,6.688,6.6586,6.6145,6.5668,0.0,0.0,0.0,0.0,0.0,0.0,4.3113,4.394,4.5442,4.8271,4.9021,5.0157,5.2398,5.3031,5.3625,5.4425,5.45,5.45,5.4468,5.4066,5.4187,5.4988,5.6628,5.7679,5.8127,5.9008,5.9839,6.0597,6.0634,6.1464,6.3087,6.3125,6.3741,6.486,6.486,6.5504,6.6539,6.4967,6.258,5.9692,5.791,5.6632,5.5417,0.0,0.0,0.0,0.0,0.0,0.0,0.0,0.0,0.0,0.0,0.0,0.0,0.0,0.0,0.0,0.0,0.0,0.0,0.0,0.0,0.0,0.0,0.0,0.0,0.0,0.0,0.0,0.0,0.0,0.0,0.0,0.0,0.0,5.845,6.0884,6.3088,6.4129,6.6097,6.7067,6.6306,6.6695,6.7115,6.7336,6.7342,6.8136,6.9972,7.0027,7.0036,7.0036,7.0036,6.9265,6.7724,6.7714,6.731,6.6549,6.731,6.6833,6.5301,6.5264,6.4824,6.4053,6.4053,6.3576,6.2927,6.4604,6.5264,6.5411,6.7026,6.765,6.7577,6.6769,6.6439,6.6256,0.0,0.0,0.0,0.0,0.0,0.0,4.3664,4.46,4.6163,4.9268,5.0569,5.1779,5.3314,5.4384,5.4982,5.4947,5.4919,5.4686,5.4031,5.4187,5.4681,5.5454,5.6841,5.7878,5.8593,5.9797,6.0506,6.0761,6.1387,6.2037,6.2759,6.3346,6.455,6.6264,6.6264,6.7459,6.9431,6.8998,6.8453,6.7458,6.3105,6.0534,5.9077,0.0,0.0,0.0,0.0,0.0,0.0,0.0,0.0,0.0,0.0,0.0,0.0,0.0,0.0,0.0,0.0,0.0,0.0,0.0,0.0,0.0,0.0,0.0,0.0,0.0,0.0,0.0,0.0,0.0,0.0,0.0,6.0679,6.2631,6.2698,6.4425,6.6249,6.7707,6.8398,6.8897,6.9273,6.9247,6.9076,6.8751,6.8746,6.8825,6.894,6.8568,6.8348,6.8348,6.8348,6.8128,6.7687,6.8097,6.7961,6.7383,6.7395,6.6667,6.5301,6.4714,6.3943,6.3172,6.3172,6.3025,6.2853,6.398,6.442,6.4604,6.6182,6.6843,6.6733,6.5925,6.4861,6.3796,0.0,0.0,0.0,0.0,0.0,0.0,4.3092,4.4198,4.5631,4.7905,5.0124,5.168,5.2209,5.3683,5.4562,5.4341,5.4635,5.4613,5.4125,5.4814,5.5489,5.5959,5.7358,5.8418,5.9063,6.0224,6.0781,6.0781,6.132,6.1837,6.2393,6.3197,6.4657,6.6614,6.6973,6.8414,7.0558,7.0558,7.0858,7.0995,6.766,6.5222,6.3274,6.0599,5.9421,5.8811,5.5973,5.5958,5.685,5.3619,0.0,0.0,0.0,0.0,0.0,0.0,0.0,0.0,0.0,0.0,0.0,0.0,0.0,0.0,0.0,0.0,0.0,0.0,0.0,0.0,0.0,0.0,0.0,0.0,6.3769,6.5909,6.6973,6.7455,6.8206,6.9635,6.97,6.9929,7.0744,7.0591,7.0112,6.9373,6.9313,6.9106,6.8704,6.8341,6.8201,6.8201,6.8201,6.8017,6.7687,6.7664,6.7368,6.6696,6.6555,6.5681,6.4273,6.4163,6.3613,6.278,6.278,6.278,6.2842,6.3356,6.3759,6.4237,0.0,0.0,0.0,0.0,6.3943,6.278,0.0,0.0,0.0,0.0,0.0,0.0,4.185,4.3138,4.4385,4.5462,4.8401,5.0255,4.9949,5.1683,5.2843,5.2811,5.3748,5.4434,5.4626,5.5593,5.6265,5.6446,5.8037,5.905,5.95,6.0358,6.0781,6.0781,6.0781,6.1243,6.2139,6.2935,6.437,6.6275,6.7169,6.8648,7.0531,7.0455,7.0866,7.153,7.0868,6.9495,6.7461,6.3852,6.3314,6.414,6.1996,6.1752,6.2047,5.9532,0.0,0.0,0.0,0.0,0.0,0.0,0.0,0.0,0.0,0.0,0.0,0.0,0.0,0.0,0.0,0.0,0.0,0.0,0.0,0.0,0.0,0.0,0.0,0.0,6.6812,6.8633,7.0626,6.9827,6.94,7.0306,7.0208,7.0298,7.0937,7.0846,7.0317,6.9292,6.9272,6.914,6.8796,6.8752,0.0,0.0,0.0,6.8274,6.7577,6.6812,6.6114,6.5448,6.5415,6.457,6.311,6.3796,6.3613,6.278,6.278,6.278,6.278,6.278,6.3282,6.4016,6.4861,6.5154,6.5081,6.4237,6.3466,6.278,0.0,0.0,0.0,0.0,0.0,0.0,4.1036,4.1988,4.3324,4.5407,4.6815,4.7926,4.8634,4.991,5.0567,5.0341,5.2235,5.4049,5.5395,5.5376,5.5811,5.6844,5.8457,5.9403,5.9511,6.0358,6.0781,6.0781,6.0781,6.1243,6.2139,6.2935,6.4283,6.6024,6.683,6.8555,7.0784,7.0133,7.023,7.0671,6.921,6.8885,6.9147,6.7971,6.7268,6.6773,6.5026,6.5274,6.5848,6.2317,6.1734,6.204,5.9234,5.7306,0.0,0.0,0.0,0.0,0.0,0.0,0.0,0.0,0.0,0.0,0.0,0.0,0.0,0.0,0.0,0.0,0.0,0.0,0.0,6.5918,6.7956,6.9676,7.0731,7.0689,7.0335,6.9902,6.9822,6.9658,6.9311,6.9672,6.9594,6.8698,6.9042,6.8878,6.7988,6.7907,6.7907,6.7907,6.7283,6.688,6.6733,6.6371,6.6223,6.6256,6.6062,0.0,6.4824,6.431,6.3613,6.278,6.278,6.278,6.278,6.278,6.2915,6.3135,6.4016,6.431,6.4237,6.3392,6.2952,6.278,0.0,0.0,0.0,0.0,0.0,0.0,3.9216,4.0645,4.1927,4.2879,4.466,4.5974,4.6227,4.7377,4.8084,4.7912,5.019,5.2548,5.4656,5.5181,5.6057,5.7588,5.8858,5.9704,6.0127,6.0589,6.0781,6.0781,6.0781,6.1012,6.1485,6.232,6.3628,6.5282,6.6128,6.7667,6.9629,6.9206,6.9069,6.9018,6.7883,6.7647,6.7905,6.7731,6.7944,6.8211,6.7404,6.7818,6.8386,6.5692,6.5481,6.5862,6.2759,6.1207,6.0096,0.0,0.0,0.0,0.0,0.0,0.0,0.0,0.0,0.0,0.0,0.0,0.0,0.0,0.0,6.0017,6.15,0.0,6.6246,6.8369,6.961,7.0591,7.1437,7.1168,7.0591,6.9821,6.9706,6.9393,6.867,6.8616,6.8536,6.8281,6.8291,6.8111,6.7731,6.7687,6.7504,6.71,6.6696,6.6329,6.5888,6.5361,6.5177,6.5264,6.4734,6.4328,6.4053,6.3649,6.3209,6.278,6.278,6.278,6.2817,6.3282,6.3209,6.289,6.3759,6.3833,6.3392,6.2989,6.278,6.278,0.0,0.0,0.0,0.0,0.0,0.0,0.0,3.8874,4.006,3.9966,4.2092,4.3509,4.321,4.4412,4.5514,4.6125,4.8115,5.0558,5.3468,5.4791,5.6319,5.8204,5.9088,5.9896,6.0781,6.0781,6.0781,6.0781,6.0781,6.0781,6.0819,6.1858,6.3051,6.4397,6.5436,6.6744,6.8129,6.7975,6.765,6.7178,6.6579,6.6062,6.5733,6.5973,6.7026,6.8458,6.8605,6.8862,6.8972,6.7834,6.7797,6.7826,6.5512,6.4662,6.4005,6.0954,6.0873,0.0,0.0,0.0,0.0,0.0,0.0,0.0,0.0,5.9116,5.9344,6.0001,6.1379,6.2917,6.4421,6.6203,6.8202,7.05,7.0898,7.1091,7.1629,7.1245,7.0552,6.9552,6.9436,6.9129,6.8244,6.775,6.7571,6.7767,6.7428,6.729,6.7447,6.732,6.699,6.6512,6.6182,6.5705,6.5081,6.4273,6.3906,6.409,6.3392,6.3062,6.3062,6.3062,6.2989,6.278,6.278,6.2915,6.3099,6.3613,6.3539,6.3099,6.3649,6.3429,6.278,6.278,6.278,6.278,0.0,0.0,0.0,0.0,0.0,0.0,0.0,0.0,3.7367,3.8632,3.9075,3.9471,3.9973,4.1042,4.2953,4.5935,4.6457,4.8404,5.2552,5.3958,5.5742,5.8204,5.9088,5.9896,6.0781,6.0781,6.0781,6.0781,6.0781,6.0781,6.0819,6.2435,6.3281,6.3512,6.5166,6.6397,6.7205,6.6474,6.6032,6.5748,6.4974,6.4519,6.4326,6.4361,6.5375,6.6843,6.7577,6.6953,6.5925,6.6439,6.6219,6.5899,6.6946,6.6809,6.5723,6.3245,6.2095,6.0905,5.765,5.7799,5.9557,6.219,6.216,6.2579,0.0,6.6232,6.4992,6.5706,6.603,6.6407,6.7076,6.7992,6.9107,7.0651,7.0898,7.0667,7.0052,7.0514,7.0321,6.8744,6.8552,6.8205,6.7321,6.7179,6.7087,6.6938,6.6876,6.679,6.6665,6.5962,6.5852,6.6476,6.5118,6.431,6.4237,6.3392,6.3319,6.409,6.398,6.3943,6.3943,6.3943,6.3539,6.278,6.278,6.3246,6.3906,6.3209,6.3356,6.387,6.3209,6.289,6.278,6.278,6.278,6.278,0.0,0.0,0.0,0.0,0.0,0.0,0.0,0.0,3.5921,3.6532,3.7479,3.8256,3.8494,3.9639,4.1263,4.3499,4.4601,4.6643,5.013,5.2311,5.4445,5.6692,5.8511,5.9665,6.005,6.055,6.0781,6.0781,6.0781,6.105,6.1562,6.2281,6.2858,6.3346,6.4589,6.532,6.5667,6.582,6.5505,6.4879,6.4539,6.3691,6.2658,6.2658,6.2768,6.3135,6.4383,6.442,0.0,6.3686,6.4053,6.4714,6.5375,6.5375,6.4699,6.272,6.2567,6.283,6.1776,6.1552,6.2006,6.3661,6.4444,6.52,6.6747,6.6709,6.6427,6.6745,6.7537,6.8145,6.7865,6.8129,6.8581,6.9175,6.9285,6.9171,6.8828,6.9459,6.9327,6.7652,6.7461,6.7369,6.7128,6.6139,6.569,6.6087,6.5807,6.5657,6.5794,6.5485,6.5228,6.5118,6.4457,6.387,6.3356,6.2989,6.2989,6.3356,6.3356,6.3356,6.3356,6.3356,6.3135,6.278,6.278,6.3025,6.3356,6.3503,6.3466,6.3356,6.3503,6.3246,6.278,6.278,6.278,6.278,0.0,0.0,0.0,0.0,0.0,0.0,0.0,0.0,0.0,0.0,3.573,3.6537,3.7021,3.82,3.9465,4.0876,4.2625,4.4674,4.7165,5.0018,5.2551,5.4702,5.7057,5.851,5.8959,5.9938,6.0435,6.0435,6.0666,6.1127,6.1755,6.1985,6.2397,6.3012,6.3858,6.4243,6.4269,6.5025,6.4825,6.403,6.3897,6.2929,6.1557,6.1117,6.0323,5.9627,6.1017,6.1382,6.1065,6.0293,6.0825,6.1969,6.2599,6.2943,6.2896,6.1618,6.1899,6.2788,6.3733,6.39,6.4027,6.5046,6.6666,6.784,6.7315,6.7789,6.8299,6.8015,6.8871,6.9397,6.8612,6.8521,6.8508,6.8445,6.8427,6.8276,6.7785,6.8465,6.8332,6.6671,6.6139,6.6144,6.6651,6.5293,6.4577,6.5003,6.4705,6.4601,6.496,6.4751,6.4457,6.409,6.387,6.3429,6.278,6.278,6.278,6.278,6.278,6.278,6.278,6.278,6.278,6.278,6.278,6.2952,6.3209,6.3833,6.387,6.3551,6.4163,6.4053,6.3477,6.3477,6.3209,6.278,0.0,0.0,0.0,0.0,0.0,0.0,0.0,0.0,0.0,0.0,0.0,3.3413,3.5093,3.6136,3.7257,3.8591,4.051,4.2294,4.3765,4.6984,4.9936,5.2381,5.4258,5.6,5.7614,5.8896,5.955,5.955,6.0396,6.0819,6.0858,6.1716,6.2101,6.2178,6.2974,6.3346,6.3372,6.37,6.3584,6.3107,6.2653,6.2108,6.141,5.9869,5.8373,5.7185,5.8017,5.7836,5.7072,5.6303,5.6118,5.655,5.8834,6.0069,6.0673,6.0469,5.9693,5.9336,6.1431,6.2909,6.4489,6.6962,6.9206,7.0834,7.1061,7.1797,7.2111,7.0985,7.0796,7.0597,6.9802,6.9653,6.9579,6.9286,6.9275,6.8709,6.7086,6.7597,6.7503,6.5823,6.4541,6.4287,6.5521,6.4898,6.4215,6.3696,6.3668,6.3771,6.4141,6.3356,6.3246,6.4053,6.3282,6.2817,6.278,6.278,6.278,6.278,6.278,6.278,6.278,6.278,6.278,6.278,6.278,6.3282,6.4053,6.409,6.453,6.5228,6.5264,6.5264,6.5228,6.5228,6.42,6.278,0.0,0.0,0.0,0.0,0.0,0.0,0.0,0.0,0.0,0.0,0.0,0.0,0.0,0.0,0.0,0.0,3.7434,3.9228,4.0508,4.352,4.5801,4.6961,4.9545,5.1241,5.1974,5.429,5.5802,5.6387,5.8197,5.9368,5.9939,6.0776,6.1156,6.1232,6.2031,6.2053,6.1635,6.2248,6.2578,6.2562,6.1873,6.1293,6.0628,5.9076,5.7529,5.6057,0.0,5.415,5.3823,5.3584,5.3504,5.3735,5.5071,5.6005,5.6865,5.8128,5.8983,6.0224,6.3272,6.5661,6.7821,7.0109,7.1337,7.1935,7.1693,7.1949,7.1925,7.0613,6.9948,6.9321,6.8535,6.7059,6.6137,6.6579,6.664,6.6455,6.5899,6.6974,6.7011,6.486,6.4694,6.4474,6.3799,6.3345,6.321,6.3556,6.3609,6.3511,6.3234,6.2989,6.2952,6.3246,6.2438,6.1998,6.1998,6.1998,6.1998,6.1998,6.2548,6.278,6.278,6.278,6.278,6.278,6.278,6.2989,6.3246,6.3246,6.3392,6.3723,6.4273,6.4494,6.4567,6.5118,6.4934,6.4383,0.0,0.0,0.0,0.0,0.0,0.0,0.0,0.0,0.0,0.0,0.0,0.0,0.0,0.0,0.0,0.0,0.0,3.6285,3.7094,3.9682,4.1451,4.2078,4.462,4.6161,4.6587,4.9227,5.0978,5.1781,5.4141,5.59,5.7023,5.7768,5.8408,5.9024,5.9551,5.9475,5.9044,5.9703,5.9942,5.9811,5.8869,5.8445,5.8185,5.6315,5.5033,0.0,5.2171,5.135,5.113,5.113,5.113,5.1228,5.2024,5.3129,5.4542,5.6699,5.8484,6.0585,6.4039,6.6849,6.9214,7.0991,7.203,7.2394,7.1675,7.1855,7.1775,7.0386,6.9245,6.8219,6.744,6.5301,6.3832,6.4332,6.442,6.453,6.4824,6.5485,6.5485,6.4237,6.4016,6.3686,6.2853,6.2382,6.2464,6.3257,6.359,6.3501,6.2842,6.278,6.278,6.278,6.2034,6.1594,6.1594,6.1594,6.1741,6.2034,6.2548,6.278,6.278,6.278,6.278,6.278,6.278,6.278,6.2817,6.3135,6.3282,6.3392,6.4494,6.4934,6.5007,6.5558,6.5558,6.5191,0.0,0.0,0.0,0.0,0.0,0.0,0.0,0.0,0.0,0.0,0.0,0.0,0.0,0.0,0.0,0.0,0.0,0.0,3.3675,3.5629,3.7157,3.7873,3.9617,4.0939,4.171,4.3869,4.5361,4.6024,4.8529,5.0558,5.2118,5.2821,5.4012,5.5544,5.5544,5.5544,5.5618,5.5991,5.5819,5.5158,5.3947,5.3931,5.4366,5.2085,5.1216,5.1159,5.0345,4.9644,4.9046,4.9052,4.9117,4.9301,5.0028,5.1688,5.3849,5.631,5.8216,6.0253,6.36,6.6384,6.8608,6.972,7.1242,7.2206,7.1168,7.1529,7.1675,7.0275,6.8677,6.7324,6.6479,6.4394,6.2867,6.2851,6.2915,6.3246,6.409,6.3503,6.3282,6.4016,6.2695,6.1998,6.2732,6.2144,6.2034,6.2743,6.3576,6.3686,6.2842,6.2768,6.2768,6.278,6.1924,6.152,6.1594,6.1594,6.1998,6.278,6.278,6.278,6.278,6.278,6.278,6.278,6.278,6.278,6.2853,6.3686,6.4016,6.42,6.5742,6.6366,6.6366,6.6402,6.5962,6.5191,0.0,0.0,0.0,0.0,0.0,0.0,0.0,0.0,0.0,0.0,0.0,0.0,0.0,0.0,0.0,0.0,0.0,0.0,3.1884,3.348,3.4323,3.4043,3.5432,3.6378,3.6725,3.8811,4.0314,4.1111,4.3846,4.5781,4.7009,4.8157,4.9372,5.0549,5.0549,5.092,5.151,5.1615,5.2287,5.3151,5.2232,5.2358,5.2919,5.1731,5.0913,5.0436,5.0795,5.0408,4.9732,4.9811,5.0571,5.1765,5.3043,5.3803,5.4687,5.6769,5.8558,6.0435,6.29,6.5369,6.7516,6.8432,6.9594,7.0444,7.0158,7.0397,7.021,6.8622,6.7002,6.5484,6.4002,6.2753,6.2336,6.3551,6.4273,6.4971,6.5778,6.5705,6.5191,6.42,6.3723,6.3282,6.2842,6.3209,6.3282,6.2817,6.3025,6.3025,6.278,6.2218,6.2181,6.278,6.0835,6.0382,6.1594,6.1594,6.1998,6.278,6.278,6.278,6.278,6.278,6.278,6.278,6.278,6.278,6.2817,6.3062,6.3135,6.3246,6.431,6.4714,6.4787,6.5375,6.5485,6.5191,0.0,0.0,0.0,0.0,0.0,0.0,0.0,0.0,0.0,0.0,0.0,0.0,0.0,0.0,0.0,0.0,0.0,0.0,0.0,3.1435,3.1761,3.1405,3.2091,3.2525,3.2682,3.4433,3.5629,3.6192,3.872,4.0507,4.1562,4.2641,4.4042,4.5711,4.5711,4.6368,4.7518,4.7898,4.8584,0.0,0.0,4.9478,5.0397,4.9602,4.9639,5.0184,5.0985,5.1818,5.2663,5.3404,5.3538,5.3613,5.4758,5.5121,5.5535,5.7439,5.8442,5.9334,6.1091,6.2891,6.4507,6.5459,6.6402,6.7159,6.7259,6.7672,6.754,6.5888,6.426,6.2913,6.1948,6.0822,6.0576,6.2205,6.3135,6.42,6.5778,6.5338,6.4824,6.464,6.398,6.3356,6.2879,6.3246,6.3319,6.2842,6.3172,6.3062,6.2328,6.1851,6.163,6.1741,6.0456,6.0346,6.1594,6.1594,6.1998,6.278,6.278,6.278,6.278,6.278,6.278,6.278,6.278,6.278,6.278,6.278,6.278,6.289,6.3759,6.431,6.4677,6.5154,6.5521,6.5705,0.0,0.0,0.0,0.0,0.0,0.0,0.0,0.0,0.0,0.0,0.0,0.0,0.0,0.0,0.0,0.0,0.0,0.0,0.0,0.0,2.9804,2.9804,2.9804,2.9702,2.9585,3.0997,3.1665,3.1653,3.3754,3.5328,3.6374,3.7008,3.8677,4.1117,4.1117,4.2005,4.3619,4.449,4.4934,4.5092,4.5412,4.638,4.7534,0.0,4.8206,5.0057,5.106,5.3218,5.5881,5.749,5.6884,5.5606,5.6335,5.6573,5.6843,5.8215,5.8164,5.7895,5.8872,5.9854,6.0762,6.1823,6.2764,6.346,6.3602,6.4234,6.437,6.2691,6.1267,6.0284,6.0115,5.9076,5.8754,6.0286,6.1227,6.2585,6.4971,6.398,6.3503,6.4971,6.3759,6.278,6.278,6.278,6.278,6.278,6.3392,6.3135,6.1667,6.141,6.097,6.0272,6.0456,6.0896,6.1594,6.1704,6.2108,6.278,6.278,6.2755,6.2618,6.2618,6.2567,6.249,6.2592,6.264,6.2636,6.2877,6.295,6.302,6.3918,6.4677,6.5301,6.5301,6.5742,6.6256,0.0,0.0,0.0,0.0,0.0,0.0,0.0,0.0,0.0,0.0,2.9804,2.9804,0.0,0.0,0.0,0.0,0.0,0.0,0.0,0.0,0.0,2.9804,2.9804,2.9365,2.8426,2.9596,2.9724,2.8825,3.0586,3.1993,3.3052,3.3607,3.5013,3.7044,3.7044,3.7997,3.9723,4.0566,4.1654,4.2973,4.4265,4.5297,4.621,4.7263,0.0,0.0,5.1361,5.3202,5.4972,5.6525,5.8115,5.9646,6.0368,6.0604,6.0298,5.8674,5.8098,5.7918,5.7451,5.7973,5.8781,5.9572,6.0885,6.1807,6.1236,6.173,6.1836,6.0232,5.968,5.9269,5.854,5.8747,5.9542,6.1129,6.2071,6.3246,6.5044,6.4494,6.398,6.4273,6.3429,6.278,6.278,6.278,6.278,6.278,6.2328,6.1887,6.163,6.0346,5.9551,5.9404,6.0713,6.1447,6.1594,6.2254,6.2658,6.278,6.278,6.2464,6.1797,6.1797,6.1464,6.0849,6.152,6.1795,6.1843,6.3265,6.3799,6.3816,6.4735,6.5191,6.5301,6.5301,6.5411,6.5485,0.0,0.0,0.0,0.0,0.0,0.0,0.0,2.9804,2.9804,2.9804,3.003,3.0105,2.9829,2.9804,0.0,0.0,0.0,0.0,0.0,0.0,0.0,2.9804,2.9804,2.9287,2.8124,2.8915,2.8915,2.8084,0.0,3.0396,3.1691,3.1917,3.311,3.4969,3.4969,3.5932,3.7628,3.8778,3.9913,4.1115,4.3023,4.4492,4.5718,4.6789,0.0,0.0,5.237,5.3879,5.5346,5.6527,5.7991,5.9562,6.1112,6.1042,6.0165,5.9029,5.7842,5.6782,5.6395,5.6836,5.7619,5.8384,5.9421,6.011,5.9416,5.9572,5.9372,5.7759,5.7449,5.728,5.6881,5.7819,5.9015,6.0216,6.1396,6.2768,6.442,6.3943,6.3576,6.4053,6.3319,6.278,6.278,6.278,6.2658,6.2218,6.1814,6.1594,6.1594,6.0089,5.9368,5.9832,6.0566,6.1374,6.2218,6.2622,6.278,6.278,6.2761,6.2558,6.2161,6.1752,6.1549,6.1498,6.1146,6.1646,6.2809,6.3237,6.3893,6.4649,6.5108,6.5248,6.524,6.5757,6.5906,6.596,0.0,0.0,0.0,0.0,0.0,0.0,0.0,2.9804,2.9804,2.9804,3.0281,3.0407,2.9854,2.9905,2.993,0.0,0.0,0.0,0.0,0.0,0.0,0.0,0.0,0.0,2.8124,0.0,0.0,2.825,2.8773,0.0,0.0,0.0,0.0,0.0,3.3968,3.4869,3.6394,3.7858,3.8956,0.0,0.0,4.4366,4.6087,0.0,0.0,0.0,0.0,5.4156,5.5207,5.6151,5.6904,5.7804,5.9937,6.002,5.9213,5.8689,5.7317,5.5929,5.577,5.6235,5.6977,5.7775,5.8392,5.8629,5.7779,5.7583,5.7158,5.5754,5.5466,5.5524,5.5695,5.6759,5.7908,5.8888,6.0045,6.1482,6.3319,6.2989,6.2879,6.3723,6.3209,6.278,6.278,6.278,6.2548,6.1887,6.1704,6.1447,6.108,5.9722,5.9391,6.0382,6.0419,6.119,6.278,6.278,6.278,6.278,6.2939,6.2795,6.2413,6.1955,6.1771,6.1763,6.0797,6.141,6.3125,6.3084,6.3808,6.5031,6.5413,6.5327,6.5179,6.59,6.6279,6.6493,0.0,0.0,0.0,0.0,0.0,0.0,0.0,2.9804,2.9804,2.9804,3.0281,3.0407,2.9854,3.0231,3.0331,0.0,0.0,0.0,0.0,0.0,0.0,0.0,0.0,0.0,0.0,0.0,0.0,2.8838,2.9279,0.0,0.0,0.0,0.0,0.0,0.0,3.4572,3.5704,3.7088,0.0,0.0,0.0,0.0,0.0,0.0,0.0,0.0,0.0,5.3082,5.2869,5.433,5.4843,5.5233,5.6893,5.8345,5.8929,5.6768,5.646,5.6625,5.5894,5.6225,5.7004,5.7719,5.7959,5.762,5.6231,5.5926,5.5689,5.4887,5.4695,5.4909,5.5581,5.5816,5.6415,5.7952,5.8326,5.9201,6.152,6.1741,6.1998,6.2842,6.2853,6.278,6.278,6.278,6.2743,6.267,6.1998,6.097,5.9478,5.8584,5.8804,6.0346,6.0419,6.119,6.278,6.278,6.278,6.2817,6.3573,6.3147,6.1628,6.2305,6.1425,5.9361,6.0013,6.0424,6.0801,6.2993,6.3926,6.4088,6.5682,6.5756,6.5024,6.5122,6.5676,6.6404,0.0,0.0,0.0,0.0,0.0,0.0,2.9804,2.9804,2.9905,3.0256,3.0758,3.1009,3.0783,3.1235,3.1085,0.0,0.0,0.0,0.0,0.0,0.0,0.0,0.0,0.0,0.0,0.0,2.8088,2.8726,2.8634,0.0,0.0,0.0,0.0,0.0,0.0,3.6259,3.6686,3.7657,0.0,0.0,0.0,0.0,0.0,0.0,0.0,0.0,0.0,0.0,5.2367,5.3013,5.3227,5.338,5.4486,5.5309,5.583,5.5816,5.5981,5.6201,5.633,5.7543,5.8863,5.9133,5.8896,5.8186,5.6697,5.5683,5.4839,5.4086,5.3946,5.4009,5.4328,5.4726,5.5249,5.5889,5.675,5.7882,5.9288,5.9883,6.0639,6.1924,6.2071,6.2291,6.2743,6.278,6.2622,6.2108,6.0896,5.9905,5.9221,5.9355,5.9758,6.0382,6.0391,6.1167,6.278,6.2324,6.2324,6.2817,6.361,6.3349,6.2242,6.2023,6.1432,6.0419,5.984,6.0393,6.1814,6.3362,6.4194,6.464,6.5889,6.5526,6.4288,6.4799,6.4902,6.4835,0.0,0.0,0.0,0.0,0.0,2.9804,2.9804,2.9804,2.998,3.0532,3.106,3.1461,3.1612,3.2405,3.2285,3.0673,0.0,0.0,0.0,0.0,0.0,0.0,0.0,0.0,0.0,0.0,2.8464,2.9329,2.9212,3.0007,0.0,0.0,3.5199,3.5764,0.0,0.0,0.0,0.0,0.0,0.0,0.0,0.0,0.0,0.0,0.0,0.0,0.0,0.0,0.0,0.0,0.0,5.2398,5.2909,5.3267,5.372,5.4823,5.5382,5.5818,5.6325,5.8084,5.9776,5.9776,5.9235,5.8355,5.7103,5.5649,5.4397,5.3653,5.3518,5.3518,5.3518,5.3913,5.4359,5.4575,5.5667,5.693,5.7959,5.8725,5.9698,6.108,6.1263,6.1557,6.2365,6.2658,6.229,6.1017,6.0042,5.926,5.8555,5.9286,5.9724,5.9724,5.9745,6.0367,6.1776,6.144,6.1659,6.2464,6.32,6.3243,6.2681,6.2344,6.1808,6.1016,6.0178,6.0596,6.1988,6.3155,6.389,6.4348,6.5258,6.4667,6.3388,6.3972,6.4007,6.3791,0.0,0.0,0.0,0.0,0.0,0.0,2.9804,2.9804,2.998,3.0532,3.106,3.1587,3.2139,3.3674,3.4027,3.2323,0.0,0.0,0.0,0.0,0.0,0.0,0.0,0.0,0.0,0.0,3.0589,3.0953,3.1701,3.2007,3.1984,3.4752,3.579,3.5366,0.0,0.0,0.0,0.0,0.0,0.0,0.0,0.0,4.9951,0.0,0.0,0.0,0.0,0.0,0.0,0.0,0.0,0.0,0.0,5.2841,5.3518,5.3518,5.4566,5.5681,5.5681,5.734,5.9032,5.9032,5.8457,5.7712,5.6968,5.5649,5.4397,5.3653,5.3518,5.3518,5.3518,5.3518,5.375,5.4482,5.5232,5.6288,5.788,5.8725,5.9478,6.0309,6.0419,6.075,6.152,6.2328,6.1832,5.95,6.0003,5.9359,5.7072,5.7696,5.8129,5.8129,5.811,5.8515,5.9354,6.0038,6.082,6.1632,6.2434,6.2766,6.2709,6.3502,6.2586,6.0358,6.1152,6.1055,6.0461,6.2058,6.2635,6.2609,6.3407,6.3199,6.242,6.242,6.2969,6.3719,0.0,0.0,0.0,0.0,0.0,0.0,0.0,2.9804,2.998,3.0532,3.106,3.1612,3.2164,3.3056,3.3845,3.4464,0.0,0.0,0.0,0.0,0.0,0.0,0.0,0.0,0.0,3.0925,3.1012,3.2155,3.2126,3.2388,3.3054,3.5584,3.6684,3.6583,3.8113,3.902,0.0,0.0,0.0,0.0,0.0,4.7996,4.9191,0.0,0.0,0.0,0.0,0.0,0.0,0.0,0.0,0.0,0.0,0.0,0.0,5.3518,5.4194,5.5074,5.5581,5.6596,5.7611,5.8118,5.7306,5.6359,5.6122,5.4905,5.3788,5.3551,5.3518,5.3518,5.3518,5.3518,5.3584,5.3816,5.4878,5.5879,5.6415,5.805,5.9478,6.0309,6.1374,6.2144,6.2401,6.2658,6.2045,6.0163,6.0262,5.959,5.7752,5.742,5.7526,5.8093,5.8048,5.8184,5.8539,5.9166,5.996,6.0837,6.2173,6.2793,6.2788,6.3056,6.2105,6.0378,6.0662,6.0518,6.0301,6.2007,6.2578,6.2514,6.3358,6.3162,6.2381,6.2381,6.2581,6.2817,0.0,0.0,0.0,0.0,0.0,0.0,0.0,2.9804,2.998,3.0532,3.106,3.1687,3.2466,3.3553,3.4743,3.5828,0.0,0.0,0.0,0.0,0.0,0.0,0.0,0.0,3.2516,3.181,3.1837,3.2699,3.2967,3.3232,3.3553,3.6418,3.7662,3.7564,3.9349,4.0397,0.0,0.0,0.0,0.0,4.6802,4.8083,4.9191,0.0,0.0,0.0,0.0,0.0,0.0,0.0,0.0,0.0,0.0,0.0,0.0,0.0,5.3822,5.4329,5.5074,5.6021,5.69,5.7374,5.6596,5.5681,5.5681,5.4566,5.3518,5.3518,5.3518,5.3518,5.3518,5.3518,5.3518,5.3518,5.4761,5.5724,5.5724,5.7463,5.9061,5.9869,6.1117,6.2034,6.2328,6.2622,6.2254,6.097,6.0566,5.9832,5.851,5.7447,5.7129,5.7634,5.7319,5.7057,5.6823,5.7492,5.8266,5.9158,6.0418,6.1323,6.1948,6.2202,6.1644,6.0397,6.07,6.0403,0.0,6.1536,6.2125,6.2087,6.2871,6.2893,6.2381,6.2381,6.2381,6.2381,0.0,0.0,0.0,0.0,0.0,0.0,0.0,2.9804,2.998,3.0482,3.1009,3.1738,3.2842,3.4791,3.6171,3.6561,0.0,0.0,0.0,0.0,0.0,0.0,0.0,0.0,3.3111,3.3162,3.3049,3.2839,3.4135,3.4385,3.3768,3.7272,3.8642,3.8242,4.0442,4.149,0.0,0.0,0.0,0.0,4.7501,4.8463,0.0,0.0,0.0,0.0,0.0,0.0,0.0,0.0,0.0,0.0,0.0,0.0,0.0,0.0,0.0,0.0,0.0,5.5513,5.6562,5.6562,5.6055,5.5512,5.5512,5.4499,0.0,5.3518,5.3518,5.3518,5.3518,5.3518,5.3551,5.3551,5.4791,5.5724,5.578,5.7091,5.84,5.9184,6.0015,6.075,6.1447,6.2254,6.2365,6.1484,6.075,5.9979,5.9148,5.7751,5.6964,5.6912,5.6147,5.5329,5.4601,5.5345,5.6099,5.6819,5.764,5.8837,6.0341,6.1047,6.0937,6.0264,6.1042,6.0438,5.9103,6.0662,6.1305,6.1366,6.211,6.2381,6.2381,6.2381,6.2381,6.2381,0.0,0.0,0.0,0.0,0.0,0.0,0.0,0.0,0.0,0.0,3.0457,3.106,3.1712,3.3323,3.5292,0.0,0.0,0.0,0.0,0.0,0.0,0.0,0.0,0.0,3.3111,3.3495,3.389,3.4247,3.4944,3.5444,3.5754,3.7909,3.8821,3.8809,4.0607,4.2077,0.0,0.0,0.0,0.0,4.7572,4.8263,0.0,0.0,0.0,0.0,5.1217,5.1826,0.0,0.0,0.0,0.0,0.0,0.0,0.0,0.0,5.3518,5.3551,5.3721,0.0,5.4296,5.4296,5.416,5.4025,0.0,5.3754,5.3518,5.3518,5.3518,5.3518,5.3518,5.3518,5.3684,5.4232,5.5119,5.592,5.6536,5.7971,5.9245,6.0015,6.0823,6.1153,6.0713,6.141,6.13,5.9869,5.9588,5.9134,5.8327,5.793,5.7474,5.6912,5.6098,5.5334,5.4601,5.5349,5.5826,5.6056,5.6836,5.7715,5.8759,5.893,5.8828,5.8572,5.8765,5.8907,5.9066,6.0001,6.0744,6.1366,6.211,6.2381,6.2381,6.2381,6.2381,6.2381,0.0,0.0,0.0,0.0,0.0,0.0,0.0,0.0,0.0,0.0,0.0,0.0,0.0,0.0,0.0,0.0,0.0,0.0,0.0,0.0,0.0,0.0,0.0,3.4821,3.4212,3.373,3.4048,3.5056,3.5107,3.5579,3.6452,3.8416,3.9345,3.9446,4.1883,4.3661,0.0,0.0,0.0,4.8724,4.8391,0.0,0.0,0.0,0.0,0.0,5.0439,5.1183,0.0,5.2706,5.3179,5.3518,0.0,0.0,0.0,0.0,5.3518,5.3518,5.3518,5.3754,5.3923,5.3585,5.3754,5.3923,5.3585,5.3518,5.3518,5.3518,5.3518,5.3483,5.347,5.3772,5.4129,5.4481,5.5511,5.6501,5.7302,5.7823,5.8524,5.9698,5.9905,6.0052,6.0382,6.0786,6.0676,5.9808,5.9404,5.9001,5.8584,5.8217,5.7797,5.7425,5.6632,5.5695,5.4637,5.4666,5.4703,5.4756,5.5487,5.6276,5.7118,5.7441,5.7565,5.7515,5.7863,5.7981,5.8084,5.9167,5.9844,6.0351,6.1467,6.167,6.14,6.1772,6.1907,6.1907,0.0,0.0,0.0,0.0,0.0,0.0,0.0,0.0,0.0,0.0,0.0,0.0,0.0,0.0,0.0,0.0,0.0,0.0,0.0,0.0,0.0,0.0,3.6687,3.5865,3.5653,3.4229,3.4148,3.5508,3.5152,3.5454,3.6452,3.881,4.0087,4.0575,4.3771,4.5546,0.0,0.0,4.8656,4.9864,4.9255,0.0,0.0,0.0,0.0,0.0,0.0,0.0,0.0,5.1894,5.2672,5.3315,5.3315,0.0,0.0,0.0,0.0,0.0,5.3653,5.4296,5.4702,5.3754,5.3957,5.4228,5.3484,5.3247,5.3179,5.3312,5.3345,5.3371,5.3537,5.4135,5.465,5.4831,5.6096,5.7338,5.8074,5.7483,5.7483,5.8854,5.851,5.8657,5.9905,6.0162,6.0162,6.0052,5.9391,5.9001,5.9001,5.8364,5.7997,5.7997,5.7302,5.6204,5.4787,5.4009,5.3618,5.3518,5.4139,5.4796,5.545,5.6094,5.6523,5.6731,5.7389,5.7398,5.707,5.8457,5.9032,5.9167,6.0554,6.0689,6.0182,6.0858,6.1197,6.1332,0.0,0.0,0.0,0.0,0.0,0.0,0.0,0.0,0.0,0.0,0.0,0.0,0.0,0.0,0.0,0.0,0.0,0.0,0.0,0.0,0.0,4.1655,3.9093,3.7284,3.6389,3.5558,3.5232,3.5508,3.5931,3.6254,3.6452,3.881,4.0916,4.29,4.5603,4.657,4.6314,4.8064,4.8928,4.9154,4.9052,0.0,0.0,0.0,0.0,0.0,0.0,0.0,0.0,5.1116,5.1894,5.2469,5.2469,0.0,0.0,0.0,0.0,0.0,5.4262,5.5412,5.5987,5.3991,5.3585,5.345,5.2672,5.1995,5.1749,5.2337,5.249,5.2869,5.4119,5.4409,5.4973,5.6302,5.7242,5.81,5.8891,5.8327,5.7923,5.8143,5.8694,5.8877,5.84,5.8988,5.9098,5.8437,5.8253,5.818,5.818,5.807,5.7997,5.7997,5.7302,5.6447,5.5552,5.4787,5.4106,5.3518,5.3618,5.3719,5.3888,5.3987,5.4702,5.5892,5.5994,5.6704,5.778,5.866,5.9032,5.9099,5.9945,6.0216,6.0114,6.025,6.0723,6.14,0.0,0.0,0.0,0.0,0.0,0.0,0.0,0.0,0.0,0.0,0.0,0.0,0.0,0.0,0.0,0.0,0.0,0.0,0.0,0.0,4.317,4.291,4.1018,3.9313,3.7838,3.6639,3.6166,3.6433,3.643,3.6556,3.688,3.8944,4.1113,4.3399,4.5122,4.6022,4.6279,4.7671,4.8545,4.9018,0.0,0.0,0.0,0.0,0.0,0.0,0.0,0.0,0.0,0.0,5.1352,5.23,5.23,0.0,0.0,0.0,0.0,0.0,5.3923,5.4803,5.5347,5.4353,5.4668,5.4871,5.3315,5.2965,5.3104,5.3475,5.3863,5.4317,5.5,5.5875,5.6831,5.7958,5.8432,5.8621,5.8547,5.785,5.7519,5.796,5.796,5.7923,5.7997,5.8327,5.84,5.8033,5.7997,5.7997,5.7997,5.7997,5.7997,5.7997,5.7679,5.6927,5.5724,5.5379,5.4637,5.3518,5.3518,5.3518,5.3518,5.3518,5.4093,5.5141,5.5547,5.6325,5.734,5.8084,5.8423,5.849,5.9235,5.9268,5.8998,5.981,6.0622,6.14,0.0,0.0,0.0,0.0,0.0,0.0,0.0,0.0,0.0,0.0,0.0,0.0,0.0,0.0,0.0,0.0,0.0,0.0,0.0,4.2462,4.314,4.329,4.2467,4.1232,3.955,3.7785,3.7123,3.7594,3.695,3.7143,3.8273,3.9672,4.1454,4.3569,4.4565,4.5463,4.6244,4.7205,4.8161,4.9018,0.0,0.0,0.0,0.0,0.0,0.0,0.0,0.0,0.0,0.0,0.0,0.0,0.0,0.0,0.0,5.2976,5.3078,5.3281,5.345,5.4025,5.4568,5.4595,5.5271,5.5656,5.4321,5.4071,5.4212,5.4769,5.5157,5.5553,5.5894,5.7105,5.826,5.882,5.8914,5.8767,5.8327,5.7593,5.7299,5.7923,5.7446,5.7336,5.7923,5.7997,5.7997,5.7997,5.7997,5.7997,5.7997,5.7997,5.7997,5.7997,5.7997,5.7266,5.5724,5.5724,5.4969,5.3518,5.3518,5.3518,5.3518,5.3518,5.389,5.4634,5.5378,5.6122,5.6867,5.7577,5.7881,5.7949,5.8524,5.849,5.8321,5.9607,6.0622,6.1366,0.0,0.0,0.0,0.0,0.0,0.0,0.0,0.0,0.0,0.0,0.0,0.0,0.0,0.0,0.0,0.0,0.0,0.0,0.0,4.2081,4.2701,4.326,4.321,4.2629,4.1446,3.9179,3.8273,3.8792,3.7687,3.8584,4.1352,4.1507,4.2507,4.4267,4.5209,4.5833,4.6244,4.7205,4.8161,4.9018,4.9018,0.0,0.0,0.0,0.0,0.0,0.0,0.0,0.0,0.0,0.0,0.0,0.0,0.0,5.1386,5.1386,5.186,5.257,5.3315,5.4025,5.4568,5.4532,5.4067,5.3975,5.536,5.4005,5.3087,5.5266,5.5166,5.5075,5.6456,5.7414,5.8024,5.807,5.8107,5.8327,5.9001,5.8437,5.7923,5.7997,5.796,5.7923,5.7997,5.7997,5.7997,5.7997,5.7997,5.7997,5.7997,5.7997,5.7997,5.7997,5.7997,5.7266,5.5724,5.5724,5.4969,5.3518,5.3518,5.3518,5.3518,5.3518,5.389,5.4634,5.5378,5.6122,5.6867,5.7577,5.7881,5.7881,5.7949,5.8355,5.9032,5.981,6.0622,6.1298,0.0,0.0,0.0,0.0,0.0,0.0,0.0,0.0,0.0,0.0,0.0,0.0,0.0,0.0,0.0,0.0,0.0,0.0,0.0,4.1811,4.25,4.2731,4.2731,4.2544,4.2119,4.1298,4.1041,4.1257,4.0837,4.136,4.2757,4.2404,4.2576,4.3159,4.3874,4.4403,4.4787,4.6156,4.7273,4.8193,4.8767,4.9018,0.0,0.0,0.0,0.0,0.0,0.0,0.0,0.0,4.9729,5.0135,5.0439,5.0845,5.1185,5.1185,5.1705,5.2386,5.266,5.3618,5.451,5.452,5.4286,5.4259,5.4866,5.4697,5.483,5.6201,5.6612,5.6899,5.7437,5.8217,5.8584,5.807,5.8437,5.8694,5.8474,5.818,5.7821,5.7376,5.7726,5.746,5.6027,5.633,5.6405,5.5903,5.5877,5.6093,5.6544,5.658,5.658,5.658,5.6103,5.5615,5.4994,5.454,5.4063,5.3518,5.3518,5.3518,5.3518,5.3518,5.389,5.4634,5.5378,5.6122,5.6867,5.7577,5.7881,5.7881,5.7881,5.8626,5.9708,6.0013,6.0892,6.1907,0.0,0.0,0.0,0.0,0.0,0.0,0.0,0.0,0.0,0.0,0.0,0.0,0.0,0.0,0.0,0.0,0.0,0.0,4.03,4.1235,4.1961,4.2381,4.241,4.259,4.301,4.3119,4.2969,4.2604,4.2824,4.3209,4.3732,4.3113,4.2936,4.3,4.324,4.3494,4.3899,4.5274,4.6277,4.7044,4.8171,4.8646,0.0,0.0,0.0,0.0,0.0,0.0,0.0,0.0,4.9526,4.9796,5.0033,5.0459,5.085,5.085,5.1705,5.2637,5.2637,5.3359,5.4196,5.4439,5.4145,5.3891,5.4369,5.5094,5.6019,5.7361,5.7618,5.7629,5.7629,5.807,5.8253,5.7703,5.829,5.8621,5.807,5.7797,5.7474,5.6964,5.7141,5.6577,5.4792,5.5107,5.5105,5.4311,5.4248,5.4469,5.4973,5.5008,5.5008,5.5008,5.4504,5.4246,5.4256,5.3771,5.351,5.3518,5.3518,5.3518,5.3518,5.3518,5.3788,5.4296,5.504,5.5784,5.6528,5.7239,5.7679,5.7881,5.7881,5.866,5.9742,5.9742,6.0554,6.1603,0.0,0.0,0.0,0.0,0.0,0.0,0.0,0.0,0.0,0.0,0.0,0.0,0.0,0.0,0.0,0.0,0.0,0.0,4.0233,4.0397,4.0995,4.2321,4.2381,4.301,4.4257,4.4317,4.3685,4.2452,4.3146,4.3826,4.4365,4.3732,4.3698,4.4257,4.3629,4.3494,4.3837,4.4732,4.524,4.5623,4.7231,4.7906,4.7973,0.0,0.0,0.0,0.0,0.0,0.0,0.0,4.9625,4.9151,4.9895,5.0043,5.0004,5.0102,5.1675,5.3387,5.3387,5.3414,5.3576,5.4295,5.3279,5.2529,5.4049,5.5023,5.6271,5.8671,5.79,5.6822,5.6822,5.6822,5.6822,5.6822,5.7483,5.7997,5.7997,5.7376,5.6912,5.6887,5.6169,5.537,5.4618,5.4575,5.4256,5.3539,5.3468,5.3468,5.3504,5.3504,5.3504,5.3504,5.3468,5.3472,5.3493,5.3463,5.351,5.3518,5.3518,5.3518,5.3518,5.3518,5.3518,5.3551,5.4262,5.5006,5.575,5.6494,5.7205,5.7881,5.7881,5.8355,5.9032,5.9032,5.9471,6.0114,0.0,0.0,0.0,0.0,0.0,0.0,0.0,0.0,0.0,0.0,0.0,0.0,0.0,0.0,0.0,0.0,0.0,0.0,3.9612,4.0157,4.0786,4.1662,4.1722,4.2111,4.298,4.3389,4.3845,4.4448,4.5126,4.5067,4.4317,4.411,4.3664,4.298,4.3396,4.3023,4.2227,4.3724,4.4081,4.3786,4.6093,4.6999,4.7063,0.0,0.0,0.0,0.0,0.0,0.0,0.0,0.0,0.0,5.0724,5.1169,5.15,5.0946,5.2003,5.3214,5.2651,5.2858,5.3304,5.3521,5.3638,5.3997,5.5001,5.4987,5.528,5.7152,5.7593,5.7483,5.6895,5.7262,5.7446,5.6895,5.7483,5.7997,5.7997,5.7797,5.7072,5.5473,5.557,5.4633,5.1705,5.1957,5.197,5.1172,5.1111,5.1317,5.1836,5.1871,5.1871,5.1871,5.1386,5.1607,5.2656,5.2145,5.2425,5.3518,5.3518,5.3518,5.3518,5.3518,5.3518,5.3551,5.4262,5.4702,5.4972,5.5716,5.6461,5.7137,5.7137,5.7881,5.9032,5.9032,5.9471,6.0047,0.0,0.0,0.0,0.0,0.0,0.0,0.0,0.0,0.0,0.0,3.3115,3.3633,0.0,0.0,0.0,0.0,0.0,0.0,0.0,3.9948,4.0427,4.1354,4.1422,4.1841,4.2731,4.3658,4.4257,4.4526,4.5454,4.5364,4.4317,4.4317,4.3748,4.28,4.332,4.2728,4.1498,4.2914,4.2921,4.2136,4.4331,4.5405,4.5821,0.0,0.0,0.0,0.0,0.0,0.0,0.0,0.0,0.0,5.1086,5.1612,5.2172,5.2019,5.281,5.3776,5.3935,5.4202,5.4498,5.481,5.5178,5.5468,5.5634,5.5491,5.5537,5.6198,5.6455,5.6528,5.6345,5.6455,5.6528,5.6345,5.6712,5.7152,5.7483,5.7274,5.6587,5.5195,5.4946,5.3739,5.0819,5.0712,5.0518,4.9692,4.9661,4.9864,5.0304,5.0338,5.0338,5.0338,5.0168,5.0507,5.142,5.1285,5.1826,5.301,5.301,5.3179,5.3518,5.3518,5.3518,5.3551,5.4262,5.46,5.4668,5.5412,5.5987,5.6393,5.6697,5.734,5.8186,5.8457,5.8829,5.9201,0.0,0.0,0.0,0.0,0.0,0.0,0.0,0.0,0.0,0.0,3.3224,3.3953,0.0,0.0,0.0,0.0,0.0,0.0,0.0,3.9738,4.0008,4.1324,4.1648,4.2376,4.3598,4.486,4.483,4.3538,4.4657,4.4855,4.4227,4.4227,4.3858,4.329,4.3249,4.2569,4.143,4.2211,4.1767,4.0718,4.2354,4.346,4.4255,4.5069,0.0,0.0,0.0,0.0,0.0,0.0,0.0,0.0,5.1292,5.1764,5.2459,5.3074,5.3795,5.473,5.6228,5.6376,5.6312,5.7226,5.7225,5.676,5.5988,5.6254,5.6412,5.5698,5.4993,5.473,5.5464,5.4987,5.473,5.5464,5.5596,5.5868,5.6712,5.6151,5.5663,5.5613,5.4275,5.279,5.1246,5.0427,4.9729,4.9052,4.9018,4.9018,4.9018,4.9018,4.9052,4.9086,4.9695,5.0067,5.0202,5.0811,5.1488,5.2198,5.2266,5.2672,5.3382,5.3484,5.3518,5.3551,5.4194,5.4499,5.4532,5.5243,5.5547,5.5683,5.6427,5.6731,5.69,5.7611,5.7881,5.7983,0.0,0.0,0.0,0.0,0.0,0.0,0.0,0.0,0.0,0.0,0.0,0.0,0.0,0.0,0.0,0.0,0.0,0.0,0.0,3.9499,4.0008,4.1324,4.3678,4.5326,4.6088,4.6611,4.6366,4.5357,4.479,4.4197,4.3499,4.3499,4.3439,4.3299,4.2954,4.2308,4.137,4.1198,4.0585,3.9833,4.1434,4.2166,4.2537,4.407,4.5092,0.0,0.0,0.0,0.0,0.0,0.0,0.0,5.2565,5.3273,5.38,5.3361,5.3778,5.458,5.5255,5.495,5.4838,5.6637,5.7,5.6861,5.6673,5.5995,5.5315,5.5186,5.5249,5.539,5.5596,5.5486,5.539,5.5596,5.5596,5.5868,5.6712,5.6122,5.5431,5.4918,5.3485,5.1961,5.0408,4.9645,4.9187,4.9018,4.9018,4.9018,4.9018,4.9018,4.9255,4.983,4.9458,4.9796,5.0947,5.0541,5.071,5.1454,5.2029,5.2401,5.257,5.3213,5.3518,5.3518,5.3687,5.3754,5.3754,5.3923,5.4329,5.4905,5.5649,5.6292,5.69,5.7611,5.7881,5.7915,0.0,0.0,0.0,0.0,0.0,0.0,0.0,0.0,0.0,0.0,0.0,0.0,0.0,0.0,0.0,0.0,0.0,0.0,0.0,0.0,4.0008,4.1324,4.3952,4.5532,4.5873,4.6819,4.6884,4.6061,4.5466,4.4549,4.329,4.329,4.314,4.289,4.2637,4.1963,4.0913,4.0673,4.0116,3.9475,4.0314,4.0716,4.0891,4.1788,4.2678,4.3476,4.3923,0.0,0.0,0.0,0.0,0.0,0.0,0.0,5.3225,5.3225,5.3518,5.4086,5.53,5.5491,5.5952,5.8234,5.8463,5.8054,5.7672,5.6425,5.5223,5.4848,5.4588,5.4436,5.4436,5.4436,5.4436,5.4436,5.4436,5.473,5.5537,5.528,5.4913,5.4547,5.3186,5.1803,5.0624,4.961,4.9018,4.9018,4.9018,4.9018,4.9018,4.9018,4.9187,4.956,4.9526,4.9729,5.0168,5.0101,5.027,5.0676,5.1048,5.1623,5.2334,5.3145,5.3518,5.3518,5.3518,5.3518,5.3518,5.3518,5.3721,5.416,5.4905,5.5412,5.5886,5.6968,5.7374,5.7408,0.0,0.0,0.0,0.0,0.0,0.0,0.0,0.0,0.0,0.0,0.0,0.0,0.0,0.0,0.0,0.0,0.0,0.0,0.0,0.0,0.0,4.1739,4.387,4.5241,4.5645,4.7001,4.7364,4.6647,4.6518,4.553,4.381,4.3615,4.3244,4.265,4.253,4.1693,4.0397,4.0431,4.0034,3.9373,3.9373,3.942,3.9468,3.9634,4.0166,4.0893,4.1774,4.336,4.5131,4.5996,0.0,0.0,0.0,0.0,5.1799,5.2705,5.3004,5.3424,5.5377,5.6428,5.7566,5.9969,5.9819,5.8923,5.8327,5.6768,5.5276,5.4538,5.3758,5.3203,5.3203,5.3203,5.3203,5.3203,5.3203,5.3482,5.4289,5.4289,5.4252,5.4363,5.3025,5.182,5.1157,4.9809,4.9018,4.9018,4.9018,4.9018,4.9018,4.9018,4.9052,4.9187,4.9661,4.9661,4.9187,4.9661,4.9898,4.9898,5.0168,5.098,5.2334,5.3145,5.3518,5.3518,5.3518,5.3518,5.3518,5.3518,5.3518,5.3585,5.4296,5.46,5.4769,5.6258,5.6799,5.69,0.0,0.0,0.0,0.0,0.0,0.0,0.0,0.0,0.0,0.0,3.429,3.5635,0.0,0.0,0.0,0.0,0.0,0.0,0.0,0.0,0.0,4.3389,4.5187,4.703,4.9001,4.9493,4.9259,4.8359,4.7735,4.6833,4.5782,4.4968,4.4253,4.358,4.2952,4.1833,4.0404,4.0602,4.0156,3.9373,3.9373,3.9062,3.8641,3.94,3.943,3.9251,4.0808,4.1893,4.2799,4.4275,4.5736,0.0,0.0,0.0,5.0359,5.1742,5.216,5.2532,5.4245,5.5836,5.742,5.9219,5.8473,5.7417,5.762,5.6124,5.45,5.4015,5.3543,5.3203,5.3203,5.3203,5.3203,5.3203,5.3203,5.3482,5.4289,5.3812,5.3628,5.4326,5.2522,5.1218,5.1086,4.9809,4.9018,4.9018,4.9018,4.9018,4.9018,4.9018,4.9289,4.9932,4.9424,4.939,4.9932,4.9424,4.9154,4.9154,5.0439,5.1488,5.2334,5.3145,5.3518,5.3518,5.3518,5.3518,5.3518,5.3518,5.3518,5.3585,5.4296,5.46,5.4769,5.6258,5.6799,5.69,0.0,0.0,0.0,0.0,0.0,0.0,0.0,0.0,0.0,0.0,0.0,3.5723,0.0,0.0,0.0,3.6896,0.0,0.0,0.0,0.0,0.0,4.2545,4.3809,4.5368,4.7243,4.791,4.8023,4.7651,4.7718,4.7561,4.7143,4.6603,4.5469,4.38,4.3992,4.2705,4.0477,4.1579,4.0997,3.9445,3.992,3.9213,3.7858,3.8273,3.8037,3.7686,3.8834,3.9706,4.054,4.2145,4.3245,4.4277,4.581,0.0,0.0,0.0,5.0402,5.1193,5.3228,5.4832,5.6278,5.7747,5.7719,5.7392,5.7576,5.6484,5.5265,5.4615,5.4149,5.3739,5.3277,5.3203,5.3203,5.3203,5.3203,5.3314,5.3702,5.3445,5.317,5.3094,5.1907,5.0929,5.0527,4.958,4.9018,4.9018,4.9018,4.9018,4.9018,4.9018,4.9154,4.9458,4.9187,4.9154,4.9492,4.9154,4.9018,4.9018,5.0507,5.1386,5.1725,5.2942,5.3518,5.3518,5.3518,5.3518,5.3518,5.3518,5.3518,5.3551,5.3856,5.4228,5.4735,5.5784,5.6461,5.69,0.0,0.0,0.0,0.0,0.0,0.0,0.0,0.0,0.0,0.0,0.0,0.0,0.0,0.0,0.0,0.0,3.6477,0.0,0.0,0.0,0.0,4.1713,4.2843,4.4137,4.5713,4.6455,4.6786,4.6786,4.7361,4.7733,4.7906,4.7756,4.6647,4.4808,4.5317,4.3965,4.149,4.3061,4.228,4.0051,4.0728,3.9531,3.7404,3.7404,3.6965,3.6445,3.7157,3.7808,3.8535,3.9874,4.0901,4.1827,4.3142,4.4544,0.0,0.0,0.0,4.9804,5.1894,5.336,5.4661,5.6013,5.6586,5.6905,5.718,5.6564,5.573,5.5241,5.4769,5.4216,5.3628,5.3314,5.3203,5.3203,5.3203,5.3203,5.3203,5.3203,5.298,5.2427,5.1618,5.0876,5.0335,4.9492,4.9018,4.9018,4.9018,4.9018,4.9018,4.9018,4.9018,4.9018,4.9018,4.9018,4.9018,4.9018,4.9018,4.9018,5.0304,5.1014,5.1219,5.2604,5.3315,5.3518,5.3518,5.3518,5.3518,5.3518,5.3518,5.3518,5.3518,5.3957,5.4668,5.5446,5.619,5.69,0.0,0.0,0.0,0.0,0.0,0.0,0.0,0.0,0.0,0.0,0.0,0.0,3.6667,3.6575,3.6477,3.6477,3.6477,3.6776,3.7404,3.8794,0.0,4.2013,4.3516,0.0,4.6693,4.6786,4.6786,4.6786,4.6819,4.7225,4.7906,4.7875,4.7684,4.7374,4.6717,4.5538,4.4063,4.4982,4.3944,4.1682,4.1721,3.9994,3.7404,3.7404,3.666,3.5651,3.6414,3.6692,3.6845,3.7682,3.8971,4.0337,4.0983,4.2224,4.3729,0.0,0.0,0.0,4.9981,5.1239,5.2583,5.4216,5.4639,5.4985,5.6108,5.5715,5.5169,5.5506,5.4935,5.4399,5.4363,5.3702,5.3203,5.3203,5.3203,5.3203,5.3203,5.3203,5.3203,5.3124,5.1922,5.1086,5.1034,4.9809,4.9018,4.9018,4.9018,4.9018,4.9018,4.9018,4.9018,4.9018,4.9018,4.9018,4.9018,4.9018,4.9018,4.9018,4.9796,5.0507,5.1251,5.2029,5.2773,5.3518,5.3518,5.3518,5.3518,5.3518,5.3518,5.3518,5.3518,5.3957,5.4668,5.5446,5.619,5.69,0.0,0.0,0.0,0.0,0.0,0.0,0.0,0.0,0.0,0.0,0.0,0.0,0.0,3.6963,3.6926,3.6507,3.6118,3.6318,3.748,3.8483,0.0,4.2083,4.3596,4.4737,4.5365,4.5838,4.5872,4.5393,4.5872,4.6481,4.7192,4.7699,4.8091,4.8513,4.8214,4.688,4.4936,4.6411,4.5599,4.3341,4.3427,4.2237,4.0252,3.8789,3.7975,3.7422,3.6278,3.6425,3.7192,3.753,3.8354,3.9379,4.0087,4.1042,4.2218,4.3659,4.4769,4.574,4.6518,4.7701,4.9064,5.0429,5.2019,5.3544,5.4485,5.5458,5.6071,5.5691,5.5794,5.5794,5.528,5.4106,5.3203,5.3203,5.3203,5.3203,5.3203,5.3203,5.2872,5.1946,5.1393,5.0743,4.9838,4.9286,4.9018,4.9018,4.9018,4.9018,4.9018,4.9018,4.9018,4.9018,4.9018,4.9018,4.9018,4.9018,4.9018,4.9018,5.0236,5.0947,5.1251,5.2503,5.3247,5.3518,5.3518,5.3518,5.3518,5.3518,5.3518,5.3518,5.3518,5.4262,5.5344,5.5615,5.6461,5.7543,0.0,0.0,0.0,0.0,0.0,0.0,0.0,0.0,0.0,3.6769,0.0,0.0,0.0,0.0,3.7165,3.6537,3.6088,3.6451,3.7869,3.8935,4.029,4.214,4.392,4.4741,4.4587,4.5331,4.5331,4.4615,4.5094,4.5703,4.6447,4.6955,4.7564,4.8274,4.8511,4.7853,4.6552,4.7745,4.7028,4.5015,4.5108,4.4069,4.227,4.0798,3.9942,3.9313,3.7898,3.7569,3.7795,3.7679,3.8151,3.882,3.877,3.9376,4.0281,4.141,4.2383,4.3219,4.3679,4.5075,4.6774,4.8329,5.0009,5.1784,5.3585,5.4838,5.5684,5.5941,5.6198,5.6308,5.6051,5.4913,5.3922,5.3665,5.3592,5.3518,5.3261,5.3203,5.285,5.1898,5.1604,5.0981,4.9809,4.9462,4.9226,4.9049,4.9018,4.9018,4.9018,4.9018,4.9018,4.9018,4.9018,4.9018,4.9018,4.9018,4.912,4.939,5.0371,5.1116,5.1623,5.2638,5.3247,5.3518,5.3518,5.3518,5.3518,5.3518,5.3518,5.3518,5.3518,5.4397,5.5681,5.5681,5.663,5.7881,0.0,0.0,0.0,0.0,0.0,0.0,0.0,0.0,3.8422,3.8422,0.0,0.0,0.0,0.0,0.0,3.6596,3.657,3.718,3.8646,4.0166,4.1421,4.2286,0.0,0.0,4.4615,4.5331,4.5365,4.4615,4.4615,4.4993,4.5703,4.5703,4.6075,4.6819,4.7564,4.8274,4.8984,4.8984,4.8111,4.668,4.6647,4.5342,4.3331,4.3234,4.2366,4.1207,4.1112,4.0103,3.8646,3.7996,3.8245,3.8603,3.7184,3.7205,3.7873,3.8461,3.9707,4.1036,0.0,0.0,0.0,4.7925,4.8533,4.9575,5.3353,5.3644,5.3791,5.6198,5.6088,5.5794,5.6638,5.6161,5.5354,5.4583,5.4436,5.4106,5.3314,5.3203,5.3203,5.3146,5.2531,5.1814,5.1138,5.0417,4.9722,4.9046,4.9018,4.9018,4.9018,4.9018,4.9018,4.9018,4.9018,4.9018,4.9018,4.9018,4.9357,5.0101,5.0101,5.0879,5.23,5.2334,5.2773,5.3518,5.3518,5.3518,5.3518,5.3518,5.3518,5.3518,5.3518,5.4431,5.5681,5.575,5.6664,5.7881,0.0,0.0,0.0,0.0,0.0,4.0876,4.0217,3.9559,3.914,0.0,0.0,0.0,3.914,3.8512,3.8063,3.7883,3.8473,3.9018,3.9532,4.1061,4.229,4.3037,4.4778,4.5365,4.4615,4.5838,4.5872,4.4615,4.5128,4.55,4.5703,4.5703,4.6075,4.6819,4.7022,4.753,4.821,4.8781,4.8726,4.8303,4.7735,4.7141,4.6424,4.477,4.3865,4.3281,4.1685,4.0673,4.0042,3.936,3.966,4.0249,3.9982,3.8553,3.7172,3.846,3.8756,3.8725,3.8887,0.0,0.0,0.0,0.0,0.0,4.8892,5.0483,5.1977,5.3812,5.4473,5.517,5.6565,5.6638,5.6418,5.6161,5.517,5.4106,5.3314,5.3203,5.298,5.245,5.2206,5.1618,5.0417,5.0118,4.9722,4.9046,4.9018,4.9018,4.9018,4.9018,4.9018,4.9018,4.9018,4.9018,4.9018,4.9018,4.9357,5.0101,5.0642,5.1386,5.2334,5.2909,5.3281,5.3518,5.3518,5.3518,5.3518,5.3518,5.3518,5.3551,5.4093,5.4871,5.5749,5.6325,5.7103,5.7881,0.0,0.0,0.0,0.0,0.0,4.1983,4.1324,4.0876,4.0546,0.0,0.0,0.0,3.9858,3.923,3.8811,3.8811,3.9035,3.9606,4.0703,4.1646,4.269,4.3855,4.506,4.55,4.506,4.5906,4.5906,4.506,4.5162,4.5229,4.5229,4.5229,4.5466,4.5935,4.6515,4.7022,4.753,4.8578,4.9018,4.8951,4.8545,4.8376,4.8213,4.6873,4.6155,4.5666,4.3968,4.3073,4.2423,4.0714,4.006,4.007,4.0558,3.9279,3.761,3.7883,3.7876,3.7735,3.7381,3.8125,3.9309,4.0668,0.0,0.0,4.6158,4.7839,4.9471,5.1426,5.238,5.3482,5.5427,5.5794,5.5904,5.6235,5.55,5.462,5.3812,5.3995,5.3902,5.3167,5.3049,5.2522,5.1099,5.0682,5.0033,4.9077,4.9018,4.9018,4.9018,4.9018,4.9018,4.9018,4.9018,4.9018,4.9018,4.9018,4.9357,5.0101,5.0845,5.1589,5.2334,5.3145,5.3518,5.3518,5.3518,5.3518,5.3518,5.3518,5.3687,5.3991,5.4431,5.5243,5.6224,5.663,5.7273,5.7881,0.0,0.0,4.5721,4.5092,4.4266,4.3533,4.2938,4.2817,4.2598,0.0,4.1828,4.1504,4.0995,4.0277,3.9822,3.9822,3.9247,3.9814,4.1981,4.2142,4.2862,4.4525,4.5229,4.5568,4.5568,4.5737,4.5737,4.5568,4.506,4.475,4.4615,4.4615,4.4615,4.4649,4.594,4.665,4.6887,4.8206,4.8849,4.9018,4.9018,4.9018,4.9018,4.9018,4.8545,4.7781,4.6869,4.5957,4.4785,4.1738,3.9789,3.8838,3.9884,3.9473,3.839,3.7063,3.715,3.7478,3.6692,3.718,3.8328,4.0156,4.0775,0.0,4.4376,4.5468,4.6557,4.8923,4.9877,5.1051,5.3433,5.4026,5.4436,5.5317,5.5611,5.5427,5.4656,5.5133,5.5317,5.462,5.4509,5.3931,5.2448,5.1643,5.0605,4.9107,4.9018,4.9018,4.9018,4.9018,4.9018,4.9018,4.9018,4.9018,4.9018,4.9018,4.9357,5.0101,5.0777,5.1522,5.2334,5.3044,5.3416,5.3518,5.3518,5.3518,5.3518,5.3585,5.4025,5.46,5.4668,5.5581,5.6799,5.69,5.734,5.7881,0.0,4.6052,4.6084,4.5957,4.6258,4.6307,4.5647,4.552,4.5389,4.5077,4.4243,4.3898,4.4287,4.323,4.2542,4.2542,4.2088,4.2136,4.2779,4.297,4.3532,4.4559,4.475,4.479,4.479,4.5974,4.6007,4.479,4.5838,4.5737,4.4615,4.4615,4.4615,4.4615,4.4919,4.5698,4.6819,4.709,4.7902,4.9018,4.9018,4.9018,4.9018,4.9018,4.8545,4.7804,4.7012,4.5355,4.3298,4.1346,3.9688,3.8709,4.0261,3.9031,3.7012,3.731,3.7088,3.6576,3.5901,3.7054,3.8278,3.7649,3.9072,0.0,4.169,4.2728,4.4003,4.5876,4.6751,4.7907,5.0344,5.1688,5.2931,5.4399,5.5721,5.6271,5.5464,5.55,5.5559,5.5354,5.5354,5.4573,5.2484,5.2139,5.1227,4.9141,4.9018,4.9018,4.9018,4.9018,4.9018,4.9018,4.9018,4.9018,4.9018,4.9018,4.9357,5.0101,5.0236,5.1014,5.23,5.2469,5.2875,5.3518,5.3518,5.3518,5.3551,5.4126,5.4465,5.4668,5.5243,5.6021,5.6867,5.7476,5.778,5.7881,4.6965,4.7194,4.7454,4.7454,4.7326,4.7297,4.7337,4.7301,4.7248,4.7156,4.6261,4.5584,4.5584,4.4218,4.309,4.2432,4.1866,4.182,4.246,4.2589,4.3229,4.4525,4.4615,4.4953,4.5698,4.6041,4.6244,4.6244,4.655,4.6175,4.5156,4.5077,4.4674,4.4045,4.5162,4.5906,4.6312,4.7428,4.8308,4.9018,4.9018,4.9018,4.9018,4.9018,4.8781,4.8281,4.7077,4.5108,4.3006,4.2654,4.1492,4.03,4.0769,3.9881,3.8645,3.8241,3.7826,3.737,3.6637,3.7198,3.7864,3.7164,3.806,0.0,0.0,4.0026,4.1299,4.3321,4.3933,4.4952,4.7693,4.8789,5.0017,5.236,5.3731,5.4748,5.5515,5.6271,5.6638,5.6235,5.6198,5.5454,5.3641,5.274,5.1367,4.9175,4.9018,4.9018,4.9018,4.9018,4.9018,4.9018,4.9018,4.9018,4.9018,4.9018,4.9187,4.956,4.9898,5.0676,5.1758,5.2131,5.2739,5.3518,5.3518,5.3518,5.3551,5.389,5.4499,5.5209,5.5953,5.6697,5.7374,5.7746,5.7881,5.7881,4.8001,4.8365,4.8763,4.8763,4.8186,4.799,4.8648,4.8709,4.8634,4.8655,4.7763,4.6912,4.6353,4.4708,4.3205,4.2081,4.0995,4.1015,4.2491,4.2205,4.2769,4.4497,4.4615,4.5145,4.6306,4.6005,4.6436,4.7602,4.7084,4.6462,4.5821,4.5727,4.5148,4.4312,4.5958,4.6556,4.6408,4.8044,4.8836,4.9018,4.9018,4.9018,4.9018,4.9018,4.9018,4.8759,4.6971,4.5016,4.3364,4.3807,4.2942,4.1628,4.1055,4.0673,4.0163,3.895,3.8565,3.8402,3.7605,3.7584,3.7734,3.7464,3.767,3.7861,0.0,0.0,0.0,4.0896,4.1342,4.2313,4.515,4.5834,4.6992,4.9955,5.1213,5.2472,5.4483,5.6134,5.7045,5.6813,5.6525,5.5905,5.4737,5.2951,5.113,4.9345,4.9086,4.9052,4.9187,4.9086,4.9018,4.9018,4.9018,4.9018,4.9018,4.9018,4.9018,4.9018,4.9593,5.027,5.1014,5.1758,5.2536,5.3281,5.345,5.3518,5.3518,5.3653,5.4499,5.5784,5.6359,5.7137,5.7881,5.7881,5.7881,5.7881,4.8863,4.8897,4.8964,4.8964,4.9407,4.9781,4.9882,4.9882,4.9791,4.9577,4.8619,4.7877,4.7588,4.5812,4.4458,4.4008,4.1773,4.1631,4.4562,4.3004,4.2769,4.4497,4.4615,4.4613,4.4664,4.5848,4.6517,4.6572,4.7174,4.7068,4.6315,4.6317,4.6623,4.7199,4.6691,4.7219,4.8501,4.8031,4.8288,4.9018,4.9018,4.9018,4.9018,4.9018,4.9018,4.8723,4.6437,4.5036,4.4028,4.2718,4.1624,4.0829,4.0767,3.9757,3.8641,3.8477,3.8412,3.8292,3.7618,3.8272,3.8901,3.7704,3.8312,3.8922,3.7832,0.0,3.8529,3.8325,0.0,4.0407,4.2268,0.0,0.0,4.7653,4.9361,5.0656,5.1561,5.3022,5.4686,5.6575,5.5665,5.4797,5.4616,5.1979,5.0183,4.9992,4.9357,4.9289,4.9932,4.9357,4.9018,4.9018,4.9018,4.9018,4.9018,4.9018,4.9018,4.9018,4.9086,4.9492,5.0236,5.1014,5.1725,5.2469,5.3179,5.3518,5.3551,5.4194,5.4972,5.5716,5.5818,5.6697,5.7881,5.7881,5.7881,5.7881,4.9018,4.9018,4.912,4.956,4.9526,4.9763,5.0608,5.1082,5.1493,5.1865,5.0636,4.9438,4.8783,4.7129,4.5387,4.3858,4.3243,4.3381,4.4471,4.3816,4.4144,4.5809,4.5466,4.5567,4.6299,4.6922,4.7413,4.7745,4.7998,4.7784,4.7097,4.701,4.6998,4.7051,4.757,4.8201,4.8924,4.9469,4.9639,4.9576,4.9576,4.9346,4.9018,4.9018,4.8477,4.7601,4.6596,4.5503,4.4348,4.3146,4.252,4.2109,4.1593,4.0642,3.9845,4.0324,4.0121,3.9681,3.9405,3.9742,3.9873,3.8832,3.8691,3.8707,3.8182,3.7704,3.7663,3.8685,0.0,0.0,0.0,0.0,0.0,0.0,4.6812,4.8528,4.9685,5.0048,5.1352,5.4511,5.4722,5.4251,5.3345,5.1302,4.986,4.9486,4.956,4.9593,4.9458,4.956,4.9424,4.9018,4.9018,4.9018,4.9018,4.9018,4.9018,4.9018,4.9018,4.939,5.0135,5.0879,5.1623,5.2334,5.3145,5.3518,5.3518,5.3822,5.4668,5.5681,5.5681,5.6596,5.7881,5.7881,5.7881,5.7881,4.9052,4.9018,4.9187,4.9695,4.9357,4.9424,5.071,5.1352,5.2063,5.3044,5.1865,5.0676,4.9872,4.8201,4.6278,4.4182,4.4414,4.4571,4.4377,4.4365,4.4939,4.6148,4.5872,4.6129,4.7021,4.7465,4.7984,4.8602,4.8496,4.8337,4.8171,4.8042,4.7897,4.7738,4.8839,4.9412,4.9519,5.0574,5.0743,5.0279,5.0279,4.9861,4.9256,4.9077,4.8206,4.709,4.6853,4.5974,4.4767,4.3956,4.3502,4.3169,4.2552,4.1756,4.1164,4.1788,4.1528,4.1093,4.1315,4.1346,4.1174,4.0264,3.9688,3.9164,3.8522,3.7823,3.7639,3.8831,3.8563,0.0,0.0,0.0,4.2232,0.0,0.0,4.6576,4.7831,4.7897,4.9104,5.2467,5.3524,5.3453,5.211,5.0795,4.9894,4.9622,4.9729,4.9661,4.9323,4.9627,4.956,4.9018,4.9018,4.9018,4.9018,4.9018,4.9018,4.9018,4.9018,4.9289,4.983,5.0777,5.1488,5.2063,5.3078,5.3518,5.3518,5.3518,5.4363,5.5681,5.5681,5.6596,5.7881,5.7881,5.7881,5.7881,4.9154,4.9018,4.9018,4.9052,4.9018,4.9255,4.9999,5.0135,5.0676,5.2164,5.1658,5.1094,5.0876,4.8924,4.7158,4.5939,4.4851,4.4447,4.5051,4.4658,4.4474,4.4654,4.5331,4.5589,4.5363,4.6825,4.7836,4.8321,4.8304,4.8708,4.9551,4.9534,4.9938,5.0668,5.0705,5.0778,5.0862,5.0898,5.0987,5.106,5.106,5.0608,4.989,4.9226,4.8545,4.777,4.7056,4.6312,4.5568,4.4823,4.4006,4.3323,4.3292,4.2645,4.1949,4.1981,4.1949,4.2109,4.2846,4.3006,4.2809,4.1959,4.1717,4.1102,3.8908,3.8871,3.896,3.7738,3.8487,3.9681,4.0738,0.0,0.0,0.0,0.0,0.0,0.0,4.6984,4.8757,5.0998,5.1908,5.2075,5.1298,5.0553,5.0376,5.108,4.983,4.9323,5.0033,4.939,4.9018,4.9018,4.9018,4.9018,4.9018,4.9018,4.9018,4.9018,4.9018,4.9018,4.9086,5.0541,5.1185,5.132,5.2841,5.3518,5.3518,5.3518,5.4363,5.5681,5.5681,5.6596,5.7881,5.7881,5.7881,5.7881,4.9763,5.0127,5.0168,4.9178,4.9376,5.011,5.1348,5.0748,5.0811,5.2841,5.1995,5.1094,5.0841,4.9747,4.8409,4.6892,4.6977,4.6778,4.606,4.6439,4.6754,4.6756,4.7022,4.7511,4.8311,4.8866,4.9423,4.9958,4.9958,5.0105,5.0398,5.0398,5.0545,5.0839,5.1353,5.1616,5.1667,5.2193,5.2186,5.1681,5.0673,5.047,5.0635,4.9919,4.8621,4.7158,4.6887,4.6007,4.4925,4.4682,4.4412,4.415,4.415,4.3562,4.2986,4.3529,4.332,4.2896,4.3155,4.3221,4.3131,4.2745,4.2291,4.1843,4.1545,4.0879,4.0151,3.9692,3.9476,3.9561,4.0056,0.0,0.0,0.0,0.0,0.0,0.0,4.5838,4.7092,4.8804,4.9688,5.0188,5.0391,5.0223,5.0005,4.9763,4.9729,4.9627,4.939,4.9593,4.9492,4.9018,4.9018,4.9018,4.9018,4.9018,4.9018,4.9018,4.9018,4.9255,4.9763,5.0744,5.1488,5.1995,5.3044,5.3518,5.3518,5.3518,5.4363,5.5681,5.5681,5.6596,5.7881,5.7881,5.7881,5.7881,5.0909,5.1474,5.1523,5.0039,5.0135,5.0835,5.2117,5.1483,5.1522,5.3281,5.2638,5.1832,5.1391,5.0657,4.9552,4.7861,4.8328,4.81,4.6617,4.7378,4.777,4.753,4.7736,4.8403,4.9478,5.0069,5.0498,5.0802,5.1096,5.1242,5.1242,5.1242,5.1059,5.0839,5.194,5.2123,5.1646,5.2747,5.2937,5.2391,5.1454,5.1213,5.1368,5.0662,4.9041,4.7096,4.6903,4.5838,4.4615,4.4615,4.4615,4.4615,4.4615,4.4207,4.3889,4.444,4.4179,4.3805,4.4072,4.4138,4.4059,4.3682,4.3233,4.2911,4.304,4.2291,4.1507,4.1574,4.082,4.0388,4.0891,0.0,0.0,0.0,0.0,0.0,0.0,4.5399,4.6244,4.7703,4.8342,4.8965,4.9919,4.9835,4.9492,4.9052,4.9424,4.939,4.8646,4.9323,4.9492,4.9018,4.9018,4.9018,4.9018,4.9018,4.9018,4.9018,4.9255,4.9627,5.0135,5.115,5.186,5.2334,5.3145,5.3518,5.3518,5.3518,5.4363,5.5681,5.5681,5.6596,5.7881,5.7881,5.7881,5.7915,5.2438,5.3043,5.3047,5.1673,5.1298,5.1477,5.2339,5.2395,5.2602,5.3449,5.3483,5.3144,5.2334,5.1588,5.0487,4.8861,4.8884,4.8306,4.6681,4.7443,4.7631,4.6887,4.7564,4.8232,4.8876,5.0342,5.1036,5.0908,5.1683,5.2087,5.2123,5.2087,5.161,5.0949,5.2527,5.2307,5.0912,5.2527,5.3203,5.3203,5.3188,5.2733,5.2089,5.1358,4.9758,4.7781,4.7072,4.5838,4.4615,4.4615,4.4615,4.4615,4.4615,4.4615,4.4615,4.4615,4.4615,4.475,4.5466,4.5669,4.5462,4.4652,4.4436,4.4218,4.346,4.3201,4.3167,4.3201,4.2498,4.2174,4.3182,0.0,0.0,0.0,0.0,0.0,0.0,4.5612,4.6152,4.7703,4.7804,4.8342,4.9898,4.939,4.9018,4.9018,4.8984,4.868,4.7973,4.8612,4.9018,4.9018,4.9018,4.9018,4.9018,4.9052,4.9052,4.9052,4.9796,5.0168,5.0236,5.1657,5.2334,5.2401,5.3179,5.3518,5.3518,5.3518,5.4363,5.5681,5.5681,5.6596,5.7881,5.7881,5.7881,5.8017,5.3148,5.4207,5.4957,5.4544,5.2626,5.1962,5.4456,5.3376,5.2776,5.4115,5.3326,5.2334,5.1549,5.0799,4.9941,4.9005,4.8962,4.8588,4.76,4.8287,4.8409,4.7665,4.8342,4.9031,4.9694,5.0612,5.1626,5.2658,5.2827,5.3188,5.3775,5.3188,5.2454,5.172,5.2747,5.2307,5.0912,5.2527,5.3203,5.313,5.2564,5.2553,5.2777,5.1463,4.9971,4.8457,4.7238,4.5838,4.4615,4.4615,4.4615,4.4615,4.4615,4.4615,4.4615,4.4615,4.4615,4.4649,4.4852,4.4857,4.4964,4.5303,4.4942,4.4778,4.5644,4.5293,4.4786,4.4882,4.4556,4.4255,4.4156,4.3926,0.0,0.0,0.0,0.0,0.0,4.4281,4.4923,4.7575,4.6447,4.6447,4.9018,4.912,4.9018,4.9018,4.8511,4.8342,4.8714,4.8917,4.9018,4.9018,4.9018,4.9018,4.9018,4.9526,4.983,4.983,5.0574,5.1217,5.1758,5.2131,5.2638,5.3213,5.3416,5.3518,5.3518,5.3518,5.4363,5.5681,5.5681,5.6596,5.7881,5.7881,5.7881,5.8017,5.4251,5.5371,5.6296,5.6593,5.4662,5.3663,5.5408,5.4304,5.3576,5.4419,5.3472,5.2431,5.1746,5.0985,5.0357,4.9925,4.9346,4.8968,4.8821,4.8931,4.8815,4.8409,4.8781,4.9316,4.9976,5.0417,5.1376,5.2762,5.2772,5.3135,5.3885,5.3408,5.2601,5.1536,5.2674,5.2307,5.0912,5.2527,5.3203,5.3188,5.2711,5.2821,0.0,5.1874,5.0736,4.9638,4.8207,4.6364,4.4615,4.4615,4.4615,4.4615,4.4615,4.4615,4.4615,4.4615,4.4615,4.4615,4.4615,4.4852,4.5094,4.5196,4.5365,4.5669,4.621,4.6159,4.5993,4.6054,4.5664,4.5342,4.5435,4.4851,0.0,0.0,0.0,0.0,0.0,4.3847,4.4713,4.7136,4.6887,4.7158,4.8849,4.8139,4.7834,4.8477,4.8443,4.8274,4.8037,4.8951,4.9187,4.8545,4.9458,4.983,4.9492,5.0541,5.0913,5.0574,5.1352,5.1894,5.23,5.2672,5.3078,5.3518,5.3518,5.3518,5.3518,5.3518,5.4194,5.5277,5.5953,5.69,5.7881,5.7881,5.7881,5.8051,5.5577,5.6452,5.7189,5.7886,5.6822,5.5907,5.6018,5.531,5.4784,5.4674,5.4153,5.3345,5.2307,5.1878,5.1514,5.1272,5.0149,4.9628,5.0114,4.953,4.9077,4.8984,4.9018,4.9256,4.9867,5.0004,5.0751,5.2138,5.2149,5.2568,5.3371,5.3151,5.2344,5.1169,5.238,5.2123,5.0875,5.2307,5.2968,5.3078,5.3188,5.3203,5.3124,5.2509,5.1736,5.0813,4.9567,4.7256,4.4856,4.4856,4.4766,4.4649,4.4852,4.475,4.4615,4.4716,4.4682,4.4615,4.4615,4.506,4.5432,4.4857,4.5703,4.6515,4.5974,4.6346,4.6819,4.6921,4.6344,4.6034,4.6802,0.0,0.0,0.0,0.0,0.0,4.3023,4.3729,4.4693,4.6279,4.7639,0.0,4.8849,4.7192,4.6684,4.7939,4.8545,4.8308,4.6989,4.8849,4.9323,4.7939,4.9934,5.0811,5.0236,5.1623,5.2029,5.1522,5.2164,5.2469,5.2469,5.3179,5.3518,5.3518,5.3518,5.3518,5.3518,5.3518,5.3991,5.4871,5.6359,5.734,5.7881,5.7881,5.7881,5.8084,5.6566,5.7267,5.7813,5.796,5.7776,5.7607,5.7601,5.6899,5.6176,5.5559,5.591,5.5184,5.2511,5.3278,5.3514,5.2227,5.189,5.1535,5.109,5.0299,4.958,4.9015,4.9018,4.9046,4.9199,4.9722,5.0759,5.2252,5.2197,5.2835,5.4179,5.2821,5.2417,5.2726,5.1683,5.1059,5.0839,5.1096,5.161,5.227,5.2931,5.3203,5.3203,5.306,5.2193,5.099,5.0695,4.8788,4.6323,4.6243,4.5521,4.4818,4.6007,4.5596,4.4716,4.5331,4.506,4.4615,4.4615,4.4716,4.4891,4.5399,4.5703,4.6007,4.6481,4.6718,4.6955,4.7597,4.7578,4.7518,4.7703,0.0,0.0,0.0,4.2619,4.1283,4.2912,4.2719,4.3037,4.4629,4.5123,4.6075,4.7936,4.8308,4.8545,4.8781,4.8376,4.7973,4.7703,4.8646,4.8815,4.7906,4.9458,5.0507,5.1014,5.186,5.257,5.3112,5.3247,5.3281,5.3281,5.345,5.3518,5.3518,5.3518,5.3518,5.3518,5.3518,5.4296,5.5649,5.7137,5.778,5.7881,5.7881,5.7881,5.8084,5.7688,5.8095,5.8354,5.8354,5.8164,5.7997,5.7997,5.7336,5.6672,5.6332,5.6237,5.546,5.3544,5.3689,5.3616,5.2822,5.2126,5.1679,5.1705,5.1395,5.0878,5.0163,5.0163,4.9987,4.956,4.9146,4.9631,5.1115,5.1053,5.1754,5.319,5.2401,5.1977,5.1903,5.0692,5.0618,5.1426,5.1426,5.1903,5.2674,5.302,5.3203,5.3203,5.3203,5.2761,5.2069,5.169,5.0118,4.8267,4.792,4.6838,4.5802,4.6494,4.5766,4.4682,4.5026,4.5128,4.5162,4.5162,4.5737,4.6312,4.6278,4.6853,4.7293,4.6887,4.7394,4.7936,4.7906,4.8176,4.8376,4.7973,4.6588,4.5527,4.5525,4.3385,4.2219,4.3449,4.2973,4.3138,4.4744,4.5403,4.6447,4.8308,4.8815,4.8849,4.8477,4.8477,4.8139,4.7361,4.8409,4.868,4.7906,4.9695,5.0845,5.1185,5.2739,5.3484,5.3518,5.3518,5.3518,5.3518,5.3518,5.3518,5.3518,5.3518,5.3518,5.3551,5.3923,5.4702,5.5818,5.69,5.7543,5.7949,5.8321,5.8457,5.8626,5.8544,5.8611,5.8549,5.8549,5.8238,5.7997,5.7997,5.7446,5.7005,5.6822,5.6235,5.5464,5.4509,5.4182,5.3908,5.3512,5.2593,5.2193,5.2594,5.2727,5.2484,5.1708,5.1736,5.1448,5.0861,4.953,4.9367,5.0445,5.0458,5.0987,5.2104,5.2023,5.1463,5.0508,5.0068,5.0455,5.152,5.1646,5.2197,5.2968,5.3151,5.3203,5.3203,5.3203,5.3203,5.3093,5.227,5.125,5.0176,4.9505,4.8123,4.6716,4.703,4.6182,4.5069,4.5398,4.5688,4.5969,4.6107,4.6869,4.7564,4.7158,4.7902,4.8477,4.7293,4.7936,4.8612,4.8007,4.8511,4.8815,4.821,4.7445,4.6738,4.6306,4.4654,4.3648,4.4487,4.4008,4.3945,4.5073,4.614,4.7192,4.8206,4.8578,4.8477,4.7733,4.8376,4.8206,4.6853,4.8037,4.8443,4.7699,4.9965,5.1285,5.1454,5.3382,5.416,5.3721,5.3585,5.3518,5.3518,5.3518,5.3518,5.3518,5.3518,5.3518,5.3585,5.4465,5.5175,5.5818,5.6697,5.7476,5.8186,5.8795,5.9099,5.9336,5.8611,5.8354,5.8088,5.8088,5.8042,5.7997,5.7997,5.7923,5.7629,5.6895,5.6748,5.6124,5.4583,5.564,5.5874,5.4436,5.4825,5.4957,5.4387,5.4361,5.4061,5.3343,5.3316,5.3289,5.3172,5.2332,5.188,5.1886,5.1886,5.1946,5.2024,5.1993,5.1189,4.9757,5.0398,5.0362,4.9867,5.0582,5.1389,5.216,5.2931,5.3203,5.3203,5.3203,5.3203,5.3093,5.227,5.1919,5.1694,5.09,4.8734,4.6647,4.807,4.7569,4.6698,4.801,4.7615,4.6826,4.7431,4.7267,4.7056,4.7665,4.7906,4.797,4.7804,4.7906,4.7973,4.7906,4.8511,4.8984,4.8917,4.8281,4.7983,4.8557,4.6766,4.5501,4.6256,4.5729,4.507,4.4572,4.5868,4.6583,4.6075,4.7225,4.7699,4.6955,4.7597,4.7665,4.6819,4.7564,4.7665,4.6921,4.9695,5.1522,5.2198,5.3145,5.389,5.4465,5.3822,5.3518,5.3518,5.3518,5.3518,5.3518,5.3518,5.3518,5.3619,5.504,5.5649,5.5817,5.7239,5.8254,5.893,5.8998,5.9438,6.0114,5.8673,5.8528,5.8418,5.8418,5.8209,5.8074,5.8375,5.7361,5.6735,5.7154,5.697,5.6381,5.5244,5.5244,5.528,5.5133,5.495,5.4972,5.5186,5.5673,5.5607,5.485,5.485,5.4668,5.4177,5.2945,5.2271,5.2208,5.2138,5.2085,5.2045,5.1517,5.0655,4.961,4.9941,5.0435,5.1079,5.1389,5.1977,5.2747,5.3057,5.3203,5.3203,5.3203,5.3203,5.3188,5.2858,5.2417,5.1867,5.1059,4.9428,4.7823,4.8445,4.8009,4.7367,4.7957,4.8397,4.8765,4.9056,4.8923,4.8781,4.9061,4.8843,4.8578,4.8578,4.8578,4.8578,4.8578,4.8815,4.9018,4.9018,4.8781,4.868,4.8951,0.0,0.0,0.0,4.6188,4.5332,4.5036,4.5269,4.5703,4.6278,4.6887,4.7665,4.868,4.8646,4.824,4.7496,4.7327,4.7496,4.8105,4.9255,5.0473,5.1623,5.2875,5.3653,5.3923,5.3653,5.3518,5.3518,5.3518,5.3518,5.3518,5.3518,5.3518,5.3619,5.5108,5.5681,5.5852,5.7306,5.8355,5.9066,5.9505,5.9844,6.0283,5.8874,5.8913,5.8913,5.8913,5.8545,5.8326,5.8652,5.7143,5.6168,5.6829,5.6645,5.6235,5.5647,5.528,5.5244,5.5596,5.528,5.5354,5.5904,5.6712,5.6909,5.6406,5.6406,5.6172,5.5613,5.4297,5.3401,5.291,5.2833,5.2536,5.2064,5.1679,5.1096,5.0308,5.0308,5.0932,5.1977,5.1977,5.2454,5.3203,5.3203,5.3203,5.3203,5.3203,5.3203,5.3167,5.2931,5.2491,5.1867,5.1059,4.9971,4.8835,4.8581,4.8407,4.833,4.8552,4.9412,5.0297,5.0297,5.0169,4.9947,4.9751,4.9376,4.9018,4.9018,4.9018,4.9018,4.9018,4.9018,4.9018,4.9018,4.9018,4.9018,4.9018,0.0,0.0,0.0,4.7135,0.0,4.6173,4.579,4.5805,4.6413,4.665,4.7428,4.8984,4.8849,4.8477,4.7906,4.7192,4.7259,4.8308,4.8984,0.0,5.1217,5.2739,5.3518,5.3518,5.3518,5.3518,5.3518,5.3518,5.3518,5.3518,5.3721,5.3822,5.3923,5.5446,5.6021,5.6156,5.7408,5.849,5.9404,5.9911,6.0385,6.0926,5.9302,5.9389,5.9389,5.9389,5.899,5.8676,5.8713,5.7602,5.6528,5.5743,5.5633,5.5633,5.5596,5.6308,5.6455,5.5647,5.6308,5.6785,5.6785,5.7556,5.7997,5.796,5.796,5.7997,5.7937,5.7166,5.5955,5.4378,5.4378,5.3555,5.2013,5.2821,5.2747,5.1977,5.1977,5.1977,5.1977,5.1977,5.2454,5.3203,5.3203,5.3203,5.3203,5.3203,5.3203,5.3093,5.2307,5.2013,5.1867,5.1059,5.0251,4.9444,4.86,4.893,4.9798,5.0545,5.0908,5.1086,5.1086,5.0554,4.9833,4.9199,4.9018,4.9018,4.9018,4.9018,4.9018,4.9018,4.9018,4.9018,4.9018,4.9018,4.9018,4.9018,0.0,0.0,0.0,4.8954,0.0,4.7973,4.7872,4.7263,4.5872,4.638,4.6819,4.6819,4.753,4.7906,4.7906,4.7192,4.6786,4.6819,4.8951,0.0,5.1185,5.2739,5.3518,5.3518,5.3518,5.3518,5.3518,5.3518,5.3518,5.3551,5.4262,5.4566,5.4702,5.619,5.6799,5.6867,5.7611,5.8795,6.008,6.0114,6.1061,6.2347,5.8835,5.8932,5.9009,5.9337,5.9028,5.8796,5.9121,5.7819,5.6647,5.6125,5.5797,5.539,5.484,5.55,5.6088,5.6381,5.6638,5.7042,5.7593,5.785,5.7997,5.7997,5.7997,5.7997,5.7997,5.7226,5.6565,5.6051,5.495,5.3592,5.2013,5.227,5.2234,5.1977,5.1977,5.2307,5.2821,5.2821,5.2968,5.3203,5.3203,5.3203,5.3203,5.3203,5.3203,5.3167,5.2931,5.2821,5.2711,5.1903,5.1426,5.1096,5.0251,5.0204,5.0592,5.1385,5.2053,5.2509,5.2509,5.1679,5.0689,5.0472,4.9693,4.9018,4.9018,4.9018,4.9018,4.9018,4.9018,4.9018,4.9018,4.9018,4.9018,4.9018,4.9018,0.0,4.9018,0.0,4.7394,4.7192,4.6718,4.621,4.5771,4.6819,4.7767,4.8274,4.8984,4.8951,4.7939,4.7699,0.0,0.0,4.8714,0.0,5.1217,5.2198,5.2976,5.3518,5.3518,5.3518,5.3518,5.3518,5.3518,5.3551,5.4262,5.46,5.4702,5.619,5.6799,5.6867,5.7611,5.849,5.9404,5.9911,6.0757,6.1704,5.8331,5.8633,5.8919,5.9345,5.9145,5.9047,5.9354,5.7942,5.6625,5.6084,5.5776,5.528,5.4473,5.5097,5.5904,5.6748,5.7079,5.7446,5.796,5.7997,5.7997,5.7997,5.7997,5.7997,5.7997,5.7519,5.6969,5.6345,5.473,5.3445,5.2454,5.2454,5.2454,5.2454,5.2454,5.2747,5.3203,5.3203,5.3203,5.3203,5.3203,5.3203,5.3203,5.3203,5.3203,5.3203,5.3203,5.3203,5.3093,5.2637,5.2234,5.1977,5.1756,5.172,5.1756,5.194,5.2564,5.3124,5.2872,5.1946,5.1034,5.0743,4.9838,4.9018,4.9018,4.9018,4.9018,4.9018,4.9018,4.9018,4.9018,4.9018,4.9086,4.9357,4.9187,4.9086,4.9357,0.0,4.7631,0.0,4.7225,4.6819,4.6549,4.7631,4.8409,4.8578,4.9526,4.9458,4.7973,4.8443,4.8612,4.8342,4.9323,5.0405,5.1623,5.2367,5.301,5.3518,5.3518,5.3518,5.3518,5.3518,5.3518,5.3551,5.4566,5.5006,5.5141,5.6596,5.7205,5.7273,5.7712,5.8355,5.9099,5.9844,6.0622,6.14,5.7763,5.8379,5.8904,5.9391,5.9397,5.9348,5.9407,5.7999,5.661,5.5743,5.5596,5.5244,5.4399,5.5023,5.5831,5.6638,5.7446,5.7923,5.7997,5.7997,5.7997,5.7997,5.7997,5.7997,5.7997,5.7997,5.7189,5.5596,5.4032,5.324,5.3203,5.3203,5.3203,5.3203,5.3203,5.3203,5.3203,5.3203,5.3203,5.3203,5.3203,5.3203,5.3203,5.3203,5.3203,5.3203,5.3203,5.3203,5.3203,5.3203,5.2711,5.2197,5.2968,5.3261,5.3151,5.238,5.2747,5.3207,5.2467,5.1714,5.0999,5.0258,4.9551,4.9018,4.9018,4.9018,4.9018,4.9018,4.9018,4.9018,4.9018,4.9052,4.9289,4.9898,4.9492,4.9289,4.9932,4.939,4.8917,4.8917,4.8984,4.8748,4.8041,4.8646,4.8815,4.8176,4.939,4.9593,4.8176,0.0,4.9932,4.9052,5.0439,5.1555,5.23,5.3044,5.345,5.3518,5.3518,5.3518,5.3518,5.3518,5.3518,5.3585,5.5006,5.5683,5.5818,5.7239,5.7848,5.7881,5.7949,5.8389,5.9099,5.9911,6.0655,6.14,5.6593,5.7065,5.7734,5.8852,5.8983,5.9048,5.9328,5.8763,5.7603,5.5824,5.5596,5.506,5.3665,5.4216,5.5023,5.5794,5.6638,5.7336,5.796,5.7997,5.7997,5.7997,5.7997,5.7997,5.7997,5.7997,5.7189,5.5596,5.4583,5.3812,5.3203,5.3203,5.3203,5.3203,5.3203,5.3203,5.3203,5.3203,5.3203,5.3203,5.3203,5.3203,5.3203,5.3203,5.3203,5.3203,5.3203,5.3203,5.3203,5.3203,5.3057,5.2968,5.3151,5.3628,5.4069,5.3885,5.4399,5.4855,5.4078,5.2979,5.1803,5.1017,4.9925,4.9018,4.9018,4.9018,4.9018,4.9018,4.9018,4.9018,4.9018,4.9458,4.9695,4.9323,4.9593,4.9695,4.9323,4.8646,4.8173,4.8173,4.868,4.8951,4.8781,4.939,4.9999,0.0,5.0744,5.0811,5.0441,5.186,5.1555,4.9086,5.0439,5.1555,5.23,5.2503,5.2909,5.3518,5.3518,5.3518,5.3518,5.3518,5.3518,5.3551,5.4465,5.5175,5.5749,5.6697,5.7374,5.7949,5.8524,5.8863,5.9167,6.052,6.1129,6.14,5.5544,5.6063,5.663,5.7582,5.7862,5.799,5.8216,5.8031,5.7159,5.5287,5.5354,5.5133,5.3885,5.3812,5.4473,5.6014,5.6565,5.7152,5.796,5.7997,5.7997,5.7997,5.7997,5.7813,5.7446,5.7813,5.7189,5.5596,5.4803,5.3995,5.3203,5.3203,5.3203,5.3203,5.3203,5.3203,5.3203,5.3203,5.3203,5.3203,5.3203,5.3203,5.3203,5.3203,5.3203,5.3203,5.3203,5.3203,5.3203,5.3203,5.3203,5.3203,5.3203,5.3995,5.495,5.495,5.5244,5.55,5.506,5.4181,5.3012,5.1536,5.0616,4.9846,4.9145,4.9255,4.939,4.9086,4.9255,4.939,4.9052,4.9323,4.956,4.9492,4.956,4.956,4.9492,4.8883,4.8663,4.9359,4.9829,5.0321,5.1014,5.1736,5.2041,5.1782,5.2367,0.0,5.1251,5.2672,5.2768,5.11,5.1817,5.2632,5.3327,5.3006,5.3078,5.3518,5.3518,5.3518,5.3518,5.3856,5.3991,5.4059,5.5141,5.5818,5.6258,5.7002,5.7543,5.7949,5.8727,5.9032,5.9201,6.0723,6.1298,6.14,5.4516,5.5095,5.5589,5.613,5.6503,5.679,5.6949,5.6863,5.6235,5.4788,5.506,5.5097,5.4326,5.3628,5.4142,5.6418,5.6638,5.7005,5.7923,5.7997,5.7997,5.7997,5.7997,5.7629,5.6822,5.7336,5.7042,5.5757,5.4987,5.4179,5.3408,5.3408,5.3314,5.3203,5.3203,5.3203,5.3203,5.3203,5.3203,5.3203,5.3203,5.3203,5.3203,5.3335,5.3314,5.3203,5.3482,5.3482,5.3387,5.3518,5.3482,5.3387,5.3518,5.4509,5.5611,5.5757,5.589,5.5941,5.5794,5.5202,5.4101,5.1983,5.147,5.1095,4.9804,4.9906,5.0119,4.9641,4.989,5.0067,4.9458,4.9424,4.9692,5.0323,4.9822,4.9585,5.0308,0.0,4.9876,5.1286,5.1679,5.2284,5.352,5.4248,5.4148,5.2997,5.3832,5.367,5.1815,5.2938,5.3671,5.3671,5.3574,5.3816,5.4419,5.3816,5.3518,5.3518,5.3619,5.3687,5.3687,5.4431,5.4769,5.4837,5.6089,5.6697,5.6867,5.7476,5.778,5.7983,5.8829,5.9167,5.937,6.0892,6.1467,6.1569,5.344,5.3809,5.4352,5.5171,5.5638,5.6216,5.7267,5.6813,5.6145,5.5515,5.4913,5.4289,5.3482,5.3298,5.3922,5.5611,5.5794,5.6418,5.7886,5.7997,5.7997,5.7997,5.7997,5.7629,5.6822,5.6271,5.6161,5.6602,5.5794,5.4987,5.4216,5.4216,5.3849,5.3203,5.3203,5.3203,5.3203,5.3203,5.3203,5.3203,5.3203,5.3203,5.3298,5.3959,5.3812,5.3408,5.473,5.4803,5.4326,5.4987,5.4766,5.4326,5.4987,5.539,5.5721,5.6418,5.7116,5.7483,5.6785,5.5616,5.4201,5.2546,5.2121,5.2058,5.1844,5.1394,5.1208,5.1751,5.1449,5.1014,5.0879,5.1386,5.1847,5.2011,5.1353,5.1145,5.1836,0.0,5.1245,5.204,5.3278,5.4181,5.4398,5.4504,5.4768,5.5164,5.4236,5.3814,5.4039,5.4281,5.4447,5.4433,5.3813,5.3551,5.3651,5.3551,5.3518,5.3518,5.4126,5.4431,5.4431,5.5209,5.5547,5.5547,5.5784,5.6224,5.6799,5.6934,5.734,5.8017,5.9404,5.9945,6.0114,6.167,6.2212,6.2245,5.3203,5.3506,5.3944,5.4336,5.4556,5.5002,5.5995,5.5646,5.5196,5.4993,5.462,5.4106,5.3277,5.3203,5.3849,5.5486,5.5596,5.6271,5.7886,5.7997,5.7997,5.7997,5.7593,5.7189,5.6822,5.6014,5.5978,5.6822,5.6418,5.5611,5.4399,5.4399,5.3959,5.3203,5.3203,5.3203,5.3203,5.3203,5.3203,5.3261,5.3665,5.3849,5.3922,5.473,5.4803,5.4583,5.5317,5.5354,5.5097,5.5464,5.5354,5.5097,5.5464,5.5904,5.6308,5.6712,5.7373,5.7923,5.7556,5.6969,5.6067,5.4558,5.42,5.3953,5.3158,5.2992,5.3022,5.298,5.2726,5.2323,5.1943,5.1775,5.1981,5.2913,5.2015,5.1785,5.3368,5.2568,5.2411,5.4015,5.4809,5.5574,5.6339,5.6425,5.6392,5.6331,5.5719,5.5285,5.5203,5.4818,5.4787,5.5173,5.4482,5.3913,5.3518,5.3518,5.3518,5.3518,5.4262,5.46,5.4634,5.5784,5.6292,5.6325,5.6697,5.707,5.7374,5.7374,5.7814,5.8592,5.9674,6.0351,6.0892,6.1975,6.2381,6.2381,5.3203,5.3444,5.3644,5.3644,5.3644,5.3978,5.4981,5.4564,5.4252,5.462,5.4363,5.3885,5.3298,5.3203,5.3849,5.5486,5.5596,5.6271,5.7886,5.7997,5.7997,5.7997,5.7226,5.6895,5.7079,5.6271,5.6271,5.7079,5.7079,5.6345,5.495,5.4766,5.4252,5.3482,5.3277,5.3203,5.3203,5.3203,5.3203,5.324,5.3885,5.4216,5.4473,5.528,5.5596,5.5669,5.6014,5.6014,5.5904,5.6088,5.6014,5.5904,5.6088,5.6455,5.6859,5.7042,5.7519,5.7997,5.7997,5.7997,5.7684,5.6334,5.6031,5.5726,5.4538,5.4563,5.475,5.4385,5.4141,5.3833,5.327,5.2662,5.2716,5.4145,0.0,5.2713,5.4901,5.3992,5.3862,5.5776,5.62,5.6734,5.7877,5.7997,5.7774,5.7227,5.6989,5.6642,5.6004,5.5262,5.5129,5.5683,5.5122,5.4576,5.4025,5.4025,5.4025,5.4025,5.4769,5.5108,5.5141,5.6461,5.7137,5.734,5.7712,5.7983,5.8152,5.8152,5.849,5.9099,6.0013,6.0757,6.14,6.211,6.2537,6.2697,5.3203,5.3209,5.323,5.323,5.323,5.3766,5.5309,5.4274,5.3812,5.5317,5.4216,5.3298,5.3203,5.3203,5.3849,5.5486,5.5596,5.6271,5.7886,5.7997,5.7997,5.7997,5.7226,5.7152,5.7886,5.7116,5.7116,5.7923,5.7923,5.7483,5.6602,5.5868,5.506,5.4289,5.3555,5.3203,5.3203,5.3203,5.3203,5.3203,5.324,5.3739,5.4473,5.528,5.5596,5.5816,5.7299,5.7336,5.6822,5.7556,5.7336,5.6859,5.7593,5.7336,5.6969,5.7703,5.796,5.7997,5.7997,5.7997,5.7813,5.696,5.6717,5.6694,5.6598,5.6092,5.5826,5.651,5.6062,5.5532,5.5462,5.5405,5.5667,5.6508,0.0,0.0,5.6413,5.5995,5.5837,5.6612,5.7377,5.7877,5.7997,5.7997,5.7973,5.7927,5.7302,5.6887,5.6835,5.6031,5.5637,5.5674,5.5646,5.5575,5.5547,5.5547,5.5547,5.5581,5.6292,5.663,5.6664,5.7442,5.8186,5.8829,5.8152,5.8287,5.893,5.893,5.8964,5.9167,6.0622,6.1264,6.14,6.211,6.2931,6.361,5.3203,5.3203,5.3203,5.3203,5.3203,5.3592,5.4693,5.3922,5.3592,5.4693,5.3885,5.3203,5.3203,5.3203,5.3665,5.4766,5.5317,5.6051,5.7189,5.7703,5.7776,5.7299,5.6969,5.6932,5.7262,5.6969,5.7189,5.7997,5.7997,5.7336,5.6051,5.5721,5.4913,5.3665,5.3314,5.3203,5.3203,5.3203,5.3203,5.3277,5.4289,5.4876,5.528,5.6602,5.7079,5.7152,5.7776,5.7813,5.7593,5.7886,5.7813,5.7593,5.7886,5.7776,5.7593,5.7923,5.7997,5.7997,5.7997,5.7997,5.7923,5.7629,5.7556,5.7556,5.7556,5.7334,5.7206,5.7534,5.6989,5.6421,5.6421,5.6451,5.6715,5.7493,0.0,5.6536,5.8077,5.7225,5.6679,5.746,5.8253,5.8547,5.8033,5.8437,5.8547,5.8033,5.8202,5.8312,5.8312,5.7611,5.7178,5.7136,5.6643,5.6166,5.5716,5.5681,5.5681,5.5716,5.6461,5.6799,5.6833,5.8051,5.8761,5.9032,5.9201,5.9438,5.9674,5.9674,5.9979,6.0562,6.1676,6.2378,6.2967,6.428,6.4988,6.5302,5.3203,5.3203,5.3203,5.3203,5.3203,5.3482,5.4289,5.3739,5.3482,5.4289,5.3702,5.3203,5.3203,5.3203,5.3518,5.4326,5.5133,5.5941,5.6748,5.7556,5.774,5.7189,5.7189,5.7189,5.7189,5.7189,5.7446,5.7997,5.7997,5.7299,5.5978,5.5721,5.4876,5.3592,5.3314,5.3203,5.3203,5.3203,5.3203,5.3314,5.4693,5.5354,5.5757,5.7116,5.7776,5.7997,5.7997,5.7997,5.7997,5.7997,5.7997,5.7997,5.7997,5.7997,5.7997,5.7997,5.7997,5.7997,5.7997,5.818,5.8327,5.807,5.7997,5.7997,5.7997,5.7997,5.807,5.8327,5.7582,5.7057,5.7536,5.7223,5.7249,5.8286,5.7995,5.8083,5.9406,5.8657,5.8143,5.8694,5.9245,5.9355,5.8804,5.9245,5.9355,5.8804,5.9281,5.948,5.9249,5.846,5.8024,5.8002,5.7672,5.7151,5.6393,5.6393,5.6393,5.6393,5.7137,5.7374,5.7171,5.8457,5.9032,5.9032,5.9539,5.9877,6.0114,6.0385,6.0947,6.1801,6.2601,6.3587,6.4638,6.5788,6.6545,6.7094,5.3203,5.3203,5.3203,5.3203,5.3203,5.3482,5.4289,5.3702,5.3482,5.4289,5.3702,5.3203,5.3203,5.3203,5.3518,5.4326,5.5133,5.5941,5.6748,5.7556,5.7997,5.7997,5.7997,5.7997,5.7997,5.7997,5.7997,5.7997,5.7997,5.7593,5.6785,5.5978,5.5133,5.4363,5.3555,5.3203,5.3203,5.3203,5.3203,5.3298,5.4069,5.4876,5.5684,5.6492,5.7299,5.7997,5.7997,5.7997,5.7997,5.7997,5.7997,5.7997,5.7997,5.7997,5.7997,5.7997,5.7997,5.7997,5.7997,5.8584,5.9001,5.8217,5.7997,5.8033,5.8033,5.8033,5.8253,5.9038,5.7983,5.7355,5.8907,5.7945,5.7406,5.8943,5.9195,5.9496,6.0286,6.0419,6.0419,6.0419,6.0419,6.0419,6.0419,6.0419,6.0419,6.0419,6.0419,6.0078,5.9338,5.844,5.7971,5.8037,5.873,5.8737,5.7952,5.7918,5.7918,5.7915,5.866,5.8626,5.7952,5.8693,5.9032,5.9032,5.9032,5.9438,6.0182,6.0994,6.1804,6.2681,6.3407,6.4743,6.6201,6.6201,6.7329,6.8817,5.3203,5.3203,5.3203,5.3203,5.3203,5.3277,5.3518,5.3371,5.3277,5.3555,5.3371,5.3203,5.3203,5.3203,5.3518,5.4326,5.5133,5.6161,5.7556,5.7886,5.7997,5.7997,5.7997,5.7997,5.7997,5.7997,5.7997,5.7997,5.7446,5.6748,5.5941,5.5133,5.4326,5.3555,5.3314,5.3203,5.3203,5.3203,5.3203,5.3314,5.4693,5.539,5.5757,5.7116,5.7776,5.7997,5.7997,5.7997,5.7997,5.7997,5.7997,5.7997,5.7997,5.7997,5.7997,5.7997,5.7997,5.8107,5.8694,5.9001,5.9148,5.8891,5.9281,5.9685,5.9685,5.9685,5.9578,5.9288,5.8849,5.8493,5.8367,5.8432,5.8685,5.9123,5.9664,6.0122,6.0359,6.0419,6.0419,6.0419,6.0896,6.1006,6.0456,6.0896,6.1006,6.0456,6.0933,6.0908,6.0107,6.0309,6.0159,5.963,5.9728,5.9995,6.0354,5.9288,5.8459,5.7918,5.9317,5.9874,5.9737,6.1569,6.2092,6.1561,6.2075,6.2046,6.1738,6.1975,6.259,6.3444,6.4287,6.566,6.7316,6.8512,6.9632,7.061,5.3151,5.3203,5.3203,5.3203,5.3203,5.3203,5.3203,5.3203,5.3203,5.3203,5.3203,5.3203,5.3203,5.3203,5.3518,5.4326,5.5427,5.6602,5.7923,5.7997,5.7997,5.7997,5.7997,5.7997,5.7997,5.7997,5.7997,5.7997,5.7189,5.6381,5.5596,5.4766,5.3959,5.3203,5.3203,5.3203,5.3203,5.3203,5.3203,5.3314,5.495,5.5596,5.5757,5.7373,5.7997,5.7997,5.7997,5.7997,5.7997,5.7997,5.7997,5.7997,5.7997,5.7797,5.7631,5.7927,5.7797,5.7777,5.8917,5.9404,5.9758,6.0089,6.0272,6.0419,6.0419,6.0419,6.0262,5.9789,5.9194,5.8709,5.8479,5.8317,5.845,5.907,5.9844,6.0508,6.0835,6.1165,6.1374,6.1374,6.1777,6.1887,6.141,6.1777,6.1727,6.0963,6.1631,6.1706,6.0853,6.1251,6.1247,6.0739,6.0659,6.0716,6.0863,6.0324,5.9596,5.8761,5.9826,6.0284,6.0318,6.2092,6.2402,6.1657,6.241,6.245,6.1975,6.2279,6.3124,6.4253,6.4799,6.6308,6.824,6.9245,7.0146,7.0954,5.3041,5.3203,5.3203,5.3203,5.3203,5.3203,5.3203,5.3203,5.3203,5.3203,5.3203,5.3203,5.3203,5.324,5.3628,5.4436,5.5978,5.7226,5.796,5.7997,5.7997,5.7997,5.7997,5.7997,5.7997,5.7997,5.7997,5.7997,5.7189,5.6381,5.5596,5.4766,5.3959,5.3203,5.3203,5.3203,5.3203,5.3203,5.3261,5.3445,5.4987,5.5647,5.5868,5.7409,5.7997,5.7997,5.7997,5.7997,5.7997,5.7997,5.7997,5.7997,5.7927,5.7547,5.7224,5.7836,5.7619,5.754,5.9005,5.9942,6.0713,6.152,6.1227,6.0713,6.0639,6.0603,6.0566,6.0404,5.9302,5.8461,5.8902,5.7841,5.739,5.8838,5.9832,6.067,6.1492,6.2298,6.278,6.278,6.278,6.278,6.278,6.2879,6.2662,6.1987,6.2618,6.2637,6.1761,6.1798,6.1744,6.1502,6.1641,6.1322,6.0445,6.1146,6.104,6.0114,6.0224,6.0333,6.0367,6.1223,6.1189,6.0469,6.1215,6.1477,6.1467,6.211,6.3427,6.4999,6.4999,6.6623,6.9009,6.8935,6.9449,7.0293,5.3041,5.3203,5.3203,5.3203,5.3203,5.3203,5.3203,5.3203,5.3203,5.3203,5.3203,5.3203,5.3203,5.3775,5.4473,5.5244,5.6822,5.7813,5.7997,5.7997,5.7997,5.7997,5.7997,5.7997,5.7997,5.7997,5.7997,5.7997,5.7189,5.6381,5.5596,5.4766,5.3959,5.3203,5.3203,5.3203,5.3203,5.3203,5.3555,5.4216,5.5207,5.5978,5.6638,5.7629,5.7997,5.7997,5.7997,5.7997,5.7997,5.7997,5.7997,5.7904,5.7327,5.7862,5.8628,5.8185,5.8833,5.9847,6.0811,6.119,6.152,6.2365,6.2915,6.3099,6.2438,6.2291,6.1938,6.0652,6.0129,5.9541,5.839,5.7891,5.7969,5.8942,5.9832,6.067,6.1492,6.2298,6.278,6.278,6.278,6.278,6.278,6.3429,6.4002,6.4469,6.4662,6.4367,6.3523,6.4004,6.3748,6.2476,6.3571,6.3823,6.3024,6.2544,6.1592,6.0114,6.1444,6.2048,6.2118,6.3555,6.3729,6.2908,6.308,6.2771,6.2178,6.2313,6.3427,6.4999,6.4999,6.6978,6.9743,6.9119,6.9816,7.0991,5.3041,5.3203,5.3203,5.3203,5.3203,5.3203,5.3203,5.2915,5.2702,5.2702,5.2702,5.2702,5.2702,5.3712,5.4876,5.6051,5.7299,5.7997,5.7997,5.7997,5.7997,5.7997,5.7997,5.7997,5.7997,5.7997,5.7997,5.7997,5.7189,5.6602,5.6161,5.495,5.4179,5.3775,5.335,5.3203,5.3203,5.3203,5.3445,5.3922,5.5097,5.5831,5.6345,5.7556,5.7997,5.7997,5.7997,5.7997,5.7997,5.7997,5.7997,5.7844,5.7116,5.7454,5.8093,5.8093,5.8671,5.9625,6.1165,6.1594,6.1887,6.3135,6.3759,6.398,6.3503,6.3723,6.3491,6.1834,6.1211,6.0458,5.8753,5.8118,5.8029,5.8459,5.9888,6.1117,6.1569,6.2958,6.3991,6.3991,6.3991,6.3991,6.3991,6.442,6.4694,6.4676,6.5411,6.5323,6.4015,6.5077,6.5141,6.3828,6.4176,6.4182,6.3762,6.2914,6.2036,6.1197,6.1732,6.2161,6.2541,6.3401,6.3501,6.3087,6.3087,6.2817,6.2381,6.2381,6.3427,6.4999,6.4999,6.6839,6.9486,6.9082,6.9669,7.0624,5.3041,5.3203,5.3203,5.3203,5.3103,5.3002,5.3002,5.2381,5.1946,5.1946,5.1946,5.1946,5.1946,5.3413,5.5015,5.6479,5.7474,5.7997,5.7997,5.7997,5.7997,5.7997,5.7997,5.7997,5.7997,5.7997,5.7997,5.7997,5.7336,5.6932,5.6785,5.5427,5.473,5.4583,5.3775,5.3408,5.3387,5.324,5.3277,5.3555,5.4987,5.5706,5.5978,5.7446,5.7997,5.7997,5.7997,5.7997,5.7997,5.7997,5.7997,5.7844,5.7116,5.7182,5.7588,5.8142,5.8573,5.9322,6.1259,6.1887,6.2365,6.3759,6.431,6.4494,6.4494,6.4934,6.4858,6.3229,6.2453,6.1453,5.9585,5.8713,5.8307,5.8135,5.9967,6.1481,6.1778,6.3691,6.5154,6.5301,6.5301,6.5375,6.5485,6.5521,6.5248,6.467,6.5898,6.6069,6.4622,6.5857,6.6145,6.5048,6.4459,6.4008,6.3726,6.298,6.262,6.262,6.1849,6.1806,6.2381,6.2381,6.2381,6.2381,6.2381,6.2381,6.242,6.2542,6.3574,6.5032,6.5163,6.6746,6.8935,6.9045,6.9449,6.9816,5.3041,5.3203,5.3203,5.3203,5.2644,5.2229,5.2229,5.1667,5.1241,5.1241,5.1241,5.1241,5.1241,5.3228,5.4955,5.5848,5.7204,5.7997,5.7997,5.7997,5.7997,5.7997,5.7997,5.7997,5.7997,5.7997,5.7997,5.7997,5.7886,5.7483,5.6822,5.6602,5.6088,5.539,5.4583,5.4252,5.4179,5.3518,5.3592,5.4326,5.5207,5.6014,5.6748,5.7666,5.7997,5.7997,5.7997,5.7997,5.7997,5.7997,5.7997,5.7844,5.7116,5.8293,5.9821,5.9299,6.056,6.2248,6.2572,6.3172,6.3796,6.4016,6.5154,6.6182,6.6182,6.5705,6.5028,6.4043,6.3761,6.2963,6.0631,6.0117,5.984,5.908,5.9838,6.1031,6.2458,6.3593,6.453,6.5228,6.5301,6.5595,6.6256,6.6329,6.6596,6.7176,6.744,6.7423,6.7195,6.7387,6.6781,6.5136,6.5699,6.5332,6.3778,6.3623,6.3501,6.3501,6.2638,6.2279,6.2381,6.2381,6.2381,6.2381,6.2381,6.2381,6.2459,6.3202,6.4113,6.5065,6.5904,6.7295,6.8972,6.9669,6.9559,6.9045,5.3041,5.3203,5.3203,5.3203,5.2576,5.2112,5.2112,5.1189,5.0472,5.0472,5.0472,5.0472,5.0472,5.2493,5.4218,5.5049,5.6499,5.7336,5.7336,5.774,5.7997,5.7997,5.7997,5.7997,5.7997,5.7997,5.7997,5.7997,5.7997,5.7813,5.7446,5.7005,5.6602,5.6235,5.495,5.4399,5.4363,5.3555,5.3387,5.3849,5.5097,5.5794,5.6271,5.7519,5.7997,5.7997,5.7997,5.7997,5.7997,5.7997,5.7997,5.7844,5.7116,5.8202,5.9652,5.9391,6.0646,6.2245,6.2705,6.3429,6.42,6.464,6.5632,6.6623,6.7063,6.688,6.6399,6.5533,6.4989,6.4052,6.2056,6.1336,6.0949,6.0566,6.1574,6.2844,6.3986,6.5278,6.6219,6.6586,6.6623,6.6769,6.7136,6.7577,6.7981,6.8348,6.8385,6.8385,6.8385,6.7944,6.7332,6.6562,6.646,6.5792,6.4503,6.3974,6.3462,6.2973,6.2581,6.2381,6.2381,6.2381,6.2659,6.3087,6.262,6.2697,6.3196,6.4023,6.4603,6.5169,6.6998,6.8757,7.0293,7.066,7.0257,6.9522]}]]